GFSGBSN_prec_cloud_003.txt.gz
Cloud_Cover
94 100 100 100 100 100 100 100 100 100 100 93 4 31 97 100 100 100 100 100 99 41 93 100 100 100 99 100 70 4 0 0 0 0 0 0 0 0 1 77 100 100 100 100 100 100 100
100 100 100 100 100 100 100 100 100 100 63 100 78 95 28 100 100 100 100 100 100 100 100 100 100 98 8 14 1 0 0 0 0 0 0 0 0 0 0 0 11 100 100 100 100 100 100
100 100 100 100 100 100 100 100 100 100 100 52 28 79 96 100 100 100 91 100 100 91 98 100 100 3 0 0 0 0 0 0 0 0 0 0 0 0 0 0 0 96 100 100 100 100 100
100 100 100 100 100 100 100 100 100 99 100 93 98 61 100 100 100 100 100 100 40 100 100 100 98 0 0 0 0 0 0 0 0 0 0 0 0 0 0 0 0 0 0 5 76 85 71
100 100 100 99 100 100 100 100 97 100 86 76 100 100 100 100 8 2 10 6 15 100 100 90 9 0 0 0 0 0 0 0 0 2 5 4 1 4 3 4 0 0 32 1 0 0 0
100 100 53 100 100 100 100 100 99 100 100 100 100 98 47 5 1 0 0 31 40 80 35 0 0 0 0 0 0 2 4 5 5 5 5 3 0 0 0 0 84 14 0 0 0 0 0
100 100 100 100 100 100 100 93 100 100 100 99 100 26 5 5 4 0 52 0 0 0 0 8 24 17 6 41 27 13 14 4 3 4 3 0 4 3 0 0 0 0 0 0 0 0 0
100 95 100 99 100 100 100 100 95 26 76 6 5 0 0 2 1 0 14 4 5 5 28 30 34 1 0 0 0 0 0 0 0 0 0 0 0 0 0 0 0 0 0 0 0 0 0
100 67 100 99 88 100 100 67 6 68 81 15 4 5 6 68 82 100 95 70 35 5 3 0 0 0 0 0 0 0 0 0 0 0 0 0 0 0 0 0 0 0 0 0 0 0 0
97 11 100 63 100 100 100 51 16 44 60 28 5 6 94 100 72 50 52 21 5 2 0 0 0 0 0 0 0 0 0 0 0 0 0 0 0 0 0 0 0 0 0 0 0 0 9
11 76 100 100 100 99 100 100 5 24 100 99 38 100 100 98 78 36 5 5 2 0 0 0 0 0 0 0 0 0 0 0 0 0 0 0 0 0 0 0 0 0 0 0 0 0 0
44 100 100 100 100 100 100 100 82 100 100 100 100 100 100 90 8 5 5 5 0 0 0 0 0 0 0 0 0 0 0 0 0 0 0 0 0 0 0 0 0 0 0 0 0 0 0
96 100 92 100 47 100 100 100 100 100 100 100 100 100 81 52 5 5 5 5 0 1 0 0 0 0 0 0 0 0 0 0 0 0 0 0 0 0 0 1 0 0 0 4 4 4 39
100 100 53 95 100 100 100 100 100 100 100 100 100 100 36 6 63 5 3 0 0 4 0 0 0 0 0 0 0 0 0 0 0 0 0 4 23 0 0 0 0 0 0 1 0 2 8
100 100 100 100 100 100 100 100 100 100 100 100 98 15 5 61 70 5 0 2 7 0 0 0 0 0 0 0 0 0 0 0 0 0 1 0 0 0 0 0 0 0 0 0 0 0 0
100 100 86 100 100 100 100 100 100 100 100 98 60 22 24 25 5 5 5 4 0 0 0 1 0 0 0 0 0 0 0 0 0 0 0 0 0 0 0 0 0 0 0 4 2 22 0
100 100 100 100 100 100 100 100 100 100 100 99 56 43 25 6 5 5 3 0 0 0 0 0 0 0 1 2 5 0 0 0 0 0 0 0 0 0 0 0 0 4 5 0 0 0 1
100 100 100 100 100 100 100 100 100 100 100 87 99 34 5 5 5 5 5 5 1 5 1 1 0 0 0 5 5 5 5 0 0 0 0 0 0 0 0 0 0 0 3 0 0 2 4
100 100 100 100 100 100 100 100 100 96 80 62 60 82 10 5 6 5 48 5 5 5 0 0 0 0 0 5 5 5 5 5 0 0 2 0 0 0 0 0 5 1 4 1 1 5 5
100 100 100 100 100 100 100 100 100 100 92 95 85 46 56 5 62 54 53 56 5 5 0 0 0 0 1 5 3 5 5 0 0 0 5 5 4 5 5 5 5 34 13 5 19 26 54
100 100 100 100 100 100 100 100 100 100 59 74 79 40 84 8 38 5 44 68 80 15 5 4 5 0 5 0 0 0 1 0 0 0 0 0 0 0 0 0 5 6 30 6 5 20 64
100 100 100 100 100 100 100 100 100 100 97 9 73 100 76 8 5 5 5 72 74 46 5 5 5 2 0 0 0 0 0 0 0 0 0 1 4 5 0 0 0 0 5 4 5 12 6
100 100 100 100 100 100 100 100 100 100 100 24 27 100 99 19 6 5 5 53 30 39 10 5 5 5 5 3 0 0 0 1 1 5 5 2 3 5 5 7 4 5 30 5 58 86 71
100 100 100 100 100 100 100 100 100 100 100 100 11 69 100 100 5 5 5 12 52 5 5 5 5 5 5 5 5 3 5 5 5 5 5 5 3 47 52 86 50 24 19 24 19 5 40
100 100 100 100 100 100 100 100 100 100 100 100 98 73 100 98 90 6 23 12 46 5 5 6 26 44 62 5 8 15 25 76 48 5 5 2 15 45 90 5 51 21 5 5 5 3 14
100 100 100 100 100 100 100 100 100 100 100 100 100 100 90 79 98 100 100 100 54 46 7 35 57 58 19 5 39 95 10 5 5 5 3 0 13 5 61 54 59 12 78 5 5 42 44
100 100 100 97 100 100 100 100 100 100 100 100 100 100 98 99 100 98 100 100 100 100 100 100 99 92 85 76 92 95 5 5 5 28 72 64 94 72 98 78 16 25 5 4 32 42 36
100 100 100 99 100 100 100 100 100 100 100 100 100 100 100 93 93 100 95 6 7 67 100 100 100 100 100 100 97 49 97 5 5 5 4 29 30 77 76 92 74 28 93 51 91 96 33
100 100 100 100 100 100 100 100 100 100 100 100 100 100 100 100 100 99 100 100 100 100 100 100 100 100 100 100 100 74 97 89 25 5 5 5 7 33 78 48 99 100 100 88 100 96 65

GFSGBSN_prec_cloud_006.txt.gz
Cloud_Cover
99 100 100 100 86 100 100 100 100 100 100 100 100 94 14 75 100 100 100 100 100 100 63 100 100 100 63 86 100 94 68 3 2 0 0 2 69 70 100 100 100 100 100 100 100 100 100
83 100 86 100 100 100 89 100 100 100 100 100 100 34 35 91 100 100 100 100 100 100 100 100 100 100 100 100 40 66 29 5 4 4 4 24 100 100 54 26 48 100 100 100 100 100 100
100 100 100 100 100 100 100 100 100 100 100 100 94 98 18 89 100 100 100 100 100 100 100 100 100 100 100 99 43 79 97 97 2 0 0 0 0 0 0 0 0 44 78 35 4 4 51
100 100 100 100 100 100 100 100 100 100 100 95 63 100 100 95 100 100 100 100 100 100 100 100 100 5 60 78 34 0 2 0 0 0 0 0 0 0 1 0 0 0 0 15 0 0 2
100 100 100 100 100 100 48 100 100 100 84 85 68 94 95 100 100 100 100 100 75 89 100 90 9 0 0 0 0 0 0 0 0 0 0 0 0 0 0 0 0 0 50 40 0 0 0
100 100 100 100 100 100 89 100 100 96 100 75 94 100 100 100 100 100 91 28 31 64 52 0 0 0 0 0 0 0 0 0 0 0 0 0 0 0 0 55 100 20 66 54 0 3 4
100 100 100 100 100 100 100 100 100 100 100 100 100 100 100 100 49 1 47 3 0 0 0 0 0 0 0 0 0 0 0 0 0 0 2 19 60 63 69 32 71 29 5 6 76 32 5
100 100 100 100 100 100 100 78 100 100 100 100 100 89 5 5 2 0 15 4 0 0 0 0 0 0 4 0 6 4 5 10 10 48 42 26 49 11 8 10 13 3 1 2 0 0 0
100 100 100 100 54 100 79 68 100 100 100 100 91 26 5 5 11 36 0 0 4 1 49 12 5 4 5 14 40 33 12 8 3 1 0 0 0 0 0 0 0 0 0 0 0 0 0
100 100 100 56 10 100 100 100 100 100 89 23 4 2 4 1 45 2 5 6 40 53 24 43 44 46 5 10 4 0 0 0 0 0 0 0 0 0 0 0 0 0 0 0 0 0 28
100 100 100 88 41 100 91 100 66 39 5 0 5 65 90 52 99 69 84 58 44 70 78 18 6 0 0 0 0 0 0 0 0 0 0 0 0 0 0 0 0 0 0 0 0 0 0
100 100 100 86 100 87 100 98 46 24 5 5 74 43 7 7 46 97 56 79 63 12 5 2 0 0 0 0 0 0 0 0 0 0 0 0 0 0 0 0 0 0 0 0 0 0 0
100 100 100 100 62 100 100 92 6 100 50 20 63 94 100 100 96 24 11 14 18 33 1 0 0 0 0 0 0 0 0 0 0 2 1 0 0 0 0 1 0 0 4 9 12 37 4
100 100 100 100 100 100 100 98 92 100 91 86 89 100 84 48 54 25 58 17 5 3 0 0 0 0 0 0 0 0 1 0 0 0 5 72 24 0 0 0 0 0 0 0 0 6 49
100 100 100 100 100 100 100 100 90 84 100 100 100 100 100 41 9 5 70 6 4 5 0 0 0 0 0 0 0 0 0 0 0 0 2 0 2 0 0 0 0 1 1 0 0 0 0
100 100 100 100 100 100 100 100 100 100 100 100 100 100 46 16 24 35 5 5 5 2 0 5 1 1 6 0 1 5 0 0 0 0 0 0 1 0 0 0 0 0 0 0 32 3 4
100 100 100 100 95 100 100 100 100 100 100 100 100 99 55 8 37 69 8 5 5 0 4 5 5 0 64 2 5 5 0 0 0 0 0 0 0 0 0 0 0 0 25 0 0 0 0
100 100 100 100 100 100 100 100 100 100 100 100 100 80 42 36 34 16 22 5 5 0 2 3 1 0 5 5 5 5 5 5 0 0 0 0 0 0 0 0 0 0 1 5 2 5 5
100 100 100 100 100 100 100 100 100 100 100 100 49 50 6 49 5 28 39 5 1 0 5 5 2 0 4 5 5 18 5 5 5 5 0 0 0 0 0 2 2 0 4 5 5 0 0
100 100 100 100 100 100 100 100 100 100 100 100 100 25 14 23 58 52 5 5 5 2 5 5 3 1 5 5 5 5 5 5 5 5 5 0 0 0 3 4 5 5 5 5 5 5 5
100 100 100 100 100 100 100 94 100 100 100 68 78 8 40 91 15 11 5 5 52 5 5 5 1 5 5 5 5 5 2 1 3 2 0 0 0 0 0 0 0 0 0 0 5 12 80
100 100 100 100 100 100 100 100 100 100 100 67 70 98 8 56 5 5 5 30 57 28 5 5 5 5 5 3 5 5 0 0 0 0 0 0 5 4 0 0 0 0 0 0 0 13 7
100 100 100 100 100 100 100 100 100 100 100 83 44 34 16 24 17 6 9 5 6 16 5 5 5 5 5 5 5 5 0 0 0 2 1 1 5 5 4 1 1 3 5 5 4 81 6
100 100 100 100 100 100 100 100 100 100 100 100 39 12 65 39 53 28 5 5 23 5 5 5 5 7 20 5 5 5 5 3 0 2 4 0 0 28 8 40 20 5 5 4 5 37 21
100 100 100 100 100 100 100 100 100 100 100 100 100 16 11 100 22 82 6 10 29 5 5 6 5 5 8 72 58 16 15 5 5 5 5 4 0 31 74 5 5 1 6 6 2 0 4
100 100 100 100 100 100 100 100 100 100 100 100 100 100 58 70 34 100 36 8 5 5 5 5 5 5 22 5 26 15 5 5 21 5 5 4 0 7 26 9 5 1 64 5 5 5 38
100 100 100 100 100 100 100 100 100 100 100 100 100 100 100 86 5 5 23 82 21 73 81 88 5 21 20 50 91 98 100 92 46 47 78 30 77 43 85 90 10 0 5 0 4 5 5
100 100 100 100 100 100 100 100 100 100 100 100 100 100 100 100 100 97 79 28 48 46 95 100 98 98 94 100 100 100 77 93 39 8 7 23 25 75 51 87 33 5 35 10 20 38 48
100 100 100 100 100 100 100 100 100 100 100 100 100 100 100 100 100 100 100 100 100 99 100 90 8 49 98 100 86 68 86 91 25 11 5 4 6 5 4 0 22 95 40 6 5 53 65

GFSGBSN_prec_cloud_009.txt.gz
Cloud_Cover
0 0 4 79 100 96 100 100 100 100 100 100 100 100 100 100 97 100 100 100 100 100 100 100 100 100 4 5 2 7 100 100 100 99 100 77 9 9 12 0 95 100 100 100 100 100 100
0 0 0 5 92 100 100 100 100 100 100 100 100 100 99 4 0 97 100 100 100 100 100 100 100 98 87 13 84 100 100 54 79 39 95 92 26 24 100 50 15 100 100 100 100 100 100
0 0 1 5 86 100 100 100 100 100 100 100 100 80 57 100 91 100 100 100 100 100 100 100 100 98 63 99 84 88 28 88 20 29 51 98 76 89 85 7 0 6 100 100 100 100 100
0 0 4 57 100 100 100 100 100 98 100 98 36 49 79 11 100 100 100 100 100 100 100 100 100 100 100 94 99 96 100 100 100 100 25 2 1 0 0 3 3 19 100 100 100 84 44
0 0 4 90 100 100 100 100 100 100 100 98 51 95 28 58 100 100 100 100 100 100 100 98 25 100 100 49 100 100 60 43 15 2 0 0 0 0 2 53 9 9 81 5 5 0 0
0 0 5 92 100 100 100 100 100 100 68 99 99 100 100 100 100 100 100 100 66 91 58 6 2 73 28 84 6 0 0 0 0 0 0 1 2 4 60 6 4 83 97 36 4 0 0
0 3 90 99 100 100 100 100 100 46 78 39 66 100 100 100 100 100 100 79 5 8 0 0 0 0 0 0 0 0 0 0 0 0 0 2 4 0 0 1 5 100 100 50 4 0 0
0 7 79 100 100 100 100 55 56 100 33 100 100 100 100 100 100 100 72 1 0 0 0 0 0 0 0 0 0 0 0 0 0 0 0 2 2 39 47 37 41 76 71 74 5 59 6
0 70 100 100 100 100 99 45 43 94 100 100 100 100 100 100 30 53 8 0 0 0 0 0 0 0 0 1 2 0 4 7 10 6 16 27 32 15 9 19 25 6 2 2 8 2 0
0 100 100 100 100 100 29 75 74 100 100 100 100 95 5 17 6 0 0 0 0 0 0 0 2 3 5 31 50 32 5 20 6 4 1 3 1 0 0 0 0 0 0 0 0 0 0
0 100 100 100 100 92 67 55 50 100 100 100 96 3 1 5 0 0 0 3 5 62 6 4 8 43 6 36 3 5 2 2 0 0 0 0 0 0 0 0 0 0 0 0 0 0 0
5 100 100 100 100 88 100 3 56 100 100 99 69 27 5 3 0 5 53 38 7 15 14 28 60 12 5 4 0 0 0 0 0 0 0 0 0 0 0 0 0 0 0 0 0 0 0
74 100 100 100 100 100 99 5 100 100 100 90 5 1 0 3 6 20 14 91 100 43 26 27 32 1 0 0 0 0 0 0 0 0 0 0 0 0 0 0 0 0 0 0 4 1 4
100 100 100 100 100 100 66 77 71 86 47 77 45 5 5 5 5 58 10 14 16 6 5 3 0 0 0 0 0 0 0 0 0 4 4 2 4 0 0 0 0 0 0 0 0 3 4
100 100 100 100 100 100 95 90 18 50 17 95 68 60 15 5 5 5 33 5 5 4 5 1 0 0 0 0 0 0 0 0 0 0 4 3 1 0 0 0 0 0 0 0 0 0 0
100 100 100 100 100 98 97 100 5 73 100 67 97 59 5 5 7 50 38 10 77 27 2 0 0 4 4 0 0 0 0 0 0 0 0 0 0 0 0 0 0 0 0 0 0 0 0
100 100 100 100 100 100 98 100 5 99 100 63 100 91 27 5 46 5 13 5 49 3 2 3 12 33 94 2 24 13 0 0 0 0 0 0 0 0 0 0 0 0 0 0 0 0 2
100 100 100 100 100 100 100 100 6 55 100 100 45 100 49 5 5 71 32 5 5 2 5 5 0 2 5 5 6 5 1 0 0 0 0 0 0 0 0 0 0 0 0 0 0 0 0
100 100 100 100 100 100 100 100 100 100 100 93 100 100 100 10 20 21 23 5 4 2 0 0 2 0 0 5 45 5 5 5 5 0 0 0 0 0 0 0 0 0 0 0 1 0 0
100 100 100 100 100 98 100 100 100 100 88 56 100 100 100 42 34 67 30 37 5 0 0 0 0 0 0 5 5 34 30 32 5 2 0 0 0 0 0 0 0 0 0 0 1 5 3
100 100 100 100 100 100 100 100 100 100 95 100 100 100 97 98 43 29 88 9 5 5 0 0 0 0 4 5 5 5 22 20 5 5 0 0 0 0 0 0 0 0 0 0 0 0 3
100 100 100 100 100 93 100 100 100 100 100 100 100 100 5 5 22 49 74 20 5 34 3 3 4 3 5 5 3 0 5 5 0 0 0 0 0 0 0 0 0 0 0 0 0 0 0
100 100 100 100 100 100 100 100 100 100 100 100 100 100 99 52 5 49 16 5 5 18 5 5 5 5 5 5 5 1 0 0 0 0 0 0 0 0 4 3 0 0 0 0 0 0 2
100 100 100 100 100 100 100 100 100 100 100 100 100 90 65 8 39 62 10 5 6 18 5 33 20 5 5 5 5 5 5 5 4 4 5 5 5 53 5 4 3 1 2 0 0 0 0
100 100 100 100 100 100 100 100 100 100 100 100 100 98 54 90 6 33 6 5 40 5 82 6 7 6 67 8 5 5 5 5 5 5 5 6 47 40 45 5 5 5 5 0 0 1 0
100 100 100 100 100 100 100 100 100 100 100 100 100 100 100 58 48 8 5 72 96 11 11 5 25 7 68 30 6 6 5 5 7 76 100 95 5 5 79 5 5 5 5 5 5 1 5
100 100 100 100 100 100 100 100 100 100 100 100 100 100 100 100 96 82 7 25 5 6 21 77 21 8 5 89 98 100 100 100 93 74 5 17 6 16 41 5 5 0 2 0 2 2 0
100 100 100 100 100 100 100 100 100 100 100 100 100 100 100 100 100 76 80 35 13 72 90 73 47 28 85 44 43 100 82 5 5 15 67 5 35 57 40 22 25 1 4 5 27 5 5
100 100 100 100 100 100 100 100 100 100 100 100 100 100 100 100 100 100 100 96 85 89 93 27 7 100 69 97 99 84 85 70 100 53 73 25 19 24 90 8 5 0 5 5 8 5 6

GFSGBSN_prec_cloud_012.txt.gz
Cloud_Cover
0 0 0 0 0 14 88 100 100 100 100 100 100 100 100 100 100 100 100 100 100 100 100 100 100 100 9 0 5 5 5 100 100 97 59 56 100 100 100 100 96 100 100 99 100 100 100
0 0 0 0 0 0 100 100 100 100 100 100 100 100 100 100 60 33 100 100 100 100 100 100 100 98 83 6 84 11 0 74 100 100 99 82 64 100 93 92 97 26 100 100 100 100 100
0 0 0 0 0 0 100 100 100 100 100 100 100 100 100 100 44 50 100 100 100 100 100 100 100 99 100 39 2 0 20 100 100 100 100 100 99 99 97 98 92 5 41 100 100 100 100
0 0 0 0 0 18 100 98 100 100 100 100 100 64 34 100 100 100 100 100 100 100 100 100 100 100 100 89 94 100 100 29 100 85 100 95 100 100 38 5 5 5 5 0 46 64 57
0 0 0 0 0 50 100 93 100 100 100 100 30 8 67 77 20 76 100 100 100 100 100 100 100 19 100 78 23 100 78 100 100 100 100 100 100 88 21 1 5 5 5 5 5 5 0
0 0 0 0 0 85 100 100 100 100 100 16 2 56 97 100 66 90 100 100 100 100 100 57 100 89 100 100 100 100 98 100 100 100 100 42 19 10 0 2 5 3 4 5 5 3 0
0 0 0 0 0 91 100 100 100 100 49 5 98 100 96 100 100 100 100 100 100 100 35 22 87 100 99 95 78 7 2 0 2 0 0 1 0 0 0 5 32 7 5 1 5 0 7
0 0 0 0 0 7 37 96 100 98 28 1 57 85 100 91 94 100 100 84 5 2 1 4 96 42 37 2 0 0 0 0 0 2 3 0 0 1 0 0 64 98 84 0 0 0 0
0 0 0 0 0 5 10 100 100 51 88 1 9 89 100 100 100 100 49 5 4 4 0 0 0 0 0 0 0 0 0 0 0 0 0 0 1 5 0 5 5 62 6 6 5 11 5
0 0 0 0 0 5 77 100 100 4 2 32 100 100 100 100 100 32 2 0 0 0 0 0 0 0 0 0 0 0 0 0 0 2 5 5 4 1 5 5 5 5 23 10 0 0 0
0 0 0 0 2 5 100 100 68 3 28 100 100 100 100 49 4 0 0 0 0 0 0 0 0 0 4 4 5 6 30 5 4 5 2 0 0 0 0 0 0 0 0 0 0 0 0
0 0 0 0 2 32 100 100 5 5 66 100 90 100 97 4 0 4 0 0 3 5 3 5 5 7 18 5 6 5 5 2 0 0 0 0 0 0 0 0 0 0 0 0 0 0 0
0 0 0 0 35 97 100 80 18 96 100 100 93 71 5 5 4 0 0 2 12 25 5 5 63 28 12 12 0 0 0 0 0 0 0 0 0 0 0 0 0 0 0 0 1 0 1
0 0 0 2 82 100 100 52 40 100 100 81 64 50 10 5 5 5 56 100 10 5 49 60 43 6 1 0 0 0 0 0 0 0 0 0 0 0 0 0 0 0 0 0 1 4 4
0 0 4 11 100 100 100 56 53 100 100 49 58 68 23 10 63 12 22 12 26 16 28 21 6 0 0 0 0 0 0 0 0 2 0 0 0 0 0 0 0 0 0 0 0 0 0
5 3 69 71 100 100 78 100 100 100 81 18 70 21 38 83 63 74 80 55 6 5 4 5 0 0 0 0 0 0 0 0 0 0 0 0 0 0 0 0 0 0 0 0 0 0 0
79 64 100 40 100 100 99 100 100 100 20 5 58 9 98 83 79 84 41 26 5 5 5 0 0 3 5 1 0 0 0 0 0 1 0 0 0 0 0 0 0 0 0 0 0 1 2
0 100 87 100 100 100 100 100 100 80 5 11 95 100 97 64 29 66 66 45 6 5 4 0 0 0 5 5 0 0 0 0 4 0 0 0 2 0 0 0 0 0 0 0 0 0 0
24 100 100 100 100 100 100 100 100 87 12 56 100 99 83 18 58 58 51 42 8 5 5 5 0 0 0 5 0 4 2 0 0 1 4 5 3 0 0 0 0 1 4 2 0 0 0
100 100 100 100 100 100 100 100 100 100 5 5 100 66 44 24 16 7 5 22 5 3 3 5 5 0 1 5 5 5 58 6 5 5 5 2 0 0 0 0 0 0 4 5 5 5 5
100 100 100 100 100 100 100 100 100 6 5 58 100 87 64 79 52 30 5 5 5 5 0 0 0 0 5 5 7 6 22 5 5 2 0 0 0 0 0 0 1 5 0 0 0 2 3
100 100 100 100 100 100 100 100 100 6 56 43 91 84 98 8 5 5 8 26 5 5 5 2 5 5 5 5 1 4 5 5 2 0 0 0 0 0 0 0 1 0 0 0 0 0 0
100 100 100 100 100 100 100 100 100 100 99 40 47 87 100 100 7 84 70 5 6 10 45 5 5 2 4 2 5 5 5 5 5 5 5 0 0 1 5 5 0 3 1 0 0 0 0
100 100 100 100 100 100 100 100 100 100 100 88 99 58 100 100 95 65 5 5 5 56 100 45 5 5 5 5 5 5 33 12 8 5 5 5 5 44 5 5 5 5 4 0 1 0 0
100 100 100 100 100 100 100 100 100 100 100 100 100 100 100 100 59 21 5 86 37 14 79 6 18 43 5 14 9 76 77 100 56 51 18 13 20 90 55 5 5 5 5 5 5 20 5
100 100 100 100 100 100 100 99 31 100 100 100 100 100 100 100 14 6 7 100 100 49 98 30 7 64 40 18 81 93 72 20 25 50 43 86 96 17 86 5 5 6 7 47 53 77 25
100 100 100 100 100 100 100 93 99 100 100 100 100 100 100 100 12 8 6 81 100 73 5 6 10 38 19 32 39 71 8 27 64 62 32 8 10 79 71 18 69 11 10 14 17 5 5
100 100 100 100 100 100 100 100 100 100 100 100 100 100 100 100 100 69 72 100 86 74 17 5 5 36 86 67 83 93 98 32 57 52 83 78 85 99 99 100 100 58 11 52 8 5 5
100 100 100 100 100 100 100 100 100 100 100 100 100 100 100 100 100 100 100 100 98 100 100 63 28 96 89 100 84 88 100 90 100 100 100 100 100 100 100 100 100 100 99 14 5 58 100

GFSGBSN_prec_cloud_015.txt.gz
Cloud_Cover
0 0 1 0 0 0 0 54 100 97 100 100 100 100 100 100 100 100 100 100 100 100 100 100 100 100 6 4 0 5 99 92 48 97 76 87 28 84 100 98 95 100 100 100 100 100 100
0 0 0 0 0 0 5 58 100 100 100 100 100 100 100 100 100 100 100 100 100 100 100 100 100 98 14 0 16 52 45 70 8 100 6 78 85 100 100 99 99 100 100 98 100 95 100
0 0 2 0 0 0 0 47 100 100 100 100 100 100 100 100 100 100 100 100 100 100 100 100 100 76 93 85 100 93 3 41 100 100 100 7 100 100 100 100 100 100 100 100 100 47 100
0 0 0 0 0 0 0 19 100 100 100 100 100 100 100 99 100 100 100 100 100 100 100 100 100 100 100 100 100 54 14 27 100 100 100 100 100 100 100 100 64 100 85 34 84 99 100
0 0 0 0 0 0 0 6 100 100 100 100 100 94 26 42 90 100 100 100 100 100 100 100 100 100 99 100 100 100 100 100 100 100 100 100 100 100 100 100 98 99 28 90 99 64 47
0 0 0 1 0 0 0 27 100 100 100 100 100 48 7 100 57 40 100 100 100 100 100 96 95 82 46 97 26 59 33 74 6 29 94 100 85 92 88 97 41 16 5 5 6 5 5
0 0 0 0 0 0 0 94 100 100 80 99 91 5 7 100 5 25 72 79 98 55 99 99 98 100 23 44 92 100 40 100 100 100 65 100 100 100 100 22 3 5 5 5 0 4 5
0 0 2 0 5 0 0 25 0 22 21 100 42 4 5 5 43 100 97 100 100 100 96 100 100 100 100 100 100 100 87 22 94 99 93 76 5 2 2 5 5 5 0 0 0 1 2
6 0 2 4 5 2 0 1 0 67 14 36 5 1 4 83 99 100 96 38 17 21 79 100 100 100 100 82 46 13 20 1 3 2 1 0 1 2 44 12 4 2 0 3 1 0 0
6 5 4 5 2 2 0 1 0 92 62 9 2 93 100 100 25 8 43 2 2 5 14 80 33 60 43 0 0 0 0 0 0 0 0 0 0 0 0 0 1 5 4 3 5 16 5
49 5 6 5 5 5 0 0 0 5 68 3 21 100 63 87 38 24 5 3 2 0 0 0 0 0 0 0 0 0 0 0 3 4 0 2 2 0 5 21 63 13 5 2 0 0 0
27 5 5 5 1 5 0 0 0 5 29 2 100 81 96 100 10 2 2 0 0 0 0 0 0 0 0 0 0 0 0 2 0 0 0 1 1 0 0 0 0 0 0 0 0 0 0
61 61 6 6 1 5 0 0 4 31 5 34 100 100 93 17 2 0 0 0 0 0 2 0 0 5 5 5 3 2 1 0 0 0 0 0 0 0 0 0 0 0 0 0 0 0 0
27 95 3 5 2 5 0 0 36 82 4 95 98 100 45 5 0 4 0 0 1 5 5 5 16 16 5 5 0 0 0 0 0 0 0 0 0 0 0 0 0 0 0 0 0 0 0
4 5 0 2 0 2 0 5 100 38 28 100 76 81 5 0 4 5 6 72 0 5 51 59 21 5 5 4 0 0 0 0 0 0 0 0 0 0 0 0 0 0 0 0 0 0 0
23 4 0 0 0 0 3 91 100 14 95 100 35 5 5 5 5 8 30 5 7 9 29 42 30 3 0 0 0 0 0 0 0 0 0 2 0 0 0 0 0 0 0 0 0 0 0
98 32 0 0 0 0 73 100 97 75 100 100 5 5 6 5 5 59 19 44 54 68 62 31 5 2 0 0 0 0 0 0 0 5 0 0 0 0 0 0 0 0 0 0 0 1 1
100 84 0 0 1 67 88 100 63 100 100 26 5 34 5 6 48 28 46 55 81 55 36 5 5 5 4 5 0 0 0 0 0 0 0 0 0 0 0 0 0 0 3 0 0 0 0
98 0 5 4 57 94 100 100 100 100 100 41 86 36 12 69 57 70 62 60 85 68 7 5 2 0 0 5 0 0 0 0 0 0 0 0 0 3 5 5 5 2 0 0 0 1 0
98 5 18 52 100 96 100 100 100 100 100 18 33 5 59 41 37 40 49 65 78 30 17 5 5 0 2 4 0 4 3 0 0 0 2 3 5 5 5 5 5 0 5 1 0 0 0
80 73 62 100 100 100 100 100 100 100 62 13 72 83 98 91 95 98 79 90 85 66 33 5 5 5 5 5 4 5 4 5 5 5 7 16 11 2 0 1 0 1 0 0 0 4 4
100 64 100 100 100 100 100 100 100 100 5 86 100 100 88 9 5 9 44 76 74 52 16 94 5 5 1 0 0 5 1 5 5 5 5 3 4 5 5 0 0 0 0 3 5 5 5
90 54 100 100 100 100 100 100 100 63 6 84 100 100 95 76 82 81 55 84 50 38 26 9 5 5 5 5 5 0 5 5 5 5 5 13 12 5 5 5 5 5 5 5 5 5 5
60 100 100 100 100 100 100 100 100 19 99 100 100 100 100 84 76 20 5 42 90 94 57 21 5 5 5 10 5 4 3 4 5 20 14 42 33 20 5 5 54 19 27 5 5 5 5
100 100 100 100 100 100 100 100 88 90 83 98 91 100 100 99 92 6 62 86 98 98 84 33 5 38 18 5 5 5 5 5 11 31 42 17 8 60 8 10 9 99 85 5 5 52 5
100 100 100 100 100 100 100 100 97 86 9 100 96 100 100 100 28 93 49 95 95 24 53 33 30 21 22 18 5 5 26 62 76 98 42 14 13 6 78 5 6 100 79 9 5 98 81
100 100 100 99 100 100 100 100 100 100 100 100 100 88 38 93 84 100 100 100 95 22 26 14 6 61 86 89 88 88 59 54 72 47 10 30 30 5 85 16 96 100 100 93 99 100 100
100 100 100 100 100 100 100 100 100 100 100 100 100 59 39 72 98 100 100 100 100 48 5 5 5 26 33 71 83 71 51 61 99 100 100 96 56 68 98 100 100 100 100 87 100 100 68
100 100 100 100 100 100 100 100 100 100 100 100 100 100 80 96 100 100 100 100 99 43 96 86 79 51 5 6 34 59 100 65 87 88 100 100 100 100 100 100 100 98 16 97 89 10 58

GFSGBSN_prec_cloud_018.txt.gz
Cloud_Cover
2 5 0 4 1 1 0 0 65 100 100 100 100 100 100 100 100 100 100 100 100 100 100 100 100 100 31 9 2 3 53 98 92 86 60 99 95 96 100 91 100 83 100 100 100 100 97
0 66 78 58 10 0 0 0 23 90 100 100 100 100 100 88 100 100 100 100 100 100 100 100 100 99 42 16 31 3 5 100 100 88 100 91 100 100 100 99 100 100 100 100 100 33 95
2 95 96 100 100 0 34 0 0 56 100 100 100 100 100 89 100 100 100 100 100 100 100 100 100 80 91 5 5 98 87 100 76 100 100 100 100 100 100 100 100 99 100 99 92 99 100
12 99 4 3 96 0 5 0 0 78 100 100 100 100 100 25 100 100 100 100 100 100 100 100 100 92 34 3 43 100 100 90 47 100 80 100 93 74 100 100 100 100 100 100 100 92 100
95 3 6 2 0 0 5 0 0 92 100 100 100 100 100 100 100 100 100 100 100 100 100 100 65 78 99 94 100 100 89 100 100 100 97 95 99 100 100 100 99 99 60 100 90 65 50
1 21 5 0 0 0 0 0 0 100 100 100 100 100 37 31 64 100 100 100 100 90 78 92 46 69 99 93 68 100 100 100 100 100 100 100 99 100 100 100 68 86 76 70 98 99 83
0 0 0 0 0 0 0 0 1 100 100 100 54 30 5 5 42 99 99 89 30 9 56 53 21 98 56 87 100 94 100 100 100 98 100 80 96 100 100 100 100 94 12 5 2 2 6
5 2 0 0 1 0 0 2 2 33 11 0 0 3 11 0 62 100 70 98 73 92 100 67 100 76 23 98 54 25 3 86 42 100 100 93 100 100 100 100 100 96 7 0 3 1 5
57 4 5 40 5 1 1 44 0 0 0 0 0 6 4 5 60 98 88 100 100 100 100 100 90 46 100 100 100 100 91 100 100 100 98 76 100 100 100 99 18 2 0 0 1 1 0
100 8 100 100 60 1 53 39 2 0 0 0 0 7 4 25 49 5 94 100 93 98 92 99 100 100 100 100 100 100 100 77 94 62 99 94 31 32 5 5 5 5 3 0 0 5 3
76 7 100 88 97 12 100 63 5 0 0 0 0 26 2 5 5 8 62 17 5 5 87 88 100 81 100 2 1 1 0 0 0 0 0 0 0 0 5 0 0 0 0 0 5 48 80
100 100 100 96 100 100 52 75 5 0 0 0 1 22 84 60 19 75 5 5 11 22 26 5 5 33 2 0 0 0 0 0 0 0 0 0 0 0 0 0 0 2 2 0 4 2 0
100 100 100 100 100 100 81 100 2 1 0 1 5 22 54 60 99 21 1 1 1 0 0 0 0 0 0 0 0 0 0 0 1 0 5 5 0 4 4 3 1 0 0 0 0 0 0
100 100 100 100 100 100 100 94 9 0 4 0 12 18 58 100 74 4 0 0 0 0 0 0 4 3 0 5 2 0 4 0 0 0 1 0 0 0 0 0 0 0 0 0 0 5 0
100 100 100 100 100 100 96 100 54 5 5 5 26 56 98 31 48 5 0 0 0 0 0 4 8 4 0 0 0 0 0 0 0 0 0 0 0 0 0 0 0 0 0 0 0 0 0
100 100 100 95 100 100 100 80 100 30 5 2 66 11 99 5 36 1 0 2 0 0 4 5 1 5 0 0 0 0 0 0 0 0 0 0 0 0 0 0 0 0 0 0 0 0 0
100 100 100 3 84 78 22 15 57 100 5 4 82 35 100 5 5 0 0 1 5 5 5 2 5 3 0 0 0 0 0 0 0 0 0 0 0 0 0 0 0 0 0 0 0 1 1
100 100 93 1 16 4 0 44 2 31 4 6 69 84 6 8 4 4 4 13 14 5 5 5 5 5 4 3 0 0 0 0 0 0 0 0 1 0 0 0 0 0 0 0 0 0 7
100 100 100 61 2 0 0 0 0 0 84 50 50 91 7 5 5 4 8 54 18 20 44 5 5 5 5 5 5 0 0 0 0 0 0 0 0 0 0 0 0 1 5 4 0 0 0
100 100 98 5 1 0 0 5 0 92 100 22 88 31 5 5 16 5 21 53 58 30 7 5 8 5 5 5 5 2 0 0 0 0 0 0 0 0 4 5 5 5 3 0 0 0 1
100 100 100 100 100 93 48 54 87 100 72 7 6 5 84 11 6 65 100 67 61 98 96 5 7 5 1 5 5 5 0 0 0 0 0 1 4 5 5 5 5 5 0 0 2 4 5
100 100 100 100 100 100 94 94 100 100 10 5 5 65 100 6 5 74 94 66 75 99 48 32 5 5 5 0 0 3 5 4 8 25 58 46 12 5 5 5 5 14 5 5 5 34 5
100 100 100 100 100 99 88 100 100 88 5 17 13 99 93 5 5 62 83 94 95 62 66 6 5 5 5 5 5 5 77 87 93 78 16 5 5 5 5 5 63 100 5 11 48 38 5
100 100 100 100 100 100 100 100 100 28 27 74 71 99 8 44 53 41 56 100 76 32 61 75 32 5 5 5 4 5 35 71 57 25 5 16 5 5 5 5 61 13 16 5 5 5 5
100 100 100 100 100 100 100 100 100 14 59 86 56 23 58 100 84 10 84 19 20 62 13 7 5 34 34 5 5 21 5 5 5 5 5 5 5 36 5 14 97 98 100 91 5 15 100
100 100 100 100 100 100 100 100 99 6 100 100 57 14 78 100 61 6 25 24 14 98 48 5 5 5 7 33 58 18 8 5 11 49 25 5 5 5 5 15 86 100 100 100 18 60 100
100 99 100 100 100 100 100 100 95 41 100 98 31 6 82 96 49 71 45 26 40 80 19 5 29 5 24 26 75 72 40 26 98 66 89 52 58 6 76 7 96 100 95 100 100 98 82
93 100 100 100 100 100 100 100 100 100 100 78 29 66 100 100 98 98 90 95 100 42 5 6 38 65 92 99 99 88 21 29 99 100 75 35 65 27 58 27 94 43 100 100 76 43 99
100 100 100 100 100 100 100 100 100 100 100 100 33 72 94 100 88 100 100 92 82 43 22 8 35 17 11 36 63 89 94 99 75 59 21 5 5 5 90 100 86 98 100 42 100 100 98

GFSGBSN_prec_cloud_021.txt.gz
Cloud_Cover
34 5 33 7 5 0 0 1 21 5 100 100 100 100 99 100 100 100 100 100 100 100 100 100 100 100 42 18 0 0 0 10 71 100 43 84 100 92 100 100 100 100 99 100 99 95 100
5 5 5 5 26 4 0 4 70 66 60 100 100 100 89 100 100 100 100 100 91 100 100 100 100 98 22 8 5 3 5 37 100 100 100 100 100 100 96 99 100 100 100 100 100 100 100
70 6 11 69 74 5 2 0 5 5 2 97 100 100 84 100 100 100 100 100 100 100 100 100 100 99 34 76 5 5 82 100 100 100 88 100 100 100 100 100 100 100 100 100 100 100 100
100 14 18 93 3 1 5 5 29 38 1 88 100 100 100 100 100 100 100 100 100 100 100 100 100 100 40 95 5 51 69 100 100 98 100 48 83 84 100 100 100 100 100 100 100 100 99
100 48 6 3 53 5 5 5 88 0 0 76 100 100 100 100 100 100 100 100 100 100 100 100 100 98 10 19 9 100 100 100 83 100 100 100 100 100 100 100 100 100 100 100 100 100 100
100 100 4 99 100 100 93 23 43 5 0 39 100 100 100 100 100 100 100 100 100 99 100 100 98 15 5 96 68 100 74 100 100 76 100 100 100 100 100 100 100 100 100 100 100 100 99
47 100 100 100 100 100 100 87 90 4 0 43 100 100 96 40 100 100 80 100 100 68 73 7 4 97 100 65 92 100 100 100 100 100 100 100 100 100 100 100 100 100 100 100 100 60 5
100 100 100 100 100 100 95 69 91 1 0 84 34 4 3 25 100 100 97 24 29 15 34 100 100 100 100 98 88 100 100 99 100 90 96 96 98 87 100 100 94 97 100 97 100 77 13
100 100 100 100 100 50 39 5 5 0 4 5 0 0 0 38 100 91 95 79 75 99 100 94 59 23 25 61 6 5 18 82 82 100 99 97 93 100 100 100 99 100 99 99 52 6 0
19 60 100 66 4 2 2 7 5 4 12 8 0 0 0 97 55 24 5 39 100 78 79 99 82 98 100 100 100 100 100 75 100 100 100 100 100 100 100 100 100 100 84 20 5 5 9
10 41 100 96 2 2 0 92 78 2 66 72 0 0 6 10 6 1 7 47 17 5 23 29 70 100 100 100 100 100 98 100 100 100 100 100 100 99 73 100 95 11 8 5 0 0 3
71 9 100 100 1 1 0 60 100 40 100 100 0 0 34 61 41 1 22 100 53 42 100 99 100 100 97 68 72 28 4 6 21 6 6 5 36 63 7 4 3 3 0 4 1 3 5
22 100 100 100 5 25 4 5 54 39 94 59 0 2 94 0 23 2 26 86 73 46 64 92 100 84 14 0 0 0 0 0 0 0 0 0 0 0 0 0 0 0 2 5 32 21 1
38 8 100 100 21 100 85 100 95 44 96 4 0 81 62 6 19 5 17 7 5 37 5 5 4 0 0 0 0 0 0 0 0 0 0 0 0 4 5 0 0 0 0 0 0 0 0
100 39 100 100 100 100 100 100 100 100 80 3 20 100 6 6 96 8 19 5 12 2 0 0 0 0 0 0 0 0 2 0 0 0 0 0 0 0 0 0 0 0 0 0 0 0 0
78 80 100 100 100 94 100 100 100 100 100 11 5 13 27 89 94 41 14 5 3 0 0 0 0 4 0 0 0 0 0 0 0 0 0 0 0 0 0 0 0 0 0 0 0 0 0
99 96 100 100 100 99 100 100 100 100 100 14 5 3 14 100 83 60 8 5 0 0 0 0 0 3 4 0 0 0 0 0 0 0 0 0 0 0 0 0 0 0 0 0 0 0 0
7 100 100 100 100 100 71 100 100 100 100 92 5 15 29 100 99 82 5 5 0 5 5 5 2 5 0 0 0 0 0 0 0 0 0 0 0 0 0 0 0 0 0 0 0 0 1
10 100 100 100 100 100 99 15 75 100 23 14 5 94 35 100 100 44 5 5 5 5 5 4 5 0 0 2 2 0 0 0 0 0 0 0 0 0 0 0 0 0 0 1 2 0 0
98 100 100 100 100 100 57 0 5 100 78 58 19 38 76 100 99 6 5 5 5 5 27 5 5 0 0 0 3 4 0 0 0 0 0 0 0 0 0 0 2 5 5 3 0 0 0
100 100 100 100 100 100 8 0 0 78 32 7 3 11 100 100 26 45 6 5 5 5 72 56 5 0 4 4 5 5 5 4 5 0 1 1 0 0 2 5 5 5 5 4 4 0 5
100 100 100 100 100 100 1 2 0 12 12 7 5 11 100 100 29 62 10 53 6 49 51 60 47 5 5 5 4 5 4 1 4 5 5 5 5 5 5 38 8 84 23 5 5 5 5
100 100 100 100 100 100 52 4 5 28 4 4 3 99 100 100 5 6 5 42 38 81 71 34 5 5 5 5 4 1 5 5 6 25 14 23 20 29 79 10 53 100 30 5 5 5 5
100 100 96 93 100 100 100 78 87 53 3 74 68 100 100 22 5 53 21 21 5 62 34 5 5 5 5 5 5 5 14 24 53 70 63 12 5 19 57 5 77 88 98 9 4 5 5
100 100 100 100 100 100 100 100 100 94 99 100 100 100 100 10 40 14 5 10 6 58 26 5 5 5 5 5 5 5 5 5 5 41 30 5 5 8 5 5 67 100 92 99 5 9 4
100 100 100 100 100 100 100 100 100 100 100 100 100 100 82 5 35 6 5 8 62 6 26 39 7 14 26 5 5 5 18 9 18 7 5 5 5 5 5 9 71 100 100 7 5 32 25
100 100 100 100 100 100 100 100 100 100 100 100 100 96 66 28 5 5 12 42 41 10 10 12 8 5 48 22 36 39 35 21 80 70 39 68 71 43 46 16 78 64 5 8 84 93 100
100 100 100 100 100 100 100 100 100 100 100 100 100 46 58 24 5 5 70 65 25 16 8 13 5 5 5 16 56 9 54 79 100 75 38 8 28 18 21 10 5 5 22 79 76 95 66
100 100 100 100 100 100 100 100 100 100 100 100 96 96 100 5 52 52 68 6 5 5 34 5 5 9 31 5 5 5 61 88 49 94 99 99 88 16 54 10 1 5 5 56 100 100 18

GFSGBSN_prec_cloud_024.txt.gz
Cloud_Cover
51 97 10 5 86 88 4 5 5 47 13 5 72 100 100 100 100 100 100 100 93 100 100 100 100 100 42 8 2 0 0 0 34 98 5 9 4 5 100 100 100 100 100 100 100 100 100
100 100 38 6 37 5 5 26 75 7 23 5 7 100 100 100 100 100 100 82 93 100 100 100 100 100 69 95 3 4 2 3 24 100 98 67 6 87 100 100 97 100 100 100 100 100 100
21 100 100 62 80 5 80 98 16 12 15 5 5 50 100 100 100 100 100 83 100 99 100 100 100 100 100 65 23 57 5 12 100 100 25 5 97 100 100 100 100 100 100 100 100 100 100
0 91 100 92 75 98 42 58 79 17 5 5 5 100 100 100 100 99 99 97 100 100 100 90 100 98 39 96 96 11 1 100 97 7 100 12 100 100 100 100 100 100 100 100 100 100 100
78 98 100 100 99 62 51 61 96 5 43 5 58 88 100 100 100 80 96 100 100 100 100 99 97 96 100 46 100 19 84 100 44 91 51 100 100 100 100 100 100 100 100 100 100 99 97
5 84 35 56 64 79 86 100 62 5 8 52 100 100 100 100 100 94 100 98 90 95 74 66 98 96 5 7 7 98 92 100 100 95 100 100 100 100 100 100 100 100 100 100 100 100 100
5 5 71 100 100 100 100 5 7 90 71 100 100 100 100 100 97 99 56 3 21 28 0 21 75 26 4 100 78 83 100 100 100 98 100 100 100 100 100 100 100 100 100 100 100 100 100
100 99 51 75 100 34 95 24 5 84 85 100 100 100 100 56 100 100 28 0 0 0 0 4 5 18 100 100 79 100 47 56 100 100 100 100 100 100 100 100 100 100 100 100 100 100 100
84 98 100 100 100 95 18 37 7 96 100 100 100 100 80 99 100 88 0 0 0 8 97 95 96 100 100 97 46 100 88 100 100 100 100 100 100 100 100 100 100 100 100 100 100 100 100
5 14 77 98 100 100 100 32 99 100 100 100 100 100 100 100 31 0 0 0 0 5 5 5 5 5 43 65 3 28 98 99 100 80 100 100 100 100 99 100 94 100 100 100 100 73 97
28 5 66 100 100 100 100 97 100 100 100 100 100 100 100 1 0 0 0 0 0 3 5 6 72 89 84 100 100 100 59 54 99 99 100 100 100 100 100 100 100 100 100 69 32 41 8
9 5 2 1 100 100 100 100 100 100 100 100 100 100 100 70 2 0 0 1 17 5 4 55 50 50 66 81 100 100 100 100 100 100 100 99 83 94 100 100 100 100 85 78 17 5 2
5 9 10 3 100 93 100 100 100 100 100 100 100 97 99 21 0 3 0 5 24 27 31 28 34 55 39 48 75 100 82 100 100 96 94 100 97 87 87 96 95 81 10 12 2 0 0
41 81 100 100 100 100 100 100 100 100 100 100 100 70 99 0 0 0 0 5 39 10 55 6 5 44 29 1 1 1 5 43 13 24 11 5 5 15 56 35 11 5 3 0 2 5 13
90 97 89 90 100 100 100 100 100 100 100 100 7 100 83 0 0 0 0 27 19 5 5 12 10 16 0 0 0 0 0 0 0 0 0 0 0 0 0 1 4 7 16 8 1 0 0
100 100 89 81 25 100 100 100 100 97 39 32 4 34 0 0 0 0 4 83 28 7 5 5 4 0 0 0 0 0 0 0 0 0 0 0 0 4 2 3 2 0 0 0 0 0 0
100 100 98 100 86 95 100 100 100 65 98 100 5 1 1 3 6 6 5 100 32 6 5 2 0 0 0 0 1 2 2 1 0 0 0 0 0 0 0 0 0 0 0 0 0 0 0
100 100 100 100 60 49 100 100 100 97 100 100 5 0 16 5 18 83 5 100 42 5 5 2 0 3 4 5 5 1 0 0 0 0 0 0 0 0 0 0 0 0 0 0 0 2 5
94 64 100 100 100 100 100 100 100 89 98 100 4 7 46 5 31 99 15 100 9 5 5 2 3 5 5 4 2 0 0 0 0 0 0 0 0 0 0 0 0 0 0 1 3 5 5
97 6 26 100 100 100 100 100 100 88 64 100 25 64 28 5 98 100 53 100 17 5 5 5 5 5 5 5 3 1 0 0 0 0 0 0 0 0 5 3 4 5 6 39 16 5 5
100 12 88 53 100 100 100 100 100 100 36 100 100 5 19 71 98 100 100 97 64 5 22 23 5 5 5 5 4 5 4 0 0 2 0 0 4 6 5 24 50 65 85 44 5 4 1
31 49 13 100 100 100 100 100 100 100 2 99 100 5 85 100 100 100 100 91 46 5 27 41 24 6 10 5 5 0 5 5 1 5 5 5 30 6 10 54 67 100 78 2 5 4 5
64 25 100 100 100 100 100 97 100 78 4 5 100 100 97 100 100 78 100 99 77 20 12 55 23 45 30 5 4 3 5 5 5 12 11 31 5 5 5 81 100 100 24 5 5 2 0
100 100 100 100 100 100 100 100 93 15 5 14 26 75 100 100 97 92 100 64 75 66 8 5 13 54 18 5 1 0 0 5 5 5 5 5 5 5 9 33 98 100 11 1 0 0 0
100 100 100 100 100 96 100 100 19 8 0 0 6 98 97 98 82 100 100 24 97 98 6 5 16 36 5 5 1 0 11 10 5 5 5 5 5 15 44 5 65 73 70 10 4 5 2
100 100 100 100 100 100 100 100 79 5 2 6 39 40 100 100 60 100 99 5 47 60 88 56 35 25 5 5 5 5 5 5 5 5 5 5 5 5 6 67 19 75 5 5 5 5 96
100 100 100 100 100 100 100 100 100 11 4 7 5 5 99 100 99 100 68 24 62 76 81 39 31 14 5 16 91 5 5 5 5 5 72 26 44 40 7 35 43 15 23 52 63 88 41
100 100 100 100 100 100 100 100 100 73 23 12 5 56 98 93 100 100 23 84 62 95 90 84 55 49 38 55 67 42 38 28 10 5 5 12 6 48 6 64 43 5 19 79 55 72 93
100 100 100 100 100 100 100 100 100 100 100 39 43 100 100 100 100 100 72 93 21 97 47 15 29 78 74 100 100 32 97 77 6 13 5 11 7 5 24 24 5 5 10 32 38 96 100

GFSGBSN_prec_cloud_027.txt.gz
Cloud_Cover
100 100 96 38 15 34 3 1 5 3 3 24 8 5 100 100 45 100 100 12 100 100 85 22 0 62 97 100 34 41 0 0 0 0 2 91 100 94 71 11 100 100 100 100 87 100 100
100 100 88 89 75 4 0 0 0 8 24 5 5 5 21 100 33 76 97 33 100 100 9 0 4 100 99 46 92 2 5 0 0 79 98 6 96 99 96 84 100 100 100 100 100 100 100
97 40 100 100 100 54 0 0 5 5 13 18 15 6 72 100 100 69 100 100 100 100 1 2 63 43 7 75 23 5 63 0 14 2 100 7 80 30 99 100 100 100 100 100 100 100 82
97 31 12 92 100 84 6 5 14 8 15 5 42 59 23 100 100 100 100 89 100 100 81 80 40 23 5 0 85 22 48 0 15 70 100 5 69 46 100 100 100 100 100 100 100 100 96
10 5 52 17 80 89 45 73 15 98 60 40 5 19 35 100 74 100 98 94 62 8 69 19 9 5 0 64 100 4 0 71 56 67 74 47 99 74 100 100 100 100 100 100 100 100 100
5 5 81 24 5 68 100 49 99 93 91 66 66 35 78 100 94 96 79 97 5 25 10 0 0 3 58 2 6 0 93 99 80 94 61 100 98 100 100 100 100 100 100 100 100 100 100
5 5 5 28 100 99 100 100 100 100 100 54 100 42 20 100 100 64 39 5 67 0 0 0 5 0 4 38 25 100 5 100 71 92 100 100 100 100 100 100 100 100 100 100 100 100 100
5 5 5 100 6 97 100 100 100 100 100 100 81 67 10 49 100 98 76 64 10 5 2 0 3 54 3 4 91 13 81 78 90 100 100 100 100 100 100 100 100 100 100 100 100 100 94
0 4 20 73 100 100 97 100 99 42 71 98 21 44 45 76 100 85 100 35 20 14 0 0 0 17 45 31 45 19 98 68 100 100 100 100 100 100 100 100 100 100 100 100 100 90 99
8 0 4 5 53 100 100 100 100 68 55 5 5 43 100 98 89 34 99 100 99 16 9 2 0 4 5 0 56 31 16 79 100 100 100 100 100 100 100 100 100 100 100 100 100 91 100
64 16 44 16 5 100 100 100 100 100 100 95 61 100 100 100 100 100 100 85 100 40 91 19 5 4 0 0 4 0 4 79 100 100 100 100 100 100 100 100 100 100 100 100 100 100 100
100 90 64 12 0 19 63 100 100 100 100 100 100 100 100 100 100 100 100 100 100 5 92 1 0 96 33 6 15 1 0 4 86 98 100 100 100 87 86 80 90 100 100 78 41 100 81
100 100 12 63 5 56 22 95 100 100 100 100 100 100 100 100 100 100 100 100 100 64 35 5 0 8 6 2 5 2 97 100 89 86 100 98 75 75 100 100 100 97 100 100 100 98 8
100 95 73 70 20 25 84 35 100 100 100 100 100 100 100 100 100 100 100 100 100 40 28 5 0 2 4 0 3 4 5 13 100 100 100 98 94 61 100 100 87 100 100 100 86 100 55
100 100 86 75 100 100 96 91 100 100 100 100 100 100 100 100 100 100 100 100 100 10 4 3 0 0 69 79 53 95 100 37 60 87 100 100 100 100 81 99 98 9 5 4 0 1 6
100 100 100 82 13 5 5 3 100 100 100 100 100 100 100 100 100 100 100 100 100 6 2 2 0 4 5 1 0 3 2 22 82 74 96 76 82 29 98 96 49 3 1 4 5 9 0
100 100 100 91 82 37 57 96 36 100 100 100 100 100 100 100 100 100 100 100 31 1 0 3 1 5 4 0 0 0 11 1 0 0 0 4 3 34 3 2 5 5 4 1 1 1 3
100 100 100 100 100 100 100 100 100 100 100 100 100 100 100 100 100 96 100 5 5 3 0 5 5 2 0 0 0 3 5 5 2 1 2 5 4 4 2 1 0 0 4 4 0 0 0
100 100 100 100 100 100 100 100 100 100 100 100 100 100 100 100 91 57 100 5 49 5 5 5 3 0 0 0 1 5 5 5 2 0 0 0 0 4 5 0 0 0 0 0 0 0 0
100 100 100 100 100 100 96 84 100 100 100 100 100 100 100 98 9 50 16 5 5 5 21 5 0 0 2 53 13 38 3 0 0 0 0 0 0 4 5 87 8 0 0 5 1 4 4
100 61 100 100 100 100 100 78 100 100 98 100 100 100 100 29 5 90 14 5 5 19 19 5 1 3 16 30 8 5 5 5 2 0 0 0 0 3 2 2 1 0 5 36 5 5 5
100 61 47 44 100 100 54 62 100 100 100 100 100 100 61 5 19 61 20 22 5 97 5 2 3 5 82 8 5 37 5 5 0 0 0 0 0 0 0 0 0 5 5 5 5 5 5
100 77 89 73 5 29 68 100 100 100 85 84 87 100 96 70 12 10 69 100 6 100 21 5 3 36 85 5 4 5 6 2 4 1 3 2 1 0 4 5 5 16 5 5 5 2 0
83 5 5 6 6 84 100 100 100 100 21 54 85 100 97 33 83 87 100 100 7 100 29 0 5 41 8 5 5 5 5 5 2 0 5 0 3 5 13 5 46 7 5 5 5 5 0
75 4 5 60 61 93 100 100 100 100 44 100 100 44 100 66 89 57 100 100 100 100 92 4 7 27 5 8 5 5 5 9 0 0 5 0 5 5 19 0 5 5 22 5 5 3 5
2 7 9 23 12 100 100 100 100 100 91 53 88 87 98 98 100 90 100 100 60 100 16 5 21 37 19 36 5 5 5 5 2 0 5 5 5 5 5 66 68 45 5 5 5 5 8
99 93 95 100 100 100 100 100 100 100 95 97 92 52 100 100 100 100 100 100 100 100 15 9 6 54 56 26 91 5 5 5 1 0 70 5 43 38 5 35 5 5 5 5 5 6 5
100 100 100 100 100 100 100 100 96 100 99 82 97 8 95 100 100 100 100 100 100 100 45 39 5 16 64 29 27 5 37 5 5 4 5 5 11 50 27 63 63 11 36 33 6 5 19
100 100 100 100 100 100 100 100 100 100 100 86 98 1 63 100 100 100 100 100 100 99 14 19 6 51 10 40 47 10 91 68 5 5 5 5 7 7 5 5 7 7 5 5 68 8 29

GFSGBSN_prec_cloud_030.txt.gz
Cloud_Cover
100 87 100 100 100 100 100 100 100 70 12 5 5 0 4 5 7 89 100 100 99 7 0 2 0 0 0 5 2 7 6 0 0 0 0 40 97 100 98 100 91 42 71 100 100 100 99
100 100 99 100 100 100 100 100 93 74 5 5 5 5 5 5 33 99 68 90 100 3 0 0 0 0 0 0 0 1 0 0 0 0 6 19 99 100 100 94 88 90 100 100 100 100 100
100 100 100 100 100 100 100 100 92 5 46 23 5 18 20 5 18 100 95 61 100 0 0 0 0 0 0 0 0 4 1 4 0 0 74 100 91 100 100 53 81 100 100 100 100 100 100
100 100 100 100 100 100 100 100 98 97 9 47 17 70 95 7 42 89 100 41 17 0 0 5 0 0 0 0 0 64 14 0 0 4 74 98 62 88 100 84 95 100 100 100 100 100 100
100 100 100 100 100 100 81 100 100 72 22 81 71 100 100 99 95 100 100 91 5 4 5 3 0 0 0 0 3 39 4 10 4 98 100 5 81 95 58 100 100 100 100 100 100 100 100
100 100 96 44 64 85 29 70 100 72 100 93 99 86 94 100 100 100 94 5 5 11 5 2 0 0 0 1 0 2 0 87 100 11 50 90 89 99 92 100 100 100 100 100 100 100 100
100 100 88 99 100 43 74 95 58 100 100 100 100 100 100 100 100 100 33 5 5 40 5 1 3 2 0 3 0 2 1 99 4 17 35 99 97 100 96 100 100 100 100 100 98 100 100
59 100 100 100 100 100 90 95 30 92 100 100 100 100 100 100 100 100 35 5 40 50 5 4 5 1 0 0 0 0 0 1 84 100 86 100 100 100 100 100 100 100 100 100 96 89 93
100 15 72 29 80 100 100 98 97 100 99 100 100 100 100 100 100 93 79 5 83 20 5 5 5 3 0 0 0 1 0 8 100 100 33 99 100 100 100 100 100 100 100 95 76 100 100
18 88 84 78 86 100 100 100 99 100 100 100 100 100 100 100 100 34 5 24 94 6 5 20 5 69 0 0 0 30 97 57 99 82 100 100 100 100 100 100 100 100 50 88 100 65 85
5 5 68 100 100 100 100 100 100 97 100 100 100 100 100 100 100 13 97 97 99 6 17 88 5 5 2 0 6 0 1 6 100 89 87 89 100 100 100 100 99 96 15 36 59 98 100
44 7 19 86 61 82 100 100 100 100 94 100 100 100 100 100 100 100 67 100 82 35 100 11 5 5 4 2 5 5 0 0 41 51 99 100 100 100 100 100 62 90 94 100 100 100 100
100 57 83 100 90 100 98 100 100 100 100 100 100 100 100 100 89 100 70 46 94 100 78 33 5 3 5 4 4 3 1 1 5 29 100 100 100 96 100 100 59 64 100 97 100 100 100
100 100 100 100 100 49 100 100 100 100 100 100 100 100 100 100 100 100 100 100 19 100 97 61 5 5 5 30 5 5 4 0 5 6 98 93 98 99 50 42 83 91 100 100 100 100 86
95 100 100 100 100 100 70 78 100 100 100 100 100 100 100 100 100 100 100 97 100 5 100 99 45 9 5 38 5 5 43 5 55 100 100 90 97 100 100 100 100 99 100 100 100 100 98
92 98 98 100 100 100 62 19 3 5 81 100 100 100 100 100 100 98 95 93 100 60 100 100 67 4 5 5 22 100 18 98 40 36 70 100 100 91 99 77 100 100 100 93 100 78 5
99 100 100 100 100 100 100 6 2 24 91 100 100 100 100 100 100 62 64 100 100 98 98 83 5 49 5 31 4 5 4 21 28 88 100 100 100 96 67 100 100 62 31 7 5 31 54
100 100 100 100 100 100 100 42 16 11 92 100 100 100 100 100 87 97 100 100 100 100 100 98 55 95 0 76 5 3 36 45 0 20 66 100 99 94 6 86 100 83 22 5 0 5 5
100 100 100 100 100 100 100 100 86 38 65 100 100 100 100 100 100 100 100 100 100 100 100 89 5 5 3 1 4 0 5 29 0 0 0 3 1 2 14 39 5 5 5 5 5 3 0
99 100 100 100 100 100 100 100 99 73 85 100 100 100 100 100 64 96 100 100 100 100 100 73 5 4 4 4 5 4 5 0 0 5 3 5 0 2 4 19 45 29 0 0 0 2 0
86 80 95 95 100 100 100 100 100 100 97 100 100 35 100 100 93 100 100 100 100 100 100 98 5 3 5 4 4 5 5 5 6 5 2 0 0 0 0 28 57 19 13 5 3 0 0
55 93 100 100 87 100 100 100 100 24 93 100 100 99 100 100 100 100 100 100 100 100 100 38 5 5 25 5 5 7 34 5 5 0 0 0 0 0 0 0 2 0 0 0 0 0 2
88 98 100 100 100 100 100 100 98 41 100 100 100 100 100 100 100 100 100 100 100 94 56 5 5 6 18 84 54 6 5 96 81 4 1 2 0 0 0 0 0 0 0 0 0 5 1
100 100 100 100 100 100 70 98 84 100 100 100 74 100 100 100 100 100 100 100 100 100 100 83 18 95 65 5 2 5 5 63 32 5 2 0 0 0 0 0 1 0 0 0 3 0 0
100 100 100 100 100 15 23 18 9 100 100 99 96 94 82 100 100 100 100 100 56 100 100 56 5 78 66 2 2 5 5 5 5 5 3 0 0 0 43 0 0 0 0 0 3 0 9
100 100 82 100 5 2 5 5 87 100 100 99 100 86 96 100 52 100 100 100 83 97 100 12 12 38 8 4 12 34 5 3 4 3 1 5 0 5 0 0 5 0 0 0 0 0 15
65 54 65 97 36 14 26 15 86 100 100 100 100 98 100 83 92 100 92 51 100 91 100 100 100 40 19 13 91 9 5 5 5 5 50 5 6 38 5 33 5 5 3 5 5 6 5
100 57 23 9 5 19 72 6 100 100 100 100 99 94 100 100 84 74 100 95 98 97 100 100 100 5 47 29 28 5 31 5 5 5 5 5 7 56 6 78 63 6 11 42 5 5 35
0 1 5 82 90 26 52 90 100 100 100 100 96 10 60 100 100 57 100 6 64 100 100 100 100 97 52 8 35 22 90 74 8 5 5 5 7 5 5 5 5 24 55 5 59 99 5

GFSGBSN_prec_cloud_033.txt.gz
Cloud_Cover
100 100 100 100 100 100 100 100 100 100 100 100 100 100 98 15 5 5 14 20 42 37 6 2 0 0 0 0 1 0 0 0 0 0 0 0 45 6 96 100 100 100 100 100 96 100 100
100 100 100 100 100 100 100 100 100 100 100 100 100 100 79 5 5 5 84 100 15 5 56 2 0 0 0 0 3 0 0 2 0 0 0 1 69 63 61 100 93 95 100 100 100 75 100
100 100 100 100 100 100 100 100 100 100 100 100 100 100 100 99 13 5 5 55 5 5 72 2 0 0 0 0 0 0 2 5 0 0 4 48 55 93 100 100 76 99 97 100 100 100 51
100 100 100 100 100 100 100 100 100 100 100 100 100 100 100 100 100 22 51 5 5 6 5 5 0 0 0 0 0 0 2 0 0 0 100 77 35 51 100 100 88 94 100 100 100 93 56
100 100 100 100 100 100 100 100 100 100 100 100 100 100 100 100 100 100 76 17 7 100 7 5 4 0 2 0 0 0 0 2 4 57 60 45 5 97 98 100 5 82 100 100 100 100 100
100 100 100 100 100 100 100 100 100 100 100 100 100 100 100 100 100 100 81 8 56 100 5 5 3 4 0 0 0 0 3 5 31 3 8 3 15 76 100 43 95 100 100 100 100 100 100
100 100 100 100 100 100 100 100 100 100 100 100 100 100 100 100 100 100 97 72 90 69 20 5 5 5 0 0 0 0 0 11 2 0 25 67 44 100 100 66 100 100 100 98 100 100 100
100 100 100 100 100 100 100 100 100 100 100 100 100 100 100 100 100 100 100 71 100 79 8 5 5 2 0 0 0 0 0 23 13 59 100 96 42 85 94 100 89 99 73 100 100 100 100
100 95 100 100 100 100 100 100 100 100 100 100 100 100 100 100 100 100 100 31 99 48 7 6 23 0 0 0 0 0 0 5 14 8 96 95 90 100 100 98 89 99 87 23 100 100 94
100 100 85 100 100 100 100 100 100 100 100 100 100 100 100 100 100 100 88 100 14 5 5 58 48 0 0 0 2 0 3 20 21 5 99 99 80 98 99 84 99 94 88 100 100 100 100
100 100 95 30 100 100 100 100 100 100 97 98 100 100 100 100 100 100 98 66 6 21 8 97 87 2 0 2 1 2 11 99 97 52 51 100 53 49 38 88 100 97 60 85 90 92 100
100 100 100 35 34 96 100 100 100 100 84 70 100 100 100 100 100 47 100 99 76 53 94 10 36 1 0 1 0 2 6 12 98 80 100 100 90 90 100 100 96 98 91 97 99 100 100
100 100 100 100 74 39 28 100 100 100 100 78 100 100 100 100 100 92 100 88 13 50 40 5 5 5 1 1 1 0 13 0 3 8 100 100 100 100 100 99 100 100 33 73 85 100 100
100 100 100 41 100 45 84 98 72 100 100 100 100 100 100 100 100 100 100 37 95 100 100 2 5 5 3 5 0 3 5 1 0 0 24 100 100 100 100 100 100 94 96 100 97 96 100
100 100 100 100 100 100 100 100 100 45 100 100 100 100 100 100 100 100 100 100 52 100 60 5 5 5 1 0 6 56 4 2 0 0 4 70 100 100 97 100 98 100 98 46 99 100 92
100 100 100 95 100 100 100 100 100 38 95 100 100 100 100 100 100 100 98 72 34 83 60 44 39 5 4 0 47 8 0 1 5 5 72 6 64 100 100 67 84 80 94 33 8 100 100
100 100 100 100 100 100 100 100 100 93 100 100 100 100 100 100 100 98 98 98 100 100 67 98 92 19 57 18 33 5 0 3 5 94 100 100 100 100 100 66 100 100 100 100 82 90 100
97 100 100 100 100 100 100 100 100 99 74 99 100 100 100 100 97 75 100 100 100 100 9 99 96 100 5 6 74 2 0 80 60 17 94 98 99 100 100 100 16 99 100 100 100 6 100
57 100 100 100 100 100 100 100 100 86 76 100 100 100 100 100 93 95 100 100 100 100 100 100 96 78 6 9 100 6 5 35 87 75 18 100 92 94 83 79 58 8 90 100 82 44 30
98 100 99 100 100 100 100 100 100 96 76 100 100 100 99 100 96 84 89 100 98 66 99 61 100 100 100 51 98 100 3 54 22 5 4 4 20 64 99 39 4 5 5 6 27 5 5
14 19 100 100 100 100 100 100 100 100 82 100 100 96 61 100 84 43 66 82 92 78 100 100 100 100 82 6 55 31 1 2 0 0 0 4 5 5 5 3 5 21 66 5 18 1 1
16 40 93 94 100 94 92 100 100 100 73 100 100 70 8 99 100 17 13 98 100 100 100 100 100 100 36 28 0 5 4 5 0 0 0 5 5 5 0 0 0 5 2 7 4 0 0
14 10 95 100 100 100 61 73 100 100 94 100 100 100 70 38 100 100 4 83 100 100 100 100 100 100 8 13 3 2 34 5 5 4 4 5 3 0 0 0 0 0 0 0 0 0 0
5 45 74 100 30 67 98 98 100 100 85 100 100 100 100 5 91 100 100 100 100 100 100 100 100 100 61 23 76 100 27 45 16 99 5 4 2 0 0 0 0 0 0 0 0 0 0
7 73 97 53 8 63 37 100 100 100 44 100 100 98 83 98 45 54 76 100 100 100 100 100 100 100 64 13 10 5 71 42 5 9 5 4 2 0 0 0 0 0 0 0 0 0 0
13 52 99 92 100 85 100 100 72 96 24 98 100 100 100 32 4 16 100 100 100 100 100 100 100 100 72 7 30 5 5 5 6 5 5 5 0 2 0 0 0 4 0 0 0 1 5
100 100 100 100 100 100 100 100 22 57 10 99 100 100 100 100 89 5 55 20 100 97 100 100 100 96 100 87 69 26 64 7 14 3 5 8 6 3 7 28 5 5 1 0 0 0 2
100 100 100 100 100 100 100 100 74 5 21 82 100 100 100 100 99 48 88 12 87 94 98 96 75 100 93 64 52 70 32 5 6 5 6 6 40 21 67 79 12 5 8 3 2 5 5
100 98 96 100 100 98 93 44 25 15 17 65 100 100 100 100 94 64 5 5 65 97 73 44 93 100 100 100 100 99 62 87 7 57 15 6 8 5 5 5 5 5 5 5 19 18 5

GFSGBSN_prec_cloud_036.txt.gz
Cloud_Cover
100 100 100 100 100 100 100 100 100 100 100 100 100 100 100 100 100 100 100 99 45 94 5 0 18 3 2 2 0 0 0 0 0 0 0 0 80 0 95 100 100 100 99 100 100 95 73
100 100 100 100 100 100 100 100 100 100 100 100 100 100 100 100 100 100 100 100 5 5 19 1 15 0 0 0 0 0 0 0 0 0 0 0 6 6 0 56 100 100 97 100 100 100 100
100 100 100 100 100 100 100 100 100 100 100 100 100 100 100 100 100 100 100 76 5 31 22 5 5 0 2 0 0 0 0 0 0 0 0 67 81 100 4 88 100 100 92 100 100 100 100
100 100 100 100 100 100 100 100 100 100 100 100 100 100 100 100 100 100 100 100 7 92 13 5 5 4 5 2 0 0 0 0 0 0 39 4 18 47 95 94 100 100 100 100 100 100 100
100 100 100 100 100 100 100 100 100 100 100 100 100 100 100 100 100 100 100 100 94 100 6 5 5 5 5 0 0 0 0 0 0 0 2 2 4 0 62 100 83 6 96 94 96 100 100
100 100 100 100 100 100 100 100 100 100 100 100 100 100 100 100 100 100 100 99 100 100 5 28 5 5 0 5 0 0 0 0 0 0 1 2 0 4 100 100 97 100 40 97 100 100 98
100 100 100 100 100 100 100 100 100 100 100 100 100 100 100 100 100 100 74 100 100 83 18 6 5 5 0 5 0 0 0 0 0 0 5 4 2 91 100 100 77 43 100 100 100 100 90
100 100 98 100 100 100 100 100 100 100 100 100 100 100 100 100 100 100 100 65 71 90 92 29 5 2 0 1 0 0 0 0 0 2 6 3 21 63 100 88 41 99 100 100 100 100 100
100 100 100 100 91 100 100 100 100 100 100 100 100 100 100 100 100 100 100 100 99 35 54 5 5 0 0 0 0 0 4 0 0 2 5 6 14 80 95 100 100 100 69 100 100 100 100
100 100 100 100 100 100 100 100 100 100 100 100 100 100 100 100 100 100 96 36 86 5 44 6 5 0 0 0 0 0 0 0 0 3 5 6 69 27 88 100 100 100 100 89 100 100 100
100 100 100 100 100 100 100 100 100 100 100 100 100 100 100 100 100 100 13 38 5 82 42 35 13 2 0 0 0 0 0 0 0 3 5 8 8 41 85 40 100 100 98 12 100 100 85
100 100 100 100 100 100 100 100 100 100 100 100 100 100 100 100 100 14 60 100 14 38 41 48 81 0 0 0 1 0 0 1 1 5 5 24 21 96 99 100 40 100 87 76 100 100 58
100 100 100 100 100 100 86 100 100 100 100 100 100 100 100 100 100 56 100 85 20 94 98 27 11 5 5 0 2 0 0 0 5 0 12 5 70 81 56 95 36 76 100 97 75 96 38
26 100 100 100 100 100 100 82 99 100 81 100 100 100 100 100 100 31 100 96 97 52 86 24 35 5 5 0 0 0 0 0 5 2 33 19 88 89 100 99 45 20 73 79 94 60 6
0 100 99 100 100 100 100 100 75 100 100 100 100 100 100 100 100 100 100 100 38 100 100 5 0 22 5 2 1 0 5 2 0 0 0 87 11 73 100 100 100 100 100 47 59 24 5
0 5 100 100 100 100 83 100 100 100 100 39 94 100 100 100 100 98 100 34 25 100 81 2 4 5 3 2 3 0 0 2 0 0 0 6 72 32 99 100 100 100 71 99 100 73 93
1 5 100 100 100 100 100 47 100 100 100 72 100 100 100 100 100 99 100 100 100 100 26 5 5 4 5 4 5 0 0 0 5 0 0 6 50 15 100 14 91 81 100 55 49 100 57
5 34 100 97 100 100 100 100 100 100 100 100 100 94 14 100 100 84 100 100 100 100 18 5 5 5 5 5 2 5 8 5 0 0 0 15 5 5 97 94 71 92 29 50 95 92 100
5 5 72 96 100 100 100 100 100 100 100 90 100 97 67 20 100 82 100 94 100 100 91 54 87 74 72 5 13 19 4 1 3 0 0 4 98 96 100 80 19 18 6 66 48 5 90
71 5 9 72 100 100 100 73 100 100 100 84 100 100 100 100 9 14 17 98 100 100 85 100 98 100 15 39 100 5 5 2 3 23 50 17 29 99 18 5 10 24 100 94 12 25 13
100 82 6 16 74 100 100 59 100 100 100 89 100 99 20 100 100 100 98 100 100 30 85 100 100 98 100 100 66 5 6 9 0 5 84 59 12 99 100 80 87 100 100 83 6 10 28
100 78 7 9 81 80 100 97 100 100 100 100 100 92 69 100 97 68 93 96 100 100 100 100 100 100 100 100 5 100 41 5 0 4 5 5 0 0 21 93 85 28 1 0 5 5 5
100 100 85 67 97 97 95 86 100 100 100 100 100 100 93 99 26 81 5 50 100 100 100 100 100 100 92 100 48 100 21 5 0 0 1 0 0 0 4 2 4 0 0 0 0 5 19
100 100 99 18 17 26 5 100 100 100 100 100 100 41 100 8 82 26 5 6 100 100 100 100 100 91 99 96 87 86 5 7 0 0 2 4 5 5 5 1 1 0 0 0 0 0 0
100 85 100 7 5 4 90 100 100 99 100 100 100 100 100 31 91 78 56 5 6 98 59 100 100 100 100 100 11 74 62 5 5 5 5 34 37 5 8 3 0 0 0 0 0 0 0
100 100 20 5 5 5 5 79 94 100 100 100 100 100 78 96 36 5 41 5 6 6 98 99 100 100 100 100 100 100 100 58 66 5 5 5 95 5 21 5 4 0 1 0 0 4 5
100 100 100 15 6 100 99 97 28 29 99 100 100 100 100 100 1 0 0 15 16 8 100 90 100 100 100 100 100 100 92 5 5 4 5 19 25 5 64 5 5 0 3 0 5 48 5
100 98 36 13 5 76 100 25 73 8 99 99 100 100 100 100 62 66 1 5 4 4 6 86 69 85 100 100 100 100 68 5 1 5 5 61 67 5 39 62 5 0 4 5 26 75 5
100 100 99 97 99 71 98 5 100 92 100 98 100 100 100 95 65 18 4 1 0 8 100 100 100 100 100 90 100 100 72 30 5 5 5 89 11 36 5 58 35 5 5 5 5 5 5

GFSGBSN_prec_cloud_039.txt.gz
Cloud_Cover
100 100 100 100 100 100 100 100 100 100 100 100 100 100 100 100 100 100 100 100 100 100 100 100 20 4 3 0 0 0 0 0 0 0 0 0 0 0 10 4 5 100 99 88 100 100 100
100 100 100 100 100 100 100 100 100 100 100 100 100 100 100 100 100 100 100 100 100 100 100 100 14 4 2 1 0 0 0 0 0 0 0 0 2 33 1 0 13 100 93 100 100 100 100
100 100 100 100 100 100 100 100 100 100 100 100 100 100 100 100 100 100 100 100 100 100 100 98 5 2 5 3 0 0 0 0 0 0 0 0 5 5 36 1 26 100 91 99 100 100 100
100 100 100 100 100 100 100 100 100 100 100 100 100 100 100 100 100 100 100 100 100 100 100 40 5 10 39 5 0 0 0 0 0 0 0 3 0 0 5 17 29 100 100 100 100 100 100
100 100 100 100 100 100 100 100 100 100 100 100 100 100 100 100 100 100 100 100 100 100 100 6 10 40 5 2 0 0 0 0 0 0 0 0 0 0 0 59 100 100 94 100 100 100 100
100 100 100 100 100 100 96 100 100 100 100 100 100 100 100 100 100 100 100 100 100 100 100 60 48 58 5 1 0 0 0 0 0 0 0 0 0 4 4 20 100 100 79 72 100 100 100
100 100 100 100 100 100 100 100 100 100 100 100 100 100 100 100 100 100 100 100 100 100 100 52 50 11 5 0 0 0 0 0 0 0 0 0 0 5 6 69 100 58 98 100 100 100 100
100 100 100 100 100 100 100 100 100 100 100 100 100 100 100 100 100 100 100 100 100 100 95 31 97 10 5 0 0 0 0 0 0 0 5 2 1 5 41 100 100 66 98 100 100 100 100
100 100 100 100 100 100 100 100 100 100 100 100 100 100 100 100 100 100 100 100 100 100 82 32 51 5 5 0 0 0 0 0 0 0 3 2 2 16 72 71 47 100 86 96 95 100 100
100 100 100 100 100 100 100 100 100 100 100 100 100 100 100 100 100 100 100 100 100 100 24 43 71 7 5 0 0 0 0 0 0 0 5 5 0 5 100 8 30 92 83 93 97 82 100
5 54 99 100 100 100 100 100 100 100 100 100 100 100 100 100 100 100 100 100 100 100 42 58 14 51 0 0 0 0 0 0 0 0 4 56 7 5 5 15 53 99 98 17 37 100 100
2 5 43 100 100 100 100 100 100 100 100 100 100 100 100 100 100 100 100 100 100 100 100 100 74 28 0 0 2 0 0 0 0 0 5 5 5 2 5 14 68 81 99 59 74 100 95
5 2 0 85 100 100 100 100 100 100 100 100 100 100 100 100 100 100 100 100 100 100 100 94 99 17 1 0 0 0 0 0 0 0 0 5 6 5 5 32 16 79 100 97 100 100 11
100 74 2 4 100 100 100 100 100 100 100 100 100 100 100 100 100 100 100 100 100 100 100 100 71 5 0 0 1 0 0 0 2 0 0 5 5 3 5 15 15 5 72 99 100 22 13
100 100 24 0 38 100 100 100 100 100 100 100 100 100 100 100 100 93 100 100 100 100 100 100 16 5 2 5 0 0 0 0 0 0 0 0 8 5 5 5 97 37 7 77 5 6 36
100 100 92 3 0 99 100 100 100 100 100 100 100 100 100 100 100 99 96 100 100 100 100 89 75 5 5 4 0 0 1 0 0 0 0 0 28 9 73 5 39 69 30 82 15 22 8
100 100 98 13 0 17 100 100 100 100 100 100 82 96 100 100 100 100 72 100 100 100 94 100 100 19 5 4 5 5 4 0 3 0 1 0 5 95 5 31 43 29 5 5 16 52 17
100 100 100 80 5 1 66 100 100 100 100 100 99 92 98 100 100 100 73 100 100 100 53 53 95 100 68 5 5 5 5 5 5 0 3 0 0 2 5 6 68 82 5 7 34 36 5
100 100 100 85 5 4 33 100 100 100 100 96 100 98 100 83 99 98 100 98 100 100 99 100 97 10 9 13 53 5 5 5 5 0 0 0 0 0 5 17 5 45 12 6 4 73 54
100 100 100 100 11 5 100 100 100 91 100 100 100 100 100 98 9 11 93 68 100 100 88 91 100 79 6 5 6 78 99 5 5 5 3 1 0 0 42 6 47 12 7 5 4 6 13
100 100 100 100 95 91 100 100 100 100 100 100 100 68 86 100 96 47 56 100 100 100 69 5 5 90 79 27 85 100 100 5 6 3 0 2 2 4 77 52 38 96 9 3 13 28 5
100 100 100 100 100 84 100 100 100 100 100 100 100 83 30 96 98 98 98 100 100 100 96 100 85 100 100 100 100 100 60 5 6 2 0 0 3 5 56 6 44 100 20 6 17 38 5
100 100 100 100 100 98 100 96 100 68 100 100 95 95 59 6 91 100 14 100 100 100 100 100 100 100 99 100 94 92 84 14 83 53 4 5 4 4 1 0 0 20 94 77 18 0 0
100 100 100 100 100 100 62 100 100 48 79 100 71 19 100 12 72 33 28 100 100 100 100 100 100 100 100 100 100 100 100 83 21 75 77 5 5 5 0 0 3 3 0 4 0 0 0
100 100 100 100 100 100 100 100 98 0 95 100 100 61 100 97 5 33 44 100 100 100 100 100 100 100 100 100 95 100 26 32 97 52 5 2 3 0 0 5 4 5 2 4 0 0 0
100 100 100 100 100 100 100 30 99 0 99 100 100 100 100 90 92 4 6 100 100 100 100 100 100 100 94 100 100 94 100 100 100 52 5 2 0 5 11 5 4 5 2 0 0 5 5
100 100 100 100 100 86 97 87 58 0 86 100 100 100 100 100 40 34 5 98 100 100 100 100 100 100 100 100 100 100 100 100 100 100 14 8 26 1 25 5 5 5 1 4 3 4 0
100 100 100 100 100 96 85 76 8 4 100 100 100 100 100 100 97 58 34 12 100 100 100 100 100 81 100 89 96 79 100 100 100 88 11 5 13 1 0 4 5 1 4 1 0 0 0
100 100 100 100 100 83 61 5 40 100 100 100 100 100 100 100 11 60 12 5 11 34 96 94 100 92 93 100 100 100 100 100 100 100 51 7 2 5 1 5 8 5 5 5 5 5 4

GFSGBSN_prec_cloud_042.txt.gz
Cloud_Cover
100 100 100 99 100 100 100 100 100 100 100 100 100 100 100 100 100 99 100 100 100 100 100 100 100 100 100 96 100 18 5 1 0 0 0 0 0 0 0 0 6 100 99 100 100 100 100
100 100 100 94 100 100 77 100 100 100 100 100 100 100 100 100 100 100 100 100 100 100 100 100 100 100 100 47 96 6 5 2 0 0 0 0 0 0 0 0 21 99 92 100 100 100 100
100 100 100 100 100 100 51 20 100 40 94 100 100 100 100 100 100 100 100 100 100 100 100 100 100 100 100 55 34 5 5 5 0 0 0 0 0 0 0 1 77 94 92 100 100 100 100
100 100 100 100 100 100 100 83 94 68 20 85 100 100 100 100 100 100 100 100 100 100 100 100 100 100 100 18 7 8 5 2 0 0 0 0 0 0 0 0 18 100 98 81 100 100 100
100 100 100 100 100 100 90 100 100 70 100 94 100 100 100 100 100 100 100 100 100 100 100 100 100 100 100 5 33 21 5 0 0 0 0 0 0 0 0 5 65 100 48 83 92 100 100
100 100 100 100 100 100 100 100 100 94 42 87 100 100 100 100 100 100 100 100 100 100 100 100 100 93 37 53 57 32 11 0 0 0 0 0 0 0 0 6 100 100 77 88 93 100 99
65 100 100 100 100 100 100 100 100 100 87 99 100 96 100 100 100 100 100 95 100 100 100 100 100 99 77 50 54 100 9 0 0 0 0 0 0 0 0 11 50 97 100 100 100 100 100
100 100 100 100 100 100 100 100 100 100 100 95 100 100 100 100 100 100 100 100 100 100 100 100 100 93 81 65 78 85 5 0 0 0 0 0 0 0 0 0 4 9 100 100 100 100 50
100 100 100 100 100 100 100 100 100 100 100 100 100 100 100 98 100 100 98 100 100 100 100 100 100 80 81 18 45 14 5 0 0 0 0 0 0 0 0 2 5 5 13 53 100 100 95
62 87 100 86 100 100 100 100 100 100 100 100 99 100 100 100 99 100 100 100 100 100 100 100 47 58 100 12 34 6 5 1 0 0 0 1 2 0 0 2 6 68 42 40 100 100 99
100 5 5 0 2 100 100 100 100 100 98 99 100 100 100 100 100 100 100 100 100 100 100 100 90 100 100 100 75 57 5 0 0 0 0 3 56 6 0 1 1 42 63 77 100 64 83
100 100 20 5 1 7 100 100 100 100 100 100 100 94 72 100 100 100 100 100 100 100 100 100 100 100 100 80 98 12 10 0 0 0 0 0 5 5 18 4 2 6 94 51 53 100 100
100 100 99 21 5 3 17 100 100 100 100 100 100 100 83 100 100 23 100 100 100 100 100 100 100 100 100 100 95 16 69 4 0 0 0 0 5 5 4 0 3 5 13 35 42 97 100
100 100 100 100 88 5 4 50 100 100 100 100 100 100 97 100 100 20 100 100 100 100 100 100 100 100 100 91 98 65 6 5 0 0 0 0 0 5 5 0 5 5 31 36 55 10 33
100 100 100 100 100 98 2 1 100 100 100 100 100 85 100 100 100 36 100 100 100 100 100 100 100 100 100 100 100 45 13 5 0 0 0 0 0 5 5 5 5 2 15 72 70 37 25
100 100 100 100 100 100 61 0 68 100 100 100 100 96 97 100 100 100 100 57 99 100 100 100 100 100 100 95 98 75 40 5 5 1 0 0 2 5 75 5 5 3 3 27 22 68 100
100 100 100 100 100 100 80 0 52 100 100 100 100 100 21 100 100 100 100 68 100 100 100 100 100 100 100 100 100 79 27 6 5 1 5 0 0 5 37 11 19 81 12 17 23 25 72
100 100 100 100 100 100 100 4 5 100 100 100 100 94 45 100 100 100 100 62 100 100 100 100 100 100 100 100 83 74 50 23 5 5 5 5 0 1 2 4 6 6 12 98 82 56 48
94 100 100 100 100 100 100 14 6 100 100 96 100 94 100 5 99 100 100 98 100 100 99 100 100 100 100 94 80 100 100 5 5 5 5 0 0 0 0 5 11 6 72 53 21 61 37
59 100 100 100 100 100 100 22 27 100 100 34 100 100 100 62 0 14 100 100 100 100 100 100 100 100 100 100 100 100 100 5 5 5 3 5 0 0 0 0 10 2 2 2 4 78 67
28 84 100 100 100 100 100 100 99 100 100 98 100 94 91 100 91 7 58 100 100 100 100 100 100 100 100 100 100 100 100 58 89 5 49 87 16 0 0 0 4 5 10 3 59 8 4
83 38 100 100 100 100 100 100 100 96 100 100 100 95 68 11 9 98 40 100 100 100 100 100 100 100 100 100 100 100 96 100 36 5 71 87 5 4 0 0 0 5 4 35 27 5 5
100 12 100 100 100 100 100 100 100 94 100 100 99 37 5 85 81 98 23 100 100 100 100 100 100 100 100 100 100 100 21 41 38 5 5 0 5 9 5 5 5 2 0 34 98 100 59
100 100 100 100 100 100 100 100 100 89 93 7 100 73 84 92 53 8 5 100 100 100 100 100 100 100 100 100 100 100 78 99 7 8 7 82 27 5 5 25 5 0 0 0 0 0 5
94 100 100 100 100 100 100 100 100 100 100 47 55 100 64 99 5 82 88 100 100 100 100 100 100 100 100 100 100 96 95 70 87 75 14 53 100 6 87 5 5 5 0 0 0 0 5
12 100 100 100 100 100 100 100 100 100 54 42 100 87 100 49 5 5 57 100 100 100 100 100 100 100 100 100 98 74 93 100 100 100 100 95 5 49 20 4 4 8 0 0 0 3 0
100 100 100 100 100 100 100 100 100 100 62 17 87 100 100 100 100 13 5 100 100 100 100 100 100 100 100 100 100 100 100 100 94 100 100 84 8 6 21 0 5 7 0 1 26 10 0
100 100 100 100 100 100 100 100 100 100 52 55 100 100 100 100 100 99 65 100 100 100 100 100 100 100 100 100 100 100 100 100 100 100 100 100 35 5 1 5 15 6 0 0 5 5 3
100 100 100 100 100 100 100 100 100 84 17 14 86 100 100 100 100 100 88 98 100 100 100 100 100 100 100 100 100 100 100 100 100 100 100 100 97 12 4 6 78 7 0 0 5 5 5

GFSGBSN_prec_cloud_045.txt.gz
Cloud_Cover
100 100 100 67 100 100 100 100 100 100 100 100 100 100 100 100 100 100 100 100 100 100 100 100 100 97 92 100 100 100 25 10 11 5 2 0 0 0 0 0 9 72 1 100 100 100 98
100 100 100 100 100 100 100 100 100 100 55 99 100 100 100 100 100 100 100 100 100 100 100 100 99 100 80 100 100 100 24 8 5 5 3 0 0 0 0 0 1 1 86 74 100 100 100
100 100 100 100 100 100 100 100 100 97 25 28 21 100 100 100 100 100 100 100 100 100 100 100 97 93 100 100 100 100 24 9 38 13 3 0 0 0 0 0 0 1 28 10 95 100 100
100 100 100 100 100 100 100 100 100 100 44 9 82 48 99 100 100 100 100 100 100 100 100 100 100 100 100 100 100 100 9 23 57 50 3 0 0 0 0 0 4 1 62 42 92 84 100
100 98 100 100 100 100 100 100 84 100 100 100 100 71 20 54 78 100 100 100 100 100 100 100 100 100 99 100 100 84 12 41 72 10 3 0 0 0 0 0 0 5 42 52 91 100 100
100 100 100 100 100 100 100 100 100 100 100 100 100 99 65 6 61 88 96 91 100 100 100 100 100 58 79 97 100 71 9 40 44 5 0 0 0 0 0 0 4 5 12 100 40 81 98
100 100 100 100 100 100 100 100 100 100 100 100 100 100 48 25 72 100 100 58 39 93 100 100 100 76 100 68 98 58 31 8 7 5 0 0 0 0 0 0 1 0 5 62 70 54 97
99 100 20 89 97 100 100 100 100 100 100 100 100 54 56 100 100 100 100 79 38 5 72 89 98 100 100 71 100 71 19 5 5 5 1 0 0 0 0 0 0 5 5 51 100 100 100
4 5 47 11 8 34 89 100 100 100 100 100 100 100 100 100 89 98 99 92 90 11 82 98 100 100 52 100 94 46 20 5 6 5 5 0 0 0 0 0 0 3 88 64 46 97 100
100 100 100 100 100 67 100 100 100 100 100 100 100 100 100 100 94 79 44 68 78 27 5 99 81 100 100 72 95 49 65 13 41 5 5 3 0 0 0 0 0 4 11 100 69 53 95
100 100 100 100 100 100 100 100 100 100 100 100 100 100 100 100 99 100 100 100 52 95 17 27 98 100 100 100 100 100 100 13 42 44 14 3 0 4 0 0 0 0 4 5 14 50 100
100 100 100 100 100 99 8 66 84 100 100 100 100 100 45 98 100 78 36 96 5 70 26 81 100 99 100 100 100 100 100 60 28 92 26 3 0 1 1 0 0 0 0 9 71 95 99
100 100 100 100 100 100 99 7 3 12 100 100 100 100 80 81 98 21 53 83 65 96 76 100 100 100 43 51 59 100 100 98 32 69 81 5 2 0 5 0 1 5 5 32 66 98 84
49 100 100 100 100 100 100 98 5 0 11 100 100 100 90 68 99 26 34 100 100 4 40 100 100 100 100 94 100 100 100 100 5 6 95 5 5 0 5 5 1 5 5 5 6 76 83
85 99 94 82 100 100 100 100 82 4 4 61 100 100 100 38 100 100 19 99 33 5 5 100 100 100 100 97 100 100 100 100 84 13 71 5 5 0 5 5 5 5 5 6 5 74 100
83 38 48 90 99 100 100 100 99 5 3 100 100 100 100 72 100 99 100 43 5 12 80 99 100 100 100 100 100 100 100 100 100 50 8 5 5 0 5 63 65 39 36 5 5 37 100
100 47 70 52 87 100 100 100 100 14 2 43 99 100 100 55 100 100 76 4 5 5 100 82 65 100 100 100 100 100 100 100 100 49 24 5 3 2 13 67 100 100 70 35 16 6 95
91 64 76 100 100 100 100 100 100 85 5 100 100 100 99 5 100 100 60 5 5 5 91 100 90 100 100 100 100 100 100 100 100 100 40 5 3 0 1 28 99 98 8 65 34 90 17
100 100 76 39 81 100 100 100 100 100 27 97 100 51 51 3 100 93 3 5 5 5 98 100 100 100 100 100 100 100 100 100 100 100 25 5 5 2 0 3 7 78 37 5 16 97 94
95 84 91 11 5 100 100 100 100 100 100 96 100 100 94 72 33 8 52 51 53 5 84 100 100 92 100 100 100 100 100 100 100 100 94 5 5 1 2 0 4 5 27 13 4 0 95
100 100 100 100 76 30 100 100 100 100 100 100 100 100 10 100 100 11 5 2 12 10 16 100 100 96 98 100 100 100 100 100 100 100 100 5 31 2 0 1 1 5 7 3 0 1 0
100 100 100 100 100 20 100 100 100 100 100 100 100 24 18 5 17 99 100 77 5 5 66 76 100 100 100 100 100 100 100 100 100 100 90 100 77 5 4 0 0 1 0 0 0 0 2
100 100 100 100 100 59 100 100 100 100 100 100 92 5 5 24 68 100 59 95 39 45 77 100 100 100 100 100 100 100 100 100 97 41 45 6 14 4 2 5 4 2 0 0 0 1 1
100 100 90 100 100 97 100 100 100 100 91 100 90 26 5 93 70 52 50 100 68 54 100 100 100 100 100 100 100 100 100 97 99 98 47 75 56 6 5 3 6 0 0 0 0 0 0
100 100 100 100 100 100 100 100 100 100 100 100 100 21 5 100 20 8 83 32 95 82 100 100 100 100 100 100 100 100 100 70 99 100 100 52 77 36 50 5 5 5 0 0 2 5 0
100 100 100 100 100 100 100 100 100 100 100 100 100 35 16 45 62 6 17 9 46 61 95 100 100 100 100 100 100 100 100 100 100 100 70 99 100 11 5 5 7 6 0 0 0 5 0
100 100 99 96 100 100 100 100 100 100 100 100 99 43 12 100 11 5 5 5 73 88 100 100 100 100 100 100 100 100 100 100 99 92 100 100 86 39 5 20 43 98 1 0 0 1 0
100 94 100 100 100 100 100 100 100 100 100 100 98 21 10 100 97 94 48 9 50 84 100 100 100 100 100 100 100 98 100 85 98 90 100 100 100 100 66 48 84 23 5 1 0 0 5
100 100 100 100 100 100 100 100 100 100 100 100 100 95 64 100 100 100 74 31 34 98 100 100 100 100 100 100 100 100 100 100 100 100 100 100 100 100 63 5 5 66 5 3 0 5 5

GFSGBSN_prec_cloud_048.txt.gz
Cloud_Cover
100 100 100 100 100 100 100 100 100 100 84 100 100 100 100 100 99 100 100 76 6 100 100 100 100 100 53 100 55 99 98 60 35 5 5 5 5 0 0 0 0 0 0 6 87 70 83
100 100 100 100 100 100 100 100 100 100 72 100 100 100 100 100 76 100 100 100 10 100 100 100 100 100 48 73 10 100 100 21 88 7 5 5 3 3 0 0 0 0 0 14 60 100 100
93 100 100 100 100 100 100 100 100 100 99 100 100 100 100 100 58 100 100 84 5 98 100 100 100 100 50 51 13 97 100 95 100 38 24 5 0 0 0 0 0 0 4 39 95 100 74
100 100 100 100 100 100 100 100 100 100 100 100 100 100 100 100 99 99 100 100 86 61 100 100 100 99 43 23 5 5 100 94 78 80 27 5 0 0 0 0 0 0 2 100 94 76 62
100 99 84 100 100 100 100 100 100 100 100 100 100 100 100 100 100 100 100 100 23 77 97 100 100 100 48 20 7 78 99 54 5 54 5 5 0 0 0 0 0 0 98 18 89 95 64
100 100 99 100 100 100 100 100 100 100 100 100 100 100 100 100 100 100 100 71 73 20 85 68 22 58 72 98 31 5 99 21 9 32 5 5 0 0 0 0 3 5 0 4 62 78 91
85 100 100 100 100 82 100 100 100 100 100 100 100 100 100 100 100 100 100 100 36 52 5 56 31 13 29 18 73 94 24 45 24 32 5 16 5 1 0 0 0 0 3 74 41 15 72
99 99 80 89 18 38 36 93 100 100 100 100 100 100 100 100 100 100 100 100 97 10 36 76 14 25 5 6 30 42 5 35 5 67 28 59 5 3 0 0 0 0 9 81 5 28 76
31 11 6 5 13 37 67 58 100 100 100 100 100 100 100 100 100 100 100 100 100 84 38 80 5 60 9 20 100 45 63 100 18 95 100 73 12 3 0 3 0 0 58 61 51 25 100
8 21 81 48 5 5 5 6 43 24 100 100 100 100 100 77 83 99 100 100 99 74 78 52 56 59 27 34 85 100 68 55 100 89 100 82 9 5 0 4 3 5 1 0 5 42 100
5 61 100 100 93 100 7 5 5 5 4 95 100 100 100 100 100 99 78 100 100 100 97 100 100 100 100 42 96 70 26 63 99 92 100 100 34 5 2 5 5 5 3 4 5 22 30
14 5 5 15 56 74 99 100 100 100 98 67 100 100 100 86 100 90 93 100 100 100 100 100 100 100 100 32 98 100 50 100 100 100 96 81 42 30 5 2 4 5 3 5 34 75 100
6 5 5 5 20 66 97 100 100 82 33 100 100 100 100 100 96 100 100 100 100 100 100 100 100 100 100 100 98 100 68 98 85 39 99 93 45 26 5 5 4 5 35 94 100 100 88
100 100 100 36 5 18 100 98 100 100 93 4 49 100 88 100 100 100 100 100 84 54 14 17 100 100 100 100 86 100 100 17 94 100 34 93 64 10 5 5 5 5 47 100 100 96 100
100 99 100 100 60 44 89 100 100 100 100 72 8 86 75 77 100 100 100 79 5 10 11 78 100 100 93 74 100 100 100 100 100 14 98 52 57 6 5 5 5 27 5 53 71 6 15
73 17 91 100 100 98 33 96 94 100 100 100 8 58 99 6 35 100 100 10 41 40 5 28 60 76 55 70 100 100 100 100 100 94 8 94 100 8 6 5 6 5 29 38 57 88 100
100 100 100 100 100 99 90 85 100 100 100 100 82 100 44 26 19 100 100 6 0 3 0 3 5 5 5 100 100 100 100 100 99 63 9 100 87 8 5 6 35 38 25 9 78 31 100
100 8 62 100 100 100 70 96 100 100 100 91 95 100 95 90 97 100 93 5 2 5 3 1 5 5 5 100 100 100 100 100 100 100 100 80 41 100 22 14 14 94 97 37 100 99 5
17 40 97 100 94 100 100 100 100 100 100 100 69 100 94 97 92 88 0 94 88 11 5 5 9 10 16 100 100 100 100 100 100 100 62 89 100 95 88 5 5 7 12 5 5 5 0
38 24 75 72 95 100 100 100 100 100 100 100 100 100 100 100 3 2 2 20 52 99 6 5 69 100 98 100 100 100 100 100 100 100 100 93 93 100 42 5 14 14 6 9 87 73 4
57 83 86 100 42 78 100 100 100 100 100 100 100 100 98 100 81 1 2 2 10 86 5 6 84 31 89 100 100 100 100 100 100 100 100 17 80 100 5 5 5 5 5 18 55 5 4
99 28 60 100 100 100 100 100 100 100 100 100 100 94 78 7 5 5 16 5 5 5 5 5 76 100 100 100 100 100 100 100 100 100 100 38 100 100 100 9 5 5 0 22 91 9 0
38 100 100 100 100 100 100 100 100 100 100 100 100 81 99 68 27 60 100 5 0 33 10 4 99 100 100 100 100 100 100 100 100 100 100 100 100 100 100 5 5 50 1 5 58 60 3
5 34 100 100 100 100 100 100 100 100 100 100 100 76 92 83 98 24 8 90 89 5 5 85 64 94 100 100 100 100 100 100 100 100 100 100 100 100 76 7 51 83 5 3 5 8 5
64 9 25 100 100 100 100 100 100 100 100 100 100 82 100 100 88 78 74 85 99 91 36 5 23 100 100 100 98 100 100 100 100 100 100 100 100 100 16 39 97 100 29 3 5 16 5
35 94 100 100 100 100 100 100 100 100 100 100 100 100 100 100 94 98 70 76 100 100 94 13 100 100 100 100 86 100 100 100 100 100 100 100 100 63 75 100 100 100 5 0 4 45 5
70 100 95 100 100 100 100 99 100 100 100 100 100 100 100 100 100 93 100 29 26 100 19 72 100 100 100 100 61 85 100 100 100 100 100 100 100 100 100 72 100 100 27 5 5 5 3
73 100 100 100 100 100 79 100 100 100 100 100 100 100 100 100 96 30 100 90 12 99 55 34 100 100 100 100 78 10 100 100 100 100 100 100 100 100 99 32 99 100 5 5 9 5 2
88 97 100 100 100 100 100 100 100 100 100 100 100 100 100 100 98 96 53 33 100 79 22 74 3 98 100 94 76 28 100 100 100 100 100 100 100 100 98 82 100 100 98 85 5 5 16

GFSGBSN_prec_cloud_051.txt.gz
Cloud_Cover
100 100 100 100 100 96 100 100 67 100 100 16 0 0 16 100 100 100 100 100 100 100 100 97 5 75 52 98 78 45 100 5 100 100 15 5 5 5 0 0 0 4 5 5 5 66 28
100 100 100 100 100 100 100 100 100 100 100 100 88 3 0 90 100 100 100 100 100 32 71 5 5 53 38 46 5 64 5 4 22 99 100 5 5 5 0 0 0 31 0 4 5 26 5
100 100 100 100 100 100 100 100 100 100 100 100 100 100 5 100 100 100 100 100 100 95 23 20 10 83 91 99 96 5 5 5 41 100 84 5 6 5 5 0 0 0 1 80 5 97 76
100 100 100 100 100 100 100 100 100 100 100 100 100 100 100 93 100 100 100 100 100 100 100 94 24 8 78 25 88 62 4 5 53 100 93 5 13 6 5 0 0 0 5 98 100 100 51
100 100 100 100 100 100 100 100 100 100 100 100 100 100 100 100 100 100 100 100 100 100 100 100 94 5 37 48 5 45 5 6 8 58 74 8 10 26 14 2 14 17 30 100 77 74 19
100 100 100 100 100 100 100 100 100 100 100 100 100 100 100 100 95 100 100 100 100 99 91 100 100 33 35 5 5 12 51 8 10 7 52 43 5 56 50 5 32 100 82 87 29 70 80
100 100 100 100 100 100 100 100 100 79 98 100 100 100 100 100 47 93 100 100 100 100 100 100 100 100 5 28 21 5 12 88 88 5 5 5 22 91 90 87 3 2 81 100 52 99 52
100 100 100 100 100 99 100 100 100 87 33 96 100 100 100 100 91 39 98 100 100 100 100 100 100 100 81 93 7 5 5 6 66 5 21 53 100 98 5 8 2 0 77 94 22 34 12
100 93 98 87 100 100 98 50 99 100 100 95 99 100 100 100 100 100 77 100 94 92 100 100 100 100 80 100 17 92 5 78 100 16 100 100 100 100 48 5 4 1 58 72 80 63 6
98 100 98 78 100 100 73 38 27 5 90 100 100 100 100 100 95 100 100 100 100 100 90 100 100 100 65 100 33 12 5 52 25 100 100 100 100 100 100 5 5 54 14 60 99 96 100
6 70 49 59 93 75 61 78 23 81 99 15 12 100 100 100 93 82 100 100 100 100 100 89 100 100 100 82 65 23 100 34 96 99 8 57 100 90 100 17 5 29 89 5 44 95 100
7 37 100 37 12 89 100 98 90 54 3 8 5 70 100 56 11 96 98 100 100 100 78 100 100 100 100 83 96 95 100 5 42 71 100 100 100 23 100 16 5 5 5 4 47 80 100
81 76 39 5 5 5 31 50 63 87 94 80 17 8 100 100 9 83 100 100 99 100 65 99 100 100 100 100 100 100 100 88 16 98 100 88 100 44 42 11 5 5 7 76 100 99 31
100 100 100 93 5 5 5 35 100 100 100 100 32 6 82 38 50 3 100 100 7 53 100 60 100 100 100 100 100 100 100 90 53 83 100 100 100 90 16 46 92 5 72 35 45 51 86
100 100 100 93 5 5 80 25 87 100 100 100 98 5 22 66 100 99 100 100 0 15 97 93 100 98 100 100 100 100 100 100 72 100 100 100 24 9 12 83 100 100 68 78 100 14 32
100 100 100 100 100 46 13 88 92 100 100 100 100 76 34 67 68 88 100 100 30 3 5 8 6 62 100 100 100 100 100 46 99 100 100 100 100 96 88 100 100 54 87 89 56 60 35
100 100 100 100 100 100 86 80 100 100 100 100 100 100 33 29 75 100 100 21 46 100 100 30 99 98 100 100 100 100 74 92 100 100 100 100 84 66 5 100 94 36 62 100 100 89 97
100 100 100 96 94 100 100 100 100 100 100 100 100 100 99 9 100 100 100 0 0 5 66 100 100 100 100 100 100 100 100 100 100 100 100 100 100 82 94 98 96 100 95 98 100 98 84
66 82 100 80 84 100 100 100 100 100 100 100 100 100 83 89 99 100 18 0 0 0 4 73 100 100 100 100 100 100 95 100 100 94 46 100 100 74 100 100 100 100 100 98 96 99 97
100 72 97 68 50 16 64 100 100 100 100 100 100 100 100 100 16 46 5 1 0 2 0 6 89 100 100 100 100 100 100 100 100 89 100 100 100 100 40 73 81 100 100 70 68 94 58
6 5 23 73 96 62 77 87 100 100 100 100 100 97 30 100 84 5 55 1 0 4 3 4 5 100 100 100 100 100 100 76 100 77 99 76 100 100 100 100 100 100 100 71 100 100 92
5 9 5 32 21 36 80 5 23 100 100 100 100 100 87 16 56 71 98 73 3 2 22 2 0 0 98 100 100 100 100 100 100 98 100 100 100 100 100 100 50 100 100 58 94 99 96
70 8 7 81 97 57 65 23 89 100 100 100 100 100 100 95 77 91 47 5 0 1 5 12 0 21 100 100 100 100 100 100 99 56 100 100 100 100 70 100 46 92 100 91 5 5 22
98 44 22 19 35 56 99 82 57 100 100 100 100 100 100 100 100 97 5 70 5 5 5 27 72 48 100 100 100 100 96 100 100 100 100 100 99 100 100 100 18 100 100 55 5 5 11
100 86 14 5 5 16 100 95 100 100 100 100 100 100 100 100 80 98 99 100 90 75 100 100 100 25 100 100 100 100 100 100 100 100 100 100 100 100 96 96 100 100 100 94 5 5 6
5 5 60 28 68 99 100 100 100 100 100 100 100 100 100 100 96 100 100 100 100 100 100 99 100 100 100 100 100 100 100 60 100 100 100 100 100 100 100 99 57 100 100 98 2 20 1
5 5 7 94 100 100 100 100 100 100 100 100 100 100 100 100 100 100 100 100 98 100 46 22 99 94 100 100 100 100 100 100 100 100 100 100 100 93 100 100 86 100 100 100 7 100 99
94 73 99 5 100 100 100 100 100 100 100 100 98 100 100 100 100 100 100 100 90 81 38 97 64 100 100 100 51 84 100 100 100 100 100 100 99 81 100 92 68 100 100 100 85 12 12
97 99 100 98 100 100 100 100 100 100 100 100 100 100 100 100 100 100 100 100 99 96 79 53 10 49 100 100 74 90 93 100 99 100 100 100 100 100 100 100 100 100 100 100 99 10 5

GFSGBSN_prec_cloud_054.txt.gz
Cloud_Cover
100 100 98 100 100 100 100 100 100 100 100 74 100 72 5 0 0 0 9 100 100 100 100 100 100 100 100 80 8 44 5 5 4 2 0 5 78 16 4 7 4 0 2 5 5 3 1
100 100 100 100 100 100 100 100 100 100 100 100 99 100 100 7 5 1 0 39 100 100 100 100 99 83 60 70 5 31 5 58 5 0 0 42 72 12 0 0 0 45 38 2 4 3 10
91 100 100 100 100 100 100 100 100 100 100 100 100 100 100 100 88 7 5 14 55 100 100 100 100 58 9 7 9 5 5 90 11 3 0 100 100 3 0 3 4 0 0 3 96 6 36
100 100 97 100 100 100 100 100 100 100 100 100 100 100 100 100 97 60 5 5 100 100 100 100 100 100 99 82 25 5 5 28 5 5 2 58 52 12 4 0 0 1 0 0 18 56 95
100 100 100 100 100 100 100 100 100 100 100 100 100 100 100 100 100 32 45 8 100 100 100 100 100 100 75 97 86 5 11 5 8 6 5 11 5 12 0 4 2 6 0 36 37 36 54
100 100 100 100 100 100 100 100 100 100 100 100 100 100 100 100 100 78 32 38 84 100 100 100 100 100 92 92 91 45 31 7 5 65 52 42 5 5 3 100 5 100 99 80 42 54 5
100 100 100 100 100 100 100 100 100 100 100 100 100 100 100 100 100 94 93 86 6 100 100 100 100 100 100 68 100 100 100 91 4 5 92 5 5 5 5 98 59 5 42 4 100 5 4
100 100 100 100 100 100 100 100 100 100 100 100 100 100 100 100 100 100 100 100 69 86 95 100 100 100 100 100 100 100 100 100 12 75 10 5 6 90 100 99 100 60 4 1 100 100 3
100 100 100 100 100 100 100 100 100 100 100 100 100 100 100 100 100 100 100 100 100 100 91 88 100 100 100 100 100 100 100 100 95 6 5 62 62 93 100 100 100 100 5 7 66 76 18
100 100 100 100 100 100 100 100 100 98 100 100 100 100 100 100 100 81 97 100 100 100 80 99 90 67 100 100 100 100 100 100 100 96 5 30 77 88 33 100 99 57 5 41 6 52 8
17 18 29 31 100 40 94 100 100 100 36 100 100 100 100 100 100 99 57 51 98 100 100 96 100 100 100 100 100 100 100 100 100 100 67 100 56 81 31 100 100 18 54 5 24 5 21
100 100 100 45 7 6 5 17 96 100 100 100 61 100 100 92 70 100 100 100 99 12 86 4 72 99 100 100 100 100 100 100 100 100 100 100 100 100 72 100 100 56 18 5 7 5 5
100 100 95 57 100 86 90 86 65 100 100 97 87 5 100 51 100 100 100 100 100 42 79 99 18 40 98 100 100 100 100 100 100 100 100 100 100 100 70 97 100 100 36 29 57 10 5
95 97 40 6 18 5 6 5 13 100 100 100 73 94 82 59 20 98 100 100 0 99 82 52 100 6 29 95 100 100 100 100 100 100 100 100 100 97 100 98 60 100 9 100 90 100 50
100 98 26 36 10 21 64 38 62 70 100 100 99 83 48 90 52 100 100 100 6 30 33 99 75 74 44 70 100 100 100 100 100 100 100 100 100 100 100 100 24 99 76 100 100 14 73
100 100 100 99 88 100 100 100 74 95 100 100 95 98 91 86 9 47 100 91 3 14 6 3 3 1 88 25 86 100 100 100 100 100 100 100 100 86 86 86 100 100 98 100 100 94 64
100 94 92 53 92 82 100 100 100 100 100 100 100 100 54 100 57 100 100 24 0 3 17 33 5 37 6 100 82 90 100 100 100 100 100 100 100 100 100 76 100 46 19 95 100 100 100
100 99 79 92 68 94 79 53 99 100 100 100 100 100 100 93 100 100 70 3 0 0 0 2 5 50 100 99 100 97 81 100 100 100 100 100 100 100 100 91 94 99 96 32 100 100 100
93 99 73 98 100 64 100 100 100 100 100 100 100 100 100 100 100 100 70 3 4 3 0 0 0 1 61 99 100 100 94 91 100 100 100 100 100 100 92 100 100 100 100 75 100 95 100
87 100 100 100 100 29 32 97 100 100 100 100 100 100 100 100 28 49 10 2 2 1 5 0 17 1 10 98 100 100 100 100 100 100 100 100 100 100 14 99 100 100 100 83 89 100 100
100 100 100 100 100 100 100 27 100 100 100 100 100 100 44 100 99 5 42 9 5 45 3 0 4 99 0 61 84 100 100 100 100 100 100 100 100 100 88 100 100 100 100 100 100 100 100
100 100 100 100 100 75 8 5 90 100 100 100 100 100 74 83 84 85 66 50 7 54 7 0 0 0 5 22 100 100 100 100 100 100 100 100 100 100 95 100 100 100 100 100 100 100 98
74 20 5 5 5 37 92 97 83 94 100 100 100 90 100 14 98 94 60 5 4 16 93 1 0 3 71 0 100 100 100 100 100 100 100 100 100 100 100 100 100 70 100 100 100 100 100
58 100 100 100 100 100 71 96 100 100 62 100 100 99 100 100 90 29 5 5 10 99 15 19 32 2 0 39 88 100 100 100 100 100 100 100 100 100 100 100 40 78 100 100 100 100 40
100 100 100 100 91 100 86 95 100 100 32 86 100 100 100 100 100 100 100 100 99 95 100 92 51 0 0 100 100 100 100 100 100 100 100 100 100 100 86 97 64 11 100 100 100 100 74
70 20 7 5 13 100 100 100 100 100 100 96 100 100 100 100 100 98 100 100 100 83 84 31 12 96 100 97 97 91 100 100 100 100 74 100 100 100 100 94 43 99 100 100 100 28 100
5 5 5 5 5 38 72 100 100 100 100 100 100 100 100 100 43 100 100 100 98 82 72 97 100 100 56 32 67 90 100 100 100 100 100 100 100 75 100 89 80 100 100 100 100 98 100
5 32 8 5 5 59 100 90 86 88 100 100 100 100 94 100 100 100 100 100 100 100 99 76 100 100 14 26 3 22 100 100 97 99 100 96 100 100 97 88 35 100 100 100 100 100 96
5 75 76 100 100 100 100 82 100 96 100 100 100 100 100 100 100 100 100 100 100 100 100 100 100 100 22 100 82 59 96 100 100 100 100 100 78 100 100 36 17 99 100 100 100 100 100

GFSGBSN_prec_cloud_057.txt.gz
Cloud_Cover
100 100 100 98 100 100 100 100 100 100 100 100 100 100 100 100 81 82 9 4 0 0 8 12 30 100 100 100 100 100 27 18 33 1 0 0 0 4 5 0 0 0 0 0 32 40 4
100 100 100 100 100 100 100 100 100 100 100 100 100 100 100 100 100 98 21 15 5 5 3 3 20 100 100 100 100 90 43 10 5 5 5 0 0 20 84 0 0 0 0 5 4 0 8
100 100 100 100 100 100 100 100 100 100 100 100 100 100 100 100 100 100 99 6 5 76 5 2 28 100 100 100 99 15 5 5 5 5 5 0 0 0 0 0 0 0 0 0 0 0 4
100 100 100 100 100 100 100 100 100 100 100 100 100 100 100 100 100 95 52 92 47 82 49 5 54 100 100 100 100 100 67 80 71 5 5 4 4 2 4 0 25 57 0 0 0 1 5
100 100 100 100 100 100 100 100 87 100 100 100 100 100 100 100 100 100 100 100 100 51 28 5 76 100 100 68 100 100 46 100 87 5 5 2 5 5 2 2 3 100 93 10 2 56 66
100 100 100 100 100 100 100 100 100 100 100 100 100 100 100 100 100 100 100 100 100 100 6 51 82 100 100 100 100 100 100 100 86 70 99 4 5 5 5 5 2 32 100 88 70 76 100
100 100 100 100 100 100 100 100 100 100 100 100 100 100 100 100 100 100 100 100 100 100 98 4 5 100 100 100 100 100 93 100 100 100 100 100 14 86 5 5 2 5 100 57 44 95 100
100 100 100 100 100 100 100 100 100 100 100 100 100 100 100 100 100 100 100 100 97 100 100 21 34 98 100 100 100 100 100 100 100 100 100 85 94 58 5 5 13 98 100 44 55 25 78
100 100 100 100 100 100 100 100 100 100 100 100 100 100 100 100 100 100 100 100 78 100 32 98 86 76 93 100 100 100 100 100 100 100 100 100 98 96 5 5 5 30 100 100 14 59 96
100 100 100 100 100 100 100 100 100 100 100 100 100 100 100 100 100 100 100 100 100 30 36 94 97 15 87 96 90 100 100 100 100 100 100 100 100 100 71 5 5 81 100 100 44 5 3
100 100 100 100 100 100 100 100 100 100 100 100 100 100 100 100 100 100 100 100 100 100 50 100 100 84 100 45 75 100 74 91 100 100 100 100 100 100 100 70 5 100 22 69 64 5 5
21 99 100 100 100 100 100 100 100 100 100 100 100 100 100 100 100 100 100 100 100 100 100 100 100 100 100 100 100 100 100 100 100 100 100 100 100 100 100 98 100 98 93 9 48 13 100
18 9 48 94 100 100 100 100 100 100 100 100 100 100 98 100 100 100 100 100 99 98 100 100 100 100 100 100 100 100 100 97 83 83 100 100 100 100 100 100 90 96 100 53 61 23 100
100 100 100 100 100 91 65 100 100 100 100 100 100 100 100 91 76 94 100 98 97 59 100 100 100 100 100 100 100 100 100 75 100 100 100 100 100 100 100 100 100 100 100 86 55 5 100
100 100 100 100 100 100 100 100 100 100 100 100 100 100 100 100 7 100 100 100 5 100 100 100 93 95 100 100 100 100 100 100 68 19 77 100 100 100 100 100 100 100 100 38 9 80 43
100 100 100 100 100 100 100 98 100 100 100 100 100 100 100 99 8 100 100 99 21 100 66 92 100 34 9 100 100 100 100 100 100 58 25 27 98 100 100 100 100 100 100 72 91 98 70
100 100 100 100 100 100 100 100 100 100 100 100 100 100 96 100 100 98 100 26 1 48 18 4 4 5 2 49 100 100 100 100 100 100 99 7 58 100 100 100 100 100 100 97 100 67 75
100 100 100 100 100 100 100 100 100 100 100 100 100 100 100 100 100 96 100 6 5 1 0 0 0 0 5 32 100 92 92 100 92 5 20 6 76 82 100 100 100 100 100 100 70 96 42
100 100 100 100 100 100 100 100 100 100 100 100 100 100 100 100 100 100 100 13 5 1 1 0 0 0 6 15 40 5 4 100 100 100 29 49 52 97 98 100 100 100 100 100 100 91 62
100 100 100 100 100 100 100 100 100 100 100 100 100 100 100 100 10 5 43 76 46 5 0 0 0 0 7 63 5 5 5 100 100 14 79 100 73 30 63 96 100 100 100 100 100 96 99
100 100 100 100 100 100 100 100 100 100 100 100 100 100 67 100 100 82 43 8 12 50 5 1 0 0 0 1 15 8 28 49 98 54 94 100 83 5 77 100 100 100 100 100 35 91 66
100 100 100 100 100 100 100 100 100 100 100 100 100 100 95 6 100 100 99 22 5 4 2 0 0 0 0 0 0 3 66 99 100 100 100 100 100 100 32 100 100 100 100 83 75 97 100
100 100 100 100 100 100 100 100 100 100 100 100 100 99 100 91 99 100 62 5 5 9 0 47 20 1 0 0 1 11 5 56 100 100 81 100 100 100 8 100 100 100 100 100 100 100 100
100 100 94 90 86 96 98 100 100 100 100 100 100 100 100 100 87 25 16 22 6 65 46 6 82 18 0 79 82 5 3 23 100 98 100 99 92 100 97 100 97 100 100 100 100 100 100
6 20 76 99 100 100 100 70 99 100 100 100 100 100 100 100 54 26 58 91 14 15 12 5 0 1 4 100 4 80 5 48 28 100 98 100 100 97 96 100 100 100 100 100 100 100 100
100 100 100 100 100 100 100 100 100 100 100 100 100 100 100 100 100 6 26 100 98 71 61 4 0 25 90 30 14 13 6 23 100 100 100 100 100 75 52 20 77 100 100 100 100 100 100
99 95 70 55 63 53 84 98 100 100 100 93 100 100 100 100 100 100 70 22 55 68 96 97 24 100 96 6 4 5 36 17 100 100 100 100 100 100 100 100 11 82 100 100 100 100 100
6 5 5 5 5 25 10 17 88 100 100 100 100 100 100 100 100 100 100 100 99 54 100 100 100 100 100 5 4 5 85 55 100 100 100 100 100 100 100 100 81 100 100 100 100 100 100
5 5 5 5 5 65 5 18 40 100 100 100 100 100 97 99 100 100 100 76 100 100 100 100 100 100 5 2 5 4 89 28 100 100 100 100 100 100 100 58 28 100 82 100 100 100 100

GFSGBSN_prec_cloud_060.txt.gz
Cloud_Cover
19 5 44 15 94 10 55 100 97 90 100 99 92 30 17 100 100 100 100 100 100 5 6 5 3 0 20 100 91 100 100 100 6 32 13 4 0 0 0 4 0 0 0 0 0 4 2
37 51 88 72 100 89 74 100 99 100 100 100 100 100 100 60 100 100 100 100 100 37 6 5 91 17 37 95 58 100 100 100 99 90 20 4 3 2 0 0 3 0 0 0 0 0 0
96 88 96 92 79 82 100 100 100 100 100 100 100 100 100 100 100 100 100 100 100 100 100 5 96 93 100 25 54 100 100 100 86 5 17 42 9 5 3 0 5 0 5 4 0 0 0
100 44 98 99 96 100 100 100 100 100 100 100 100 100 100 100 100 100 100 100 100 100 100 41 50 99 100 0 55 97 100 100 88 89 95 91 13 5 1 1 4 1 0 3 3 1 0
100 100 100 82 100 100 100 100 100 100 100 100 100 100 100 100 100 100 100 100 100 100 100 100 100 100 100 2 58 100 99 66 100 98 100 100 54 5 5 0 5 5 0 5 3 86 4
100 94 99 42 44 100 100 100 100 100 100 100 100 100 100 100 100 100 100 100 100 100 95 100 99 95 100 5 44 98 100 94 100 100 96 33 98 50 63 1 5 5 1 8 30 4 5
100 100 72 100 100 100 100 100 100 100 100 100 100 100 100 100 100 100 100 100 54 44 100 100 100 100 100 95 5 34 100 100 86 100 100 100 100 100 99 17 49 9 0 5 5 95 65
100 100 100 99 100 100 100 100 100 100 100 100 100 100 100 100 100 100 100 100 78 26 100 100 100 100 100 94 3 5 92 100 100 100 100 100 100 99 100 100 86 100 13 4 24 96 94
100 100 100 64 100 100 100 100 100 100 100 100 100 100 100 100 100 100 100 100 85 100 98 100 100 100 100 70 69 7 5 100 100 100 100 100 100 96 100 100 100 100 40 18 76 29 9
100 100 96 100 100 100 95 100 100 100 100 100 100 100 100 100 100 100 100 100 100 100 26 100 86 97 100 100 20 100 10 23 100 100 100 75 96 62 10 100 100 100 59 11 97 5 11
100 100 100 65 100 100 100 100 100 100 100 100 100 100 100 100 100 100 100 100 100 100 100 100 100 82 100 96 97 100 98 8 43 100 5 100 100 98 100 100 100 100 100 67 5 5 99
100 100 100 95 89 100 100 100 100 100 100 100 100 100 100 94 100 100 100 100 100 100 100 100 99 100 96 100 89 100 100 88 100 90 29 100 100 100 100 100 100 100 100 69 6 6 70
16 100 100 100 100 90 99 100 100 100 100 100 100 100 100 100 100 100 100 100 97 87 99 100 100 100 100 100 74 100 100 100 100 100 86 100 100 100 83 100 100 100 55 72 100 12 5
9 5 21 24 96 100 31 100 100 100 100 100 100 100 100 100 100 100 100 100 94 100 100 100 98 100 100 100 100 100 100 30 100 99 100 58 100 100 100 86 68 87 98 100 100 95 5
5 24 86 6 72 100 100 100 100 100 100 100 100 100 100 100 99 100 100 100 100 100 100 100 94 100 100 100 100 100 100 100 100 100 100 97 100 100 57 89 100 99 54 100 84 100 61
5 5 14 81 90 100 100 100 100 100 100 100 100 100 89 94 69 46 100 100 100 100 100 100 79 38 100 100 100 100 100 100 100 100 100 100 100 100 100 100 88 76 65 100 100 100 100
5 5 13 93 100 100 100 100 100 100 100 100 100 100 74 98 95 91 100 90 95 100 100 100 100 70 11 95 100 100 100 100 100 100 100 100 100 74 83 100 100 67 94 100 100 68 100
5 7 46 100 100 100 100 100 100 100 100 100 100 100 70 100 100 99 99 14 6 5 5 72 98 100 97 100 100 86 100 100 100 100 100 100 100 100 100 100 100 100 100 100 97 100 100
100 100 100 100 100 100 100 100 100 100 100 100 100 100 100 82 94 100 34 14 49 45 4 5 7 24 100 12 92 46 70 100 100 100 100 100 100 100 100 98 88 99 100 95 99 100 60
100 100 100 100 100 100 100 100 100 100 100 100 100 100 100 100 19 56 100 100 81 61 4 3 3 0 3 66 5 35 27 43 100 100 100 100 34 37 80 100 100 87 82 100 95 79 86
100 100 100 100 100 100 100 100 100 100 100 100 100 100 51 100 100 100 77 60 32 91 100 4 0 1 0 1 0 0 8 47 100 100 100 100 100 100 100 100 100 100 94 100 100 78 86
100 100 100 100 100 100 100 100 100 100 100 100 100 100 100 15 100 100 100 29 8 94 82 83 5 0 0 0 0 0 2 2 98 100 100 100 60 72 92 100 100 85 82 96 100 100 100
100 100 100 100 100 100 100 100 100 100 100 100 100 100 100 100 100 100 65 14 97 86 50 50 48 60 0 2 2 0 2 29 1 37 100 100 100 100 17 98 100 98 10 64 98 98 100
100 100 100 100 100 100 100 100 100 100 100 100 100 100 100 100 59 50 58 99 24 51 67 1 3 80 5 8 2 0 0 0 0 1 18 85 100 100 100 100 100 99 14 15 86 100 100
100 100 100 100 100 100 100 100 100 100 100 100 100 100 100 100 43 16 8 45 91 5 5 5 3 7 48 5 5 4 0 1 0 0 5 8 100 100 100 100 34 28 100 81 74 100 100
99 100 100 100 100 100 100 100 100 100 100 100 100 100 100 100 86 83 78 84 98 98 93 7 100 100 100 66 23 39 6 0 5 52 85 100 100 100 100 100 100 5 71 100 100 100 100
100 100 100 100 100 100 93 100 100 100 100 100 100 100 100 100 58 82 52 18 96 93 73 100 100 100 100 39 34 5 57 0 0 4 62 100 100 100 100 100 82 68 28 100 91 72 100
100 100 100 100 100 100 100 100 100 100 100 100 100 100 100 100 100 100 100 92 100 100 100 100 100 18 99 86 90 7 6 4 0 2 0 100 100 100 100 100 100 100 100 88 81 100 100
100 97 100 100 100 76 61 68 98 99 100 100 100 100 100 100 100 100 100 100 100 100 100 99 76 98 80 13 8 5 7 5 0 4 1 5 77 100 100 100 100 100 100 100 70 96 100

GFSGBSN_prec_cloud_063.txt.gz
Cloud_Cover
100 99 100 85 88 26 6 37 9 51 5 5 5 32 14 72 8 7 22 100 3 6 25 61 100 16 63 98 3 5 4 57 100 100 67 5 22 34 5 2 0 0 0 0 0 2 0
19 8 42 5 34 90 96 84 59 10 41 6 5 5 6 97 75 98 20 99 42 18 79 5 100 67 99 100 1 10 56 7 36 62 100 23 89 11 5 5 0 0 0 0 0 5 4
99 97 92 57 88 26 5 5 6 5 80 66 99 88 43 77 100 98 100 100 91 6 7 79 100 99 100 94 5 5 6 25 100 77 98 26 99 14 70 37 5 0 0 0 0 0 5
100 100 100 87 97 96 17 5 5 24 100 18 95 100 100 100 100 100 100 100 100 10 5 17 100 100 100 46 5 11 13 68 97 52 100 100 100 100 100 25 36 4 0 1 0 1 5
100 100 100 100 99 13 6 54 53 99 100 57 58 100 100 100 100 100 100 100 100 100 97 6 97 100 100 100 17 46 7 5 98 100 19 77 89 100 100 5 8 7 1 1 0 5 5
100 100 100 74 48 29 5 5 7 94 99 100 100 100 100 100 100 100 100 100 86 64 14 24 80 100 100 100 24 35 94 22 62 100 82 100 89 100 53 99 93 5 36 0 4 2 3
100 100 100 100 66 5 5 16 24 98 100 75 83 100 100 100 100 100 100 100 100 43 88 24 79 100 100 100 100 3 87 51 8 100 100 100 100 100 100 100 91 5 22 100 21 0 0
100 100 100 100 100 29 19 87 97 48 100 88 62 100 100 100 100 99 100 100 100 100 79 100 100 100 100 100 100 7 75 100 39 39 72 100 100 84 98 100 98 86 70 100 92 3 13
100 100 100 100 100 100 49 100 99 100 68 66 84 100 100 100 100 100 100 100 100 100 99 100 99 99 100 100 100 100 66 100 100 80 62 100 100 95 100 81 100 99 51 100 100 51 5
98 100 100 78 74 99 100 100 100 78 100 88 82 100 100 100 100 100 86 100 100 100 85 100 60 87 100 96 100 100 100 100 100 100 98 34 100 100 100 100 31 97 60 97 62 100 38
100 100 100 41 21 97 100 100 100 100 100 100 100 100 100 100 100 94 99 100 100 100 100 100 92 36 100 100 94 100 100 100 100 100 44 98 89 100 100 100 100 100 41 84 100 22 67
100 100 100 18 7 44 34 100 100 100 100 100 100 100 100 100 100 100 100 100 99 100 100 100 100 100 100 98 97 100 100 100 100 100 47 81 100 24 100 100 100 100 100 100 100 57 5
100 100 95 25 5 6 90 100 100 100 100 100 100 100 100 100 100 100 100 98 100 100 100 100 100 100 100 100 98 100 100 100 100 100 100 100 100 100 95 39 33 100 100 100 99 50 19
100 100 88 10 5 37 5 15 90 100 100 68 100 100 100 95 100 100 100 100 81 100 100 100 100 100 100 100 100 100 100 100 99 100 100 96 100 100 93 100 100 100 61 23 95 5 5
100 100 90 5 5 13 6 13 100 100 100 100 98 100 100 100 100 100 100 100 100 100 96 59 66 100 100 100 100 100 100 100 100 96 99 99 100 100 100 100 100 39 5 45 6 29 63
72 90 10 4 5 5 15 92 48 100 100 100 100 100 99 84 100 99 90 100 100 100 100 100 100 100 100 100 100 100 100 100 100 100 100 100 82 100 100 72 11 5 87 74 36 73 64
6 22 5 4 2 4 5 70 30 100 100 100 100 100 97 91 97 99 99 88 87 100 100 100 100 100 95 70 100 100 100 100 100 100 89 81 93 97 99 7 32 66 62 81 100 93 86
5 20 5 2 0 3 21 99 100 90 100 100 100 100 100 86 100 100 96 86 67 11 46 100 100 100 99 86 86 93 100 100 100 100 100 100 100 100 100 100 100 100 100 100 100 100 97
61 100 96 60 55 78 82 98 100 100 100 100 100 100 100 94 100 100 100 18 21 51 44 12 100 100 100 98 98 92 100 100 100 100 100 100 100 100 100 100 100 100 100 100 100 100 100
23 5 53 66 23 80 100 100 100 100 100 100 100 100 100 100 42 32 100 100 98 5 5 5 17 39 95 97 94 100 100 100 100 100 100 100 100 100 100 100 100 100 100 100 100 100 100
76 100 100 100 100 100 100 100 100 100 100 100 100 100 100 100 100 93 78 66 85 97 68 5 5 5 17 63 18 12 97 100 100 100 100 100 100 100 100 100 100 100 100 100 100 100 100
100 100 100 100 100 100 100 100 100 100 100 100 100 100 100 71 100 100 100 60 100 100 75 5 5 5 2 2 6 5 20 5 88 82 100 100 100 100 100 100 100 100 100 100 100 100 100
100 100 100 100 100 100 100 100 100 100 100 100 100 100 100 100 100 100 96 100 99 100 92 11 14 5 5 5 0 0 1 2 42 5 64 4 100 100 16 100 100 96 100 100 100 100 92
100 100 100 100 100 100 100 100 100 100 100 100 100 100 100 100 58 94 100 100 100 100 99 100 89 62 85 7 40 12 5 2 0 0 2 23 94 100 100 100 100 52 67 100 100 88 62
100 100 100 100 100 100 100 100 100 100 100 100 100 100 100 100 100 100 100 100 100 100 100 100 100 100 91 24 94 51 4 0 0 4 0 1 12 100 100 90 14 7 100 100 100 100 99
100 100 100 100 100 100 100 100 100 100 100 100 100 100 100 100 100 100 100 100 100 100 99 100 100 100 64 7 87 90 16 0 7 90 26 59 100 79 100 100 62 4 100 100 100 92 100
100 100 100 100 100 100 100 100 100 100 100 100 100 100 100 100 100 100 100 100 100 100 94 100 100 55 48 8 100 99 97 52 3 95 84 83 100 100 100 98 42 70 100 100 100 74 100
100 100 100 100 100 100 100 100 100 100 100 100 100 100 100 100 100 100 100 100 100 100 100 100 100 96 84 65 34 46 51 68 20 4 2 39 87 76 74 86 100 100 100 100 93 99 100
100 100 100 100 100 100 100 100 100 100 100 100 100 100 100 100 99 100 100 100 100 99 100 100 100 100 95 5 20 5 1 7 5 13 3 4 0 5 2 90 100 100 100 100 100 100 98

GFSGBSN_prec_cloud_066.txt.gz
Cloud_Cover
100 100 96 100 83 64 80 63 81 39 48 38 77 5 5 5 5 5 5 5 4 1 0 3 0 3 35 89 100 42 11 5 4 0 58 70 40 6 5 22 51 6 5 0 0 0 0
100 95 100 82 100 96 69 100 86 73 5 3 7 5 5 5 5 5 5 5 5 13 2 5 1 2 24 71 96 8 98 11 5 1 56 12 69 19 12 50 42 39 5 0 4 0 0
100 100 100 100 100 100 100 15 5 2 2 0 0 2 5 5 5 5 88 53 5 5 5 4 2 44 89 100 68 84 88 61 6 4 60 3 32 53 23 62 98 93 5 0 2 0 0
100 100 100 100 100 37 69 4 4 1 0 2 1 0 4 5 5 11 100 100 97 5 18 23 7 96 29 100 98 100 51 100 8 5 5 5 73 80 29 100 100 42 11 0 5 0 0
100 100 100 100 100 100 85 82 8 0 0 0 0 0 5 5 12 100 100 100 100 90 98 52 50 84 99 100 100 100 100 100 5 5 11 31 99 100 100 87 100 90 80 4 5 21 1
100 100 100 100 100 100 82 5 2 4 5 5 4 0 5 88 36 100 100 100 72 100 100 96 89 95 97 100 100 100 100 100 7 5 5 88 100 100 100 2 100 100 100 12 4 45 36
100 100 95 100 100 100 79 42 6 5 35 5 5 4 5 100 42 100 100 100 100 100 100 100 100 100 100 100 100 68 100 100 5 5 5 96 100 100 100 50 100 100 100 91 5 92 90
100 100 100 100 100 100 100 15 5 5 47 5 5 5 7 100 77 83 93 100 100 100 100 100 100 100 100 100 100 100 75 100 51 5 24 5 94 100 5 11 100 100 100 53 5 86 84
100 100 100 100 100 99 70 5 99 35 58 25 76 100 98 91 79 92 97 100 100 100 100 100 100 100 100 70 100 100 100 100 100 6 6 38 100 100 82 11 97 100 100 44 10 6 76
100 100 100 100 100 98 5 5 49 67 65 87 100 62 60 100 100 91 95 79 94 100 100 100 100 100 100 100 84 100 100 100 100 87 7 53 94 100 93 75 100 100 54 93 96 44 29
100 100 64 84 100 6 5 5 5 5 7 100 100 100 100 100 100 98 100 100 99 100 48 100 100 98 100 100 100 100 100 100 100 100 96 81 95 95 55 90 88 100 100 100 100 70 100
100 100 100 100 100 18 12 5 5 23 22 5 100 100 100 100 100 25 100 100 97 55 75 100 100 100 100 100 100 100 100 100 100 100 100 100 100 76 100 91 92 100 100 100 83 57 100
100 100 100 100 100 40 5 5 5 5 5 5 24 100 100 100 100 100 92 100 90 87 96 100 100 100 100 100 100 100 100 100 100 100 100 100 100 100 100 100 5 30 100 29 9 100 100
100 100 100 100 100 47 5 5 5 5 5 2 86 89 99 100 100 100 100 98 98 19 100 96 100 100 100 100 100 100 100 100 100 100 100 86 100 100 100 100 100 98 81 6 78 91 40
100 100 100 100 100 43 5 2 5 95 72 6 70 54 100 100 100 99 98 100 78 100 100 100 100 100 100 100 100 100 100 100 100 100 100 100 100 100 100 100 100 100 96 88 7 5 6
84 99 100 100 86 7 5 3 5 54 85 16 90 92 98 72 97 100 100 100 98 69 100 100 90 100 100 100 100 100 100 100 100 100 100 100 100 100 100 100 100 78 99 99 25 15 54
97 98 52 5 38 5 4 0 5 5 22 45 100 100 96 99 100 100 100 99 100 100 99 100 100 66 100 100 100 100 100 100 100 100 100 100 100 100 100 100 100 100 100 82 22 12 46
100 95 5 5 5 4 5 5 1 3 10 95 100 100 98 92 100 100 100 100 100 100 100 100 100 67 98 89 100 100 100 100 100 100 100 100 70 100 100 100 100 100 92 85 99 5 5
26 5 5 5 23 24 11 16 20 12 48 69 100 100 98 100 99 100 100 80 13 100 100 100 100 100 100 96 62 100 100 100 100 100 100 100 100 80 100 100 100 100 92 92 19 4 53
99 5 5 5 5 5 14 8 6 5 25 100 100 100 100 100 99 38 100 96 96 26 89 97 97 100 100 96 12 74 100 79 100 100 100 100 100 100 100 100 100 90 88 75 100 8 83
5 5 6 6 41 96 100 100 100 98 76 100 100 100 91 100 100 100 90 100 100 100 45 48 11 6 62 100 67 58 100 93 45 100 100 100 100 100 100 100 100 100 100 100 100 100 100
100 5 32 5 5 74 100 100 100 100 100 100 100 100 100 100 98 100 100 100 100 100 97 12 5 53 100 14 37 50 47 35 83 100 100 100 100 100 100 100 100 100 100 98 36 100 100
100 99 100 100 100 100 100 100 100 100 100 100 100 100 100 100 80 100 100 100 100 100 100 100 100 100 95 100 20 5 5 15 5 5 48 95 100 100 100 100 100 100 100 100 100 87 100
100 100 100 100 100 100 100 100 100 100 98 100 100 100 100 100 100 100 100 100 100 100 100 100 100 100 100 86 85 85 91 5 5 4 1 1 98 100 100 100 100 100 100 100 100 100 100
100 100 100 100 100 100 100 100 100 100 100 100 100 100 100 100 100 100 100 100 100 100 100 100 100 100 100 100 84 66 32 7 4 0 0 0 94 100 80 44 70 100 100 100 100 100 100
100 100 100 100 100 100 100 100 100 100 100 100 100 100 100 100 90 99 100 100 100 100 100 100 100 100 100 100 100 100 100 10 1 3 0 21 60 47 91 100 32 87 100 100 100 31 100
100 100 100 100 100 100 100 100 100 100 100 100 100 100 100 100 99 100 100 100 100 100 100 100 100 100 100 100 100 98 99 100 7 90 54 99 97 82 61 85 10 0 68 100 100 13 5
100 88 97 100 100 100 100 100 100 100 100 100 100 100 100 100 100 100 100 100 100 100 100 100 100 100 100 100 100 100 83 9 5 3 5 18 50 98 92 100 58 0 4 100 100 97 40
98 100 73 100 100 100 100 100 100 100 100 100 100 100 100 100 100 100 100 100 100 100 100 100 100 100 100 94 42 18 5 20 3 5 0 4 2 6 2 9 0 0 0 3 99 83 96

GFSGBSN_prec_cloud_069.txt.gz
Cloud_Cover
89 90 78 52 74 100 100 100 100 100 100 100 100 100 100 93 48 99 63 76 53 5 4 1 0 3 2 0 34 0 5 5 52 8 5 5 5 2 5 42 1 5 29 23 3 0 0
100 100 100 100 100 100 100 100 100 100 100 100 100 63 33 98 9 3 12 38 5 5 5 5 4 6 21 28 45 5 5 38 100 13 5 21 5 4 5 5 3 7 96 8 5 0 0
100 100 100 100 100 100 100 100 74 97 25 64 77 9 54 100 69 6 4 5 1 5 5 5 5 61 13 100 100 9 5 100 100 16 5 5 5 5 51 5 5 46 94 63 5 0 0
100 100 100 100 100 100 100 100 100 96 5 22 46 15 3 5 3 0 0 2 4 0 3 5 18 100 6 100 100 100 5 100 100 47 5 7 5 5 29 0 17 71 100 100 5 4 2
100 100 100 100 100 100 100 100 96 99 49 3 3 1 1 0 0 0 0 0 5 1 1 22 68 36 8 100 100 100 69 100 90 95 5 54 89 22 47 0 10 39 100 100 7 5 5
100 100 100 100 100 100 100 100 100 96 38 5 1 4 0 0 0 0 0 0 1 1 1 7 57 28 85 100 100 100 75 100 100 92 5 99 100 57 99 80 5 8 100 100 93 64 6
100 100 100 100 100 100 100 100 100 51 5 5 5 5 0 5 4 0 0 0 0 0 3 91 100 92 100 100 100 100 95 100 71 41 50 100 12 80 100 24 20 91 100 100 74 12 5
100 100 100 100 100 100 100 100 77 51 6 6 0 5 5 5 5 2 0 7 96 78 96 73 99 100 100 100 100 100 100 98 100 99 100 89 99 100 85 5 5 100 100 100 14 7 99
100 97 100 100 100 100 100 76 6 9 5 5 5 5 5 5 5 5 1 19 92 46 100 100 99 100 100 100 100 100 100 92 100 96 84 100 100 76 60 5 5 100 100 15 53 8 49
100 100 100 100 100 100 100 100 91 66 31 5 5 5 5 84 59 20 18 34 99 28 98 100 98 100 100 100 100 100 100 100 100 100 99 100 100 100 96 8 5 96 96 0 62 100 94
100 100 100 100 100 100 100 36 5 6 7 5 5 5 5 92 97 80 6 93 99 73 3 100 100 100 100 100 100 100 100 100 100 100 100 100 100 100 91 99 27 41 93 6 100 100 100
100 100 100 100 100 100 100 100 98 65 5 5 5 5 12 37 81 38 86 5 56 99 70 100 100 100 100 98 100 100 100 100 100 100 100 100 100 100 100 94 52 68 98 18 100 100 100
100 100 100 100 100 100 100 96 99 5 5 5 5 5 7 92 100 26 87 22 40 87 96 100 100 100 100 100 100 100 100 100 100 100 99 100 100 100 100 100 79 5 82 100 35 48 100
100 100 100 100 100 100 100 78 54 100 22 5 3 5 21 37 100 92 6 86 98 90 100 100 100 100 100 100 100 100 100 100 100 100 100 100 100 100 100 100 100 100 100 18 5 58 100
100 100 100 87 96 66 100 98 10 5 5 37 40 6 8 20 99 100 95 96 5 99 100 100 100 100 100 100 100 100 100 100 100 100 100 100 100 100 100 100 100 100 100 100 66 28 74
100 100 100 30 100 100 97 90 24 0 2 41 56 42 89 5 63 100 100 93 3 82 100 100 100 100 100 100 100 100 92 100 100 100 100 100 100 100 100 100 100 100 100 100 100 99 25
50 100 20 91 100 100 22 76 5 0 2 5 65 74 58 5 81 100 100 92 88 100 100 100 100 100 100 100 100 100 100 99 100 100 100 100 100 100 100 100 100 100 100 87 42 73 16
73 8 89 99 100 17 5 5 2 0 0 7 71 100 53 83 100 100 100 88 69 100 100 100 100 100 100 100 100 100 100 100 100 100 100 100 100 100 100 100 100 100 98 81 32 99 8
99 45 21 100 100 91 25 5 5 5 7 5 100 97 84 100 100 100 100 99 9 70 100 99 100 100 100 100 100 100 100 100 100 100 100 100 100 100 100 100 100 100 100 95 70 29 37
88 23 78 92 89 40 5 5 5 35 5 30 100 96 100 100 100 83 100 73 16 4 24 91 100 100 100 100 100 100 100 100 100 100 100 100 100 100 100 100 100 100 100 100 52 54 10
95 46 100 99 99 8 5 5 5 81 28 84 100 96 96 100 63 99 98 100 22 5 5 5 88 100 100 73 5 78 100 88 100 100 100 100 100 100 100 100 100 81 33 86 100 27 5
6 5 60 100 86 5 5 5 6 73 87 100 100 100 100 100 97 100 100 100 26 5 6 96 35 99 80 100 98 5 99 58 25 100 100 100 100 100 100 100 100 100 100 100 100 37 9
100 82 4 22 72 90 71 14 5 44 73 71 100 100 100 11 88 100 88 93 26 7 44 100 100 80 100 100 57 8 6 24 34 36 100 100 100 100 100 100 100 100 100 100 100 100 100
100 100 100 100 100 100 100 100 100 100 85 41 100 100 100 97 100 70 100 100 5 5 83 100 100 98 100 97 16 5 22 5 6 7 5 23 76 94 83 89 53 100 100 100 100 100 100
100 100 100 100 100 100 100 100 100 100 100 100 100 100 100 94 50 93 99 100 94 100 100 100 100 100 100 100 100 98 47 9 5 5 5 0 3 30 48 73 54 96 100 100 100 99 86
100 100 100 100 100 100 100 100 100 100 100 100 100 100 100 100 57 5 99 100 100 100 100 100 100 100 100 100 100 97 99 8 7 2 26 6 6 5 100 28 17 84 100 98 100 100 100
100 100 100 100 100 100 100 100 100 100 100 100 100 100 100 100 95 5 14 100 100 100 100 100 100 100 100 100 96 97 48 63 21 13 100 100 100 52 90 68 4 5 4 8 51 77 10
100 100 100 100 100 100 100 100 100 100 100 100 100 100 100 100 71 100 100 100 100 100 100 100 100 100 100 100 96 91 54 11 5 43 94 32 58 91 84 73 47 0 0 2 0 2 1
94 100 100 96 100 100 100 100 100 100 100 100 100 100 100 100 100 100 100 100 100 100 100 100 100 100 100 84 33 24 63 35 5 5 5 5 2 6 7 2 0 0 10 1 0 0 0

GFSGBSN_prec_cloud_072.txt.gz
Cloud_Cover
100 100 100 83 82 63 41 18 27 61 60 90 100 100 100 100 100 100 100 100 100 100 100 100 100 76 98 7 63 0 0 3 0 0 0 0 0 1 0 0 1 5 5 3 5 77 4
100 100 100 100 100 100 100 100 79 90 100 99 63 100 100 100 100 100 100 100 92 100 100 5 1 18 0 4 80 8 1 5 5 1 0 0 0 5 2 0 0 6 4 8 5 28 9
100 100 100 100 100 100 100 100 100 100 100 100 43 63 67 75 100 100 100 84 100 100 5 6 13 0 0 8 12 97 25 5 5 32 5 4 2 0 3 5 1 5 4 72 5 15 5
100 100 100 100 100 100 100 100 100 100 100 93 94 7 0 5 5 10 86 90 71 52 87 5 2 5 0 5 6 97 86 5 6 99 5 13 5 1 5 4 4 5 5 5 14 100 33
100 100 100 100 100 100 100 100 100 100 100 90 27 84 69 65 4 39 91 5 3 5 3 3 5 3 0 3 14 82 100 76 5 82 5 70 17 5 5 5 5 12 1 5 100 100 63
100 100 100 100 100 100 100 100 100 100 100 100 68 28 12 78 15 60 88 41 1 2 29 4 10 0 3 6 91 22 75 100 96 100 10 77 12 28 48 50 42 72 5 86 100 100 98
100 100 100 100 100 100 100 100 100 100 100 100 100 100 7 27 16 98 94 5 0 9 0 0 0 0 5 5 14 100 90 100 100 100 55 93 38 5 100 51 100 44 96 100 100 100 99
100 100 100 100 100 100 100 100 100 100 93 100 20 47 100 100 82 5 2 9 41 37 54 0 0 0 7 4 45 100 100 100 100 100 100 34 5 87 100 20 91 13 87 100 5 100 100
100 100 100 100 100 100 100 95 100 97 93 100 100 5 14 6 10 16 5 16 72 25 52 52 8 0 0 12 100 100 100 100 100 100 94 61 40 100 100 72 7 12 100 91 5 97 100
100 100 100 100 100 100 100 100 100 100 100 85 100 100 13 99 48 6 61 31 56 5 44 1 97 89 50 68 100 100 100 100 100 100 100 99 100 98 100 100 91 42 80 100 5 24 100
100 100 100 100 100 100 100 100 100 100 100 91 100 100 96 89 81 31 49 5 5 69 0 2 87 100 100 100 100 100 100 100 100 100 100 93 100 100 100 100 90 100 41 38 33 23 98
100 100 99 100 100 100 100 100 100 100 100 100 96 62 5 17 69 37 15 3 6 52 0 5 100 100 100 100 100 100 100 100 100 100 100 100 100 99 100 100 94 83 5 5 18 95 100
54 100 99 100 100 100 100 100 100 100 100 100 97 50 6 67 69 38 5 4 26 0 3 6 100 100 100 100 100 100 100 100 100 100 100 100 100 100 100 100 100 86 30 32 55 94 100
100 100 100 100 100 100 100 100 100 100 100 100 100 10 5 8 84 89 62 62 4 0 10 19 75 100 100 100 100 100 100 100 100 100 100 100 100 100 100 100 100 100 100 72 80 81 52
96 100 100 100 100 100 100 100 100 100 100 100 94 27 21 74 13 86 88 96 0 4 2 85 100 100 100 100 100 100 100 100 100 100 100 100 100 100 100 100 100 100 100 91 71 19 5
100 96 100 100 100 100 100 100 100 100 100 54 28 57 9 14 13 66 100 24 5 36 6 19 100 100 100 100 100 100 100 100 100 100 100 100 100 100 100 100 100 100 99 100 82 100 100
97 22 11 100 100 100 100 100 100 100 100 12 25 77 25 5 31 100 100 93 91 27 7 4 100 100 100 100 100 100 100 100 100 100 100 100 100 100 100 99 100 100 99 100 100 100 100
80 36 100 70 100 100 100 100 100 100 84 5 88 98 19 28 100 100 100 51 99 13 64 6 31 100 100 100 100 100 96 100 100 100 100 100 100 100 100 100 100 100 100 66 88 94 74
100 100 90 47 26 16 100 100 95 90 5 24 100 80 8 79 99 100 77 27 48 92 5 20 12 98 100 100 100 100 100 86 100 100 100 100 100 100 100 100 100 100 56 100 100 100 83
84 85 94 82 36 9 100 100 49 4 25 38 58 49 45 95 97 100 86 79 100 37 7 56 71 14 100 92 100 100 100 100 100 100 100 100 100 100 100 100 100 100 100 100 100 100 100
23 12 5 5 5 100 87 98 7 0 72 61 91 77 93 90 58 100 99 98 87 100 20 5 32 14 95 91 100 100 100 100 100 100 100 100 100 100 100 100 100 100 100 100 100 77 86
100 100 85 11 3 5 5 95 5 1 75 100 98 83 25 89 97 100 100 96 80 86 93 76 30 97 81 100 95 100 100 100 93 100 100 100 100 100 100 100 100 100 100 100 100 100 100
100 100 100 100 98 21 39 85 7 5 14 99 79 46 40 86 67 100 20 18 88 100 99 92 95 100 95 75 99 100 100 100 100 100 100 100 100 100 100 100 100 100 98 100 100 100 100
100 100 100 100 100 94 16 84 100 100 46 54 94 52 99 51 84 69 92 84 93 100 96 70 99 100 99 41 89 19 85 100 100 100 98 100 100 100 100 100 100 100 100 100 100 100 100
100 100 100 100 100 100 100 100 100 100 100 100 52 96 92 82 85 42 93 90 67 72 100 100 100 100 98 100 98 99 81 93 100 100 100 99 76 96 67 100 100 100 100 100 100 100 100
100 100 100 100 100 100 100 100 100 100 100 100 97 61 97 100 11 4 79 77 99 100 99 99 100 100 100 100 98 97 100 100 71 98 52 48 73 94 100 75 100 100 100 100 100 100 100
100 100 100 100 100 100 100 100 100 100 100 100 100 100 65 100 6 92 66 89 42 86 100 100 100 100 100 100 100 99 100 95 99 99 99 100 98 82 98 97 94 55 80 98 91 78 16
100 100 100 100 100 100 100 100 100 100 100 100 100 100 90 100 8 60 12 89 40 68 100 100 100 100 100 100 100 100 100 98 95 100 74 100 96 84 95 100 99 5 6 59 71 91 100
100 100 76 82 100 100 100 100 100 100 100 100 100 100 100 100 59 28 7 15 100 100 100 100 100 100 100 100 100 100 98 65 96 100 38 99 75 95 53 92 25 13 2 6 4 5 2

GFSGBSN_prec_cloud_075.txt.gz
Cloud_Cover
100 100 100 100 100 100 100 100 99 100 99 100 3 46 5 5 28 95 100 100 100 100 100 100 100 100 100 100 98 92 100 97 6 3 1 1 0 0 0 0 0 3 1 5 0 5 2
100 100 100 100 100 98 100 100 100 100 100 100 64 10 5 4 5 5 75 57 100 100 100 100 100 100 100 100 100 100 100 22 3 0 0 0 0 0 1 2 4 0 4 5 12 5 5
100 100 100 100 100 100 100 100 100 100 100 100 100 89 43 31 71 13 96 47 29 20 97 16 100 97 100 98 41 4 8 6 5 0 0 4 5 3 0 3 0 2 0 3 31 6 5
100 100 100 100 100 100 100 100 100 100 100 100 100 100 100 100 48 32 20 63 69 56 49 77 87 68 100 49 43 93 3 25 39 11 1 5 5 5 5 0 0 0 4 6 58 5 22
100 100 100 99 98 100 100 100 100 100 100 100 100 100 100 100 100 98 54 5 12 52 72 46 4 8 8 9 5 5 33 14 16 56 59 14 16 5 61 5 0 5 5 4 65 22 67
100 100 100 100 100 100 100 100 100 100 100 100 100 100 100 100 100 100 95 89 25 24 21 32 5 16 3 3 1 0 1 5 5 23 98 82 62 83 5 11 12 100 10 87 100 84 39
72 100 100 100 100 100 100 100 100 100 100 100 100 100 100 100 100 100 100 54 17 9 14 75 5 0 0 17 4 0 0 0 5 8 75 100 98 6 5 100 100 100 75 100 100 77 69
53 100 99 100 100 100 100 90 91 100 100 100 100 100 99 100 99 100 100 100 96 64 92 12 48 5 4 0 0 0 0 0 0 5 98 100 24 67 100 100 100 52 100 100 83 74 9
18 96 100 86 82 100 100 100 88 100 100 100 100 100 100 100 100 100 100 50 28 75 14 12 3 5 0 0 0 0 0 0 0 60 44 100 89 100 100 100 100 82 72 100 71 98 85
100 100 97 8 84 100 100 100 100 100 100 100 100 100 100 100 99 73 91 80 38 80 72 29 0 0 0 0 1 0 0 1 3 86 100 100 100 100 100 100 100 100 100 100 88 98 96
80 68 6 74 100 99 97 100 100 100 100 100 100 100 100 100 100 76 84 100 53 87 49 0 0 0 4 5 4 5 5 5 81 100 100 100 100 100 100 100 100 95 100 99 100 68 61
6 100 92 90 100 100 100 100 100 100 100 100 100 93 100 100 100 99 71 63 91 68 1 0 0 4 93 12 15 100 14 61 100 100 100 100 100 100 100 100 100 100 100 93 100 72 45
5 6 68 91 100 100 100 100 100 100 100 100 100 100 100 100 99 100 80 67 12 4 0 0 0 0 89 87 100 100 100 100 100 100 100 100 100 100 100 100 100 100 100 100 100 100 99
32 14 100 100 100 100 100 100 100 100 100 100 100 100 100 100 100 68 71 40 4 0 0 2 0 0 16 100 100 100 100 93 100 100 100 100 100 100 100 100 100 100 100 100 100 100 100
96 38 17 86 13 76 100 100 100 100 100 100 100 100 100 100 100 100 85 54 5 2 1 1 4 0 0 98 100 100 100 100 100 100 100 100 100 100 100 100 100 100 100 100 100 100 100
5 32 68 99 100 15 94 100 100 100 100 100 100 100 100 100 100 100 64 4 7 18 27 84 5 0 0 62 100 100 100 100 100 100 100 100 100 100 100 100 100 100 100 100 100 100 100
11 17 31 90 92 74 100 100 100 100 100 100 100 100 100 100 100 100 82 52 99 10 79 31 5 5 0 11 100 100 100 100 100 100 100 100 100 100 100 100 100 100 100 100 100 100 100
73 99 12 92 93 98 88 99 100 100 100 100 100 100 100 100 100 100 99 97 33 94 80 52 6 5 5 25 100 95 100 100 100 100 100 100 100 100 100 100 100 100 100 100 100 100 100
23 98 71 84 71 62 5 49 100 100 100 100 100 100 100 100 96 89 75 98 100 97 93 96 100 10 5 64 100 100 94 100 100 100 100 100 100 100 100 100 100 100 100 100 100 100 100
29 64 22 77 100 100 8 5 100 100 100 100 99 100 100 99 59 62 100 96 99 100 99 100 100 100 100 100 100 100 100 100 100 100 100 100 100 100 100 100 100 100 100 100 100 100 100
100 91 59 48 7 6 5 5 100 100 100 45 100 78 98 98 67 89 100 91 100 100 83 100 100 100 100 100 100 100 100 100 100 100 100 100 100 100 100 100 100 100 100 100 100 100 100
100 100 100 100 92 20 5 5 24 100 79 79 100 93 99 100 99 27 18 41 100 100 100 100 100 100 100 100 100 100 100 100 100 100 100 100 100 100 100 100 100 100 100 100 100 100 100
100 100 100 100 100 100 28 5 3 6 66 96 95 62 90 92 98 100 86 12 6 94 65 100 100 100 100 100 100 100 97 100 100 100 100 100 100 100 100 100 100 100 100 100 100 100 100
100 100 100 100 100 100 100 61 4 4 11 63 35 84 100 68 100 100 99 97 100 62 88 82 100 62 100 23 70 78 83 93 100 100 100 100 100 100 100 100 100 100 100 100 100 100 100
100 100 100 100 100 100 100 100 48 5 5 9 91 97 99 97 100 100 100 99 94 83 88 100 100 100 53 100 54 94 89 100 63 100 100 100 100 100 100 100 100 76 100 100 100 100 100
100 100 100 100 100 100 100 100 100 100 100 95 100 100 100 94 47 100 100 79 98 73 100 43 94 99 98 100 99 100 91 60 89 100 100 100 100 100 100 100 100 100 100 100 100 81 100
100 100 100 100 100 100 100 100 100 100 100 100 100 100 100 100 5 88 91 100 100 100 98 100 100 100 100 100 100 100 98 100 87 80 100 100 100 100 100 100 100 100 100 100 100 100 99
100 100 100 100 100 100 100 100 100 100 100 100 100 100 98 100 98 9 75 89 53 85 99 88 100 100 100 100 100 100 100 82 96 83 100 100 100 100 100 100 100 100 100 90 61 92 100
100 80 100 100 100 100 100 100 100 100 100 100 100 100 100 100 74 34 57 88 94 100 100 100 100 100 100 94 66 100 96 65 88 100 100 100 100 100 100 100 100 97 96 92 62 40 19

GFSGBSN_prec_cloud_078.txt.gz
Cloud_Cover
100 100 100 100 100 100 100 100 100 100 100 100 100 100 100 100 96 21 5 4 38 100 71 47 66 100 100 100 100 47 100 100 100 81 85 98 100 54 9 4 5 5 1 1 5 1 0
100 100 100 100 100 100 100 100 100 100 100 100 100 100 100 100 100 60 86 5 3 5 53 95 93 90 78 100 100 100 100 100 100 100 100 100 100 100 12 4 4 5 5 5 5 5 5
100 100 100 100 100 100 100 100 100 100 100 100 100 100 100 100 100 100 89 99 38 8 7 5 5 19 100 100 100 100 100 100 100 100 100 94 57 1 3 5 5 5 5 5 5 8 5
100 100 100 100 100 100 100 100 100 100 100 100 100 100 100 100 100 84 100 100 100 100 84 46 7 5 25 52 50 87 93 83 39 89 59 85 70 27 1 28 5 5 4 5 14 4 4
100 100 100 88 100 100 100 100 100 100 93 100 100 100 100 100 100 100 100 100 100 100 100 100 100 96 21 7 30 5 5 6 31 46 25 9 5 5 10 42 4 5 23 28 86 0 1
100 100 94 100 86 99 99 100 100 100 100 100 80 56 100 100 100 100 100 100 100 100 100 100 99 97 92 74 53 36 5 8 12 17 31 42 73 14 4 20 8 2 83 92 5 88 93
100 100 100 86 100 61 71 42 36 44 92 100 99 69 66 100 100 100 100 100 100 100 100 94 50 28 38 71 26 88 24 5 5 0 1 4 46 0 53 48 41 81 64 6 72 100 100
100 100 100 100 100 100 100 100 100 48 22 47 65 100 99 100 100 100 100 100 100 78 99 100 86 100 99 74 100 21 5 33 5 0 0 1 2 5 100 100 100 100 69 99 100 100 99
22 5 39 55 93 43 75 85 99 59 100 99 64 100 100 100 100 100 100 100 97 100 21 12 52 100 100 100 41 10 3 0 0 2 2 4 0 9 98 100 100 100 62 95 100 100 100
7 5 5 5 4 4 5 90 57 84 50 100 100 100 100 100 100 100 100 100 100 100 88 100 95 96 59 40 17 0 0 0 0 0 2 24 38 3 31 21 100 95 100 100 100 100 78
5 5 5 6 5 5 100 100 100 100 100 6 100 100 100 100 100 100 100 100 100 100 100 6 19 93 97 78 26 1 0 0 0 0 0 2 13 24 5 100 100 100 100 100 100 100 100
5 5 5 11 5 5 5 34 48 90 100 85 88 100 100 100 100 100 100 100 100 100 100 99 100 100 100 99 35 4 0 0 0 0 7 6 95 42 40 100 100 100 100 100 100 100 97
5 5 7 5 12 92 14 75 93 99 100 100 49 100 100 100 100 100 100 100 100 100 100 100 100 100 87 21 5 3 5 0 1 4 20 39 87 100 100 100 100 100 100 100 100 97 71
5 5 7 5 5 48 30 100 57 5 100 100 91 100 100 100 100 100 100 100 98 69 100 42 93 95 100 35 1 0 5 5 72 100 100 75 100 100 100 100 100 100 100 100 100 94 99
5 6 5 5 5 28 13 5 42 33 100 100 100 100 100 100 100 100 100 100 100 100 100 100 100 98 64 5 4 73 22 10 100 100 100 100 100 100 100 100 100 100 100 100 100 100 100
5 5 5 5 5 79 100 68 40 43 100 100 100 100 100 100 100 100 100 100 100 100 100 100 100 100 13 8 5 22 42 94 100 100 100 100 100 100 100 100 100 100 100 100 100 100 88
5 5 5 5 5 6 97 37 25 100 6 98 100 100 100 100 100 100 100 100 100 100 100 100 100 93 5 20 24 2 62 13 100 100 100 100 100 100 100 100 100 100 100 100 100 100 100
85 5 5 5 95 5 91 47 56 100 100 100 100 100 100 100 100 100 100 100 100 100 100 100 63 99 100 59 97 5 75 58 99 100 100 100 100 100 100 100 100 100 100 100 100 100 100
5 5 5 5 5 36 100 99 72 18 100 100 95 100 100 100 100 100 100 100 100 100 100 95 89 100 12 16 31 55 5 97 100 100 100 100 100 100 100 100 100 100 100 100 100 100 100
5 5 91 8 13 100 81 95 64 86 100 100 78 100 100 100 100 100 100 100 100 100 100 100 38 78 56 62 26 40 98 93 98 100 100 100 100 100 100 100 100 100 100 100 100 100 100
10 95 100 19 42 99 8 8 100 4 91 100 100 84 100 100 100 100 100 100 100 100 100 91 58 22 48 81 76 84 55 30 72 100 100 100 100 100 100 100 100 100 100 100 100 100 100
100 100 100 30 100 100 100 5 2 28 100 100 98 72 97 100 100 100 98 100 99 100 99 26 55 22 12 80 95 21 88 94 96 100 100 100 100 100 100 100 100 100 100 100 100 100 100
100 100 100 70 100 100 100 97 5 4 86 100 30 14 100 30 100 100 87 94 33 68 75 57 59 95 34 55 43 11 63 51 10 55 100 99 100 100 100 100 100 100 100 100 100 100 100
100 100 100 79 94 100 100 100 92 5 5 35 35 49 93 61 96 74 94 98 90 100 85 44 88 24 35 56 4 88 26 68 78 78 86 100 100 100 100 100 100 100 100 100 100 100 100
100 100 100 97 99 99 100 100 100 97 4 5 10 37 80 97 100 99 98 95 68 98 46 20 6 48 88 99 66 31 73 5 5 67 71 100 100 100 100 100 100 100 100 100 100 100 100
100 100 100 100 100 100 98 99 100 100 93 6 8 100 98 100 28 72 89 95 100 100 60 9 80 5 99 96 100 45 79 18 36 25 100 100 100 90 98 100 100 100 100 100 100 100 98
100 100 100 100 100 100 100 100 100 100 100 97 100 100 100 100 100 78 67 89 66 99 59 96 77 90 68 98 93 94 75 100 92 92 98 100 100 100 100 96 100 100 99 100 100 100 100
100 100 100 100 100 100 100 100 100 100 100 100 100 100 100 100 100 38 96 98 65 70 57 87 69 100 100 98 43 69 52 75 100 100 100 100 100 100 100 90 100 100 100 100 100 100 100
100 100 100 100 100 100 100 100 100 100 100 100 100 100 100 100 86 65 33 8 100 70 90 100 72 100 100 43 69 79 97 99 97 99 100 100 100 100 100 100 100 100 100 100 100 100 100

GFSGBSN_prec_cloud_081.txt.gz
Cloud_Cover
100 100 100 100 100 100 100 100 100 77 100 100 100 100 100 100 100 100 100 100 100 93 77 6 59 26 88 93 100 100 100 100 100 100 100 100 99 100 100 99 63 100 100 100 100 9 5
100 100 100 100 100 100 100 100 100 100 100 100 100 100 100 100 100 100 100 100 100 100 100 70 24 4 77 87 99 94 100 100 100 100 100 100 100 100 100 100 100 100 100 65 34 5 5
100 100 100 100 100 100 100 100 100 100 100 100 100 100 100 100 100 100 100 100 86 100 30 100 69 48 28 61 10 82 100 94 100 100 100 100 100 100 100 100 100 100 100 100 44 70 48
100 100 100 100 100 100 100 100 100 100 100 100 100 100 100 100 100 100 100 100 100 100 100 57 27 57 99 83 100 100 46 96 88 97 100 100 86 93 100 100 91 86 10 1 74 100 27
100 97 86 98 100 100 100 100 100 100 100 100 85 100 100 100 100 100 100 100 100 100 100 93 53 46 100 100 100 98 100 98 99 85 61 30 23 27 54 5 4 5 0 5 39 5 4
100 100 100 57 100 74 100 100 100 100 94 100 100 100 96 30 100 100 100 100 100 100 100 100 100 93 99 100 95 100 100 94 94 100 53 42 63 5 23 44 9 5 2 0 3 46 82
100 100 100 100 100 100 100 94 100 89 94 93 16 100 32 5 8 10 100 100 99 100 100 100 35 100 100 84 100 100 5 70 51 60 95 77 20 31 27 69 92 90 68 4 5 14 89
100 14 84 15 86 98 100 100 100 100 100 100 100 100 100 100 95 26 76 84 93 34 61 100 100 100 100 100 100 93 49 94 73 8 5 24 86 56 2 65 70 49 13 2 0 27 100
5 5 5 5 5 5 5 3 5 5 78 36 54 61 100 100 100 94 92 54 84 100 30 100 100 100 100 59 100 100 38 48 66 64 32 5 4 0 1 0 5 5 5 62 79 100 100
5 5 4 2 5 5 5 5 60 10 88 94 99 5 5 95 100 100 100 100 100 97 100 100 100 100 100 100 52 12 5 45 93 100 100 26 4 0 0 0 0 0 64 18 100 100 49
5 5 4 5 5 1 2 2 5 7 56 14 88 68 100 5 99 98 100 100 100 100 100 98 100 100 100 100 86 80 95 100 70 8 7 8 3 0 0 0 0 0 1 62 25 100 100
91 5 3 4 5 3 2 5 5 5 16 88 75 100 100 51 100 100 100 100 100 100 100 30 100 100 100 100 100 100 100 57 5 9 50 50 3 0 2 3 2 5 27 9 100 100 100
10 5 5 5 5 5 5 3 5 5 95 77 67 98 100 97 100 100 100 100 100 100 100 100 100 100 100 100 100 100 100 100 100 82 100 5 0 1 4 5 10 53 100 100 100 100 88
5 5 5 5 5 5 4 5 1 5 12 52 16 96 100 100 100 100 100 100 100 100 100 76 71 100 100 100 100 100 100 100 42 16 5 0 0 0 8 37 100 100 100 100 100 84 21
5 8 5 5 5 5 5 5 93 5 6 8 62 100 100 100 100 100 100 100 100 100 100 100 97 100 100 100 100 100 100 99 98 8 5 5 2 26 98 91 96 100 98 100 100 100 100
5 5 5 5 5 5 5 5 23 5 97 19 71 90 100 100 100 100 100 100 100 100 100 100 100 100 100 100 100 79 48 22 5 5 5 4 22 100 100 90 100 100 100 100 100 100 100
41 19 93 5 5 5 19 10 41 57 15 26 82 92 100 100 100 100 100 100 100 100 100 100 100 100 100 100 100 100 97 97 28 34 26 82 74 100 100 100 100 100 100 100 100 93 100
5 98 73 5 5 5 10 7 63 84 31 30 100 96 100 100 100 77 100 100 100 100 89 100 100 100 100 100 100 100 84 65 5 5 20 58 100 100 100 100 100 100 100 100 100 100 100
96 9 12 5 6 86 13 4 44 100 97 97 100 5 70 100 100 100 100 100 100 100 100 78 100 100 100 100 100 82 100 17 5 4 4 100 100 100 100 100 100 100 100 100 100 100 100
32 21 5 33 28 92 5 27 100 100 85 93 100 46 14 100 100 100 100 100 100 100 100 100 100 100 100 100 100 100 99 100 44 2 0 6 100 100 100 100 100 100 100 100 100 100 100
26 6 73 99 71 88 10 92 100 20 100 96 100 34 68 100 100 100 100 100 100 100 100 100 100 100 100 100 100 86 33 100 93 7 9 11 100 100 100 100 100 100 100 100 100 100 100
100 54 58 89 100 77 30 100 100 50 28 97 100 5 69 82 100 100 100 100 100 100 100 100 100 100 100 100 100 79 5 6 8 85 99 68 100 100 100 100 100 100 100 100 100 100 100
42 71 100 97 100 100 100 100 100 99 11 98 99 5 30 69 100 100 100 100 100 100 100 100 100 96 83 45 14 74 66 7 5 36 30 73 95 100 100 100 100 100 100 100 100 100 100
29 36 100 100 100 100 83 100 100 100 46 10 7 5 32 19 24 96 100 100 100 100 100 100 94 100 8 23 5 5 1 4 2 65 92 91 100 100 100 100 100 100 100 100 100 100 100
5 29 100 100 100 92 5 100 100 100 97 68 3 38 77 28 5 4 28 100 100 100 100 97 99 90 20 17 34 91 37 2 2 43 34 5 5 63 100 100 100 100 100 100 100 100 100
9 81 100 100 100 100 100 34 79 97 100 87 68 4 88 88 11 4 55 97 62 91 99 59 6 39 5 63 99 100 9 3 1 0 0 0 5 4 96 100 100 100 100 100 100 100 100
89 90 100 100 100 100 100 100 100 85 100 100 65 94 44 100 100 97 14 62 29 65 14 89 32 16 12 85 100 44 71 1 6 37 98 18 17 5 32 86 100 100 100 100 100 96 72
83 100 100 100 100 100 100 100 100 100 98 100 98 100 75 100 100 51 78 38 100 100 95 51 28 78 100 86 100 8 5 1 39 100 100 100 100 98 85 94 97 100 100 100 100 100 100
100 84 100 100 100 100 100 100 100 100 100 100 100 100 100 84 94 45 3 6 41 69 83 99 100 100 100 99 47 86 5 43 100 100 100 100 100 95 48 83 70 100 100 100 100 100 100

GFSGBSN_prec_cloud_084.txt.gz
Cloud_Cover
6 5 20 100 61 4 46 36 62 69 79 100 100 100 100 100 100 100 100 86 18 66 100 100 100 26 100 66 94 6 53 49 100 100 100 100 100 100 100 100 100 100 100 100 100 100 45
5 5 7 78 100 100 70 86 99 88 100 48 87 86 100 100 100 100 100 100 100 89 100 100 53 68 98 100 100 100 99 100 87 100 100 100 100 100 89 100 100 100 100 100 100 100 100
5 100 100 84 100 100 13 29 76 100 100 100 100 100 99 100 100 100 100 100 100 100 100 100 100 100 98 82 98 100 100 79 59 7 95 100 100 100 100 100 100 100 100 100 100 100 100
100 100 100 100 97 28 8 5 5 13 76 97 100 100 100 100 100 100 100 100 100 100 100 100 100 100 100 54 14 100 43 28 49 6 57 87 96 100 100 100 100 100 100 98 100 74 93
100 100 100 100 100 98 91 72 100 14 18 7 57 100 100 100 100 100 100 100 100 100 100 100 100 100 100 100 54 5 6 5 5 12 57 84 36 57 74 99 100 87 94 59 96 29 32
100 100 100 100 100 100 100 100 100 100 100 75 54 82 100 100 100 100 100 100 100 100 100 98 100 100 100 100 100 100 100 44 10 23 63 100 75 49 74 94 96 99 6 2 6 49 79
100 100 100 100 100 100 100 100 100 100 100 86 100 100 100 100 100 100 100 100 100 100 100 100 100 100 99 100 100 100 100 92 59 85 100 100 61 99 100 95 24 5 5 5 5 55 16
100 100 92 21 14 5 5 5 5 4 5 5 5 67 98 100 100 100 100 100 98 100 71 93 100 100 100 100 100 100 68 88 100 100 100 87 100 57 6 19 47 31 5 5 5 5 6
74 24 5 5 4 5 4 5 5 3 5 5 5 40 60 59 93 9 58 60 100 100 87 80 22 32 100 100 100 100 92 94 100 100 100 100 100 100 71 65 50 28 4 5 4 5 43
12 24 8 5 5 5 5 2 1 0 0 5 4 5 5 5 0 5 88 100 100 100 95 100 18 94 51 27 91 100 100 100 100 100 100 60 100 61 24 5 1 1 4 1 0 2 2
8 44 64 5 5 5 5 2 2 5 5 5 5 5 5 21 4 16 25 100 100 100 100 100 100 72 39 100 96 100 100 100 100 100 100 98 65 26 45 5 13 59 5 0 0 0 32
100 17 5 5 5 5 5 5 5 5 5 5 5 5 25 5 17 65 100 100 76 85 67 100 100 100 100 100 100 100 100 100 100 100 100 100 77 28 89 82 57 5 4 2 1 17 84
9 5 5 5 5 5 5 5 5 5 5 1 4 37 5 5 14 95 100 100 98 98 94 100 100 100 100 100 100 100 100 100 100 100 100 100 100 100 100 100 53 5 27 37 100 100 28
10 5 24 5 5 5 5 5 5 1 5 5 5 5 5 0 5 100 100 100 92 79 100 85 48 100 100 100 100 100 100 100 100 100 100 100 100 100 100 62 6 0 26 72 99 69 24
26 61 5 5 5 3 5 5 5 4 3 8 28 5 3 4 5 100 100 100 27 100 100 100 100 100 100 100 100 100 100 100 100 100 100 100 100 100 94 12 5 2 50 93 100 100 97
42 12 5 5 5 0 5 5 3 5 5 9 5 6 2 1 6 100 100 100 100 100 100 100 100 100 100 100 100 100 100 100 100 100 100 100 81 5 5 4 17 5 61 100 100 96 100
8 32 5 5 5 5 5 5 6 2 5 96 13 50 72 89 6 100 100 86 100 100 100 100 100 100 100 100 100 100 100 100 100 100 100 100 100 12 4 4 84 7 100 100 100 100 100
5 5 14 5 5 5 5 5 3 95 59 56 46 98 100 100 11 99 96 100 100 100 100 100 100 100 100 100 100 100 100 97 84 100 100 100 86 32 3 5 100 97 85 100 100 100 96
7 5 5 5 5 5 5 5 42 37 5 48 100 95 100 100 96 100 100 100 100 100 100 100 100 100 100 100 100 100 100 100 46 76 96 67 25 100 65 6 100 100 100 100 100 100 99
5 15 5 5 5 13 53 69 80 38 99 68 100 100 99 100 100 100 100 100 100 100 100 100 100 100 100 100 100 100 100 78 66 69 39 49 40 36 73 56 100 100 100 100 100 100 99
82 5 5 5 5 17 97 54 82 93 51 44 100 50 88 100 100 100 100 100 100 100 100 100 100 100 100 100 100 100 94 100 78 16 98 46 49 35 21 34 100 100 100 100 100 100 100
53 42 9 3 5 46 100 39 53 100 92 65 97 87 54 100 100 100 100 100 100 100 100 100 100 100 100 100 100 100 100 10 87 99 100 88 93 5 5 93 100 100 100 100 100 100 100
5 33 64 34 5 88 100 98 99 100 100 87 70 39 86 71 100 100 100 100 100 100 100 100 100 96 100 100 100 100 92 100 92 94 87 94 100 39 5 100 100 100 100 100 100 100 100
8 88 31 5 5 99 100 88 12 100 100 100 52 62 56 61 68 100 100 100 100 100 100 100 84 100 100 100 100 100 100 100 100 100 15 74 96 35 100 100 100 100 100 100 100 100 100
81 100 5 5 5 100 100 97 26 91 100 100 82 5 87 85 5 100 100 100 100 100 100 100 100 100 100 100 100 100 100 100 100 100 5 1 8 11 26 100 100 100 100 100 100 100 100
100 93 9 8 10 100 100 100 97 81 100 100 100 4 41 97 22 0 87 100 100 100 100 100 100 100 100 100 100 100 27 10 5 5 5 1 0 3 5 20 100 100 100 100 100 100 100
100 5 5 5 64 100 99 100 95 54 88 99 100 87 7 89 8 3 5 36 90 100 100 100 100 100 100 100 100 94 5 5 4 2 0 10 84 7 5 68 83 100 100 100 100 100 100
5 5 5 5 100 100 87 100 100 100 100 100 100 100 8 16 69 5 11 5 13 38 96 66 98 95 90 93 24 73 5 2 0 1 5 13 100 86 78 85 60 100 100 100 100 100 100
5 6 95 100 100 100 99 95 95 100 100 100 100 100 98 100 85 6 5 5 5 100 20 36 100 100 100 100 47 92 47 9 5 75 91 93 85 100 100 4 97 100 100 100 100 100 100

GFSGBSN_prec_cloud_087.txt.gz
Cloud_Cover
94 94 100 96 75 33 36 40 5 5 5 27 69 20 4 7 62 12 51 32 74 100 100 100 100 100 98 18 61 99 100 100 100 100 52 16 99 97 100 100 100 19 92 100 100 100 90
75 100 77 100 18 36 6 54 42 5 6 48 29 100 90 4 7 5 75 25 98 94 100 100 100 100 99 36 47 1 100 100 100 100 100 23 22 38 90 99 100 96 98 100 96 100 100
92 92 16 68 6 5 5 5 42 5 6 41 7 5 3 5 5 5 68 99 100 100 72 100 100 100 99 100 100 9 23 100 100 100 100 100 100 98 34 100 100 100 100 100 100 100 100
87 82 100 11 7 98 5 6 5 5 5 11 5 4 5 2 0 5 57 94 100 100 100 100 80 100 74 100 82 92 82 7 72 98 78 100 100 100 89 93 38 100 92 100 100 100 100
99 77 5 10 81 5 5 13 53 97 100 100 100 100 95 81 6 5 4 16 100 100 100 100 100 99 57 100 100 34 46 100 5 29 96 64 85 39 20 5 21 5 91 96 100 100 100
76 11 5 5 100 8 17 24 11 4 8 1 2 8 91 100 100 40 5 5 23 87 100 100 100 100 100 100 100 100 100 100 100 63 41 10 32 5 5 5 30 79 100 100 84 79 6
5 5 21 62 5 17 19 5 2 3 0 3 3 0 3 5 1 12 100 38 10 99 100 100 100 100 100 100 100 100 100 100 100 97 100 100 2 1 72 81 5 4 3 5 100 100 100
5 92 100 8 5 16 5 5 5 0 0 0 0 0 0 0 0 0 2 100 100 100 100 95 100 100 100 100 100 100 100 100 100 100 100 100 39 98 80 6 5 5 60 100 100 100 93
95 72 94 47 9 22 5 5 1 2 0 0 3 0 0 0 0 0 8 87 100 100 89 96 100 100 100 100 100 100 100 100 100 100 100 100 100 100 82 91 25 18 91 100 52 34 23
30 6 8 5 5 5 3 4 4 4 5 1 0 5 1 0 0 0 2 46 100 100 89 87 98 100 100 100 100 100 100 100 100 100 100 71 100 100 100 100 100 90 100 100 99 43 5
15 100 30 5 5 1 0 5 4 3 5 5 4 1 5 5 40 3 0 27 100 99 53 4 72 100 100 100 100 100 100 100 100 100 88 100 100 100 89 100 83 100 100 99 75 64 15
98 45 5 5 5 4 5 5 4 5 2 5 5 2 3 4 3 1 5 24 99 62 36 0 5 6 100 100 100 100 91 73 71 100 100 100 100 100 100 100 100 100 100 88 33 5 38
78 5 5 6 5 1 4 5 5 5 5 0 5 4 4 23 52 2 5 32 92 100 32 42 5 5 98 100 100 100 100 100 90 100 75 100 100 100 100 100 100 100 60 8 40 96 5
10 36 5 5 5 5 5 5 5 5 2 4 5 1 0 0 0 48 17 100 95 3 100 98 100 81 31 100 100 100 100 100 75 71 100 100 100 100 100 100 100 100 100 30 13 98 98
81 88 4 5 5 5 4 5 5 4 1 3 2 0 14 3 73 95 53 100 12 100 100 100 100 100 100 52 99 100 100 100 97 9 94 100 100 100 100 100 100 100 93 60 50 31 65
100 14 5 5 5 5 5 5 5 1 0 3 6 36 7 3 5 12 97 95 100 100 100 100 100 100 100 100 100 100 100 100 100 100 100 100 100 100 100 100 63 96 62 72 99 100 61
13 83 5 5 5 5 5 5 3 5 5 5 6 98 33 41 40 81 85 80 100 100 100 100 100 100 100 100 100 100 100 100 100 100 100 100 100 100 100 100 100 100 84 50 91 100 100
16 5 5 5 5 5 5 3 0 5 44 5 42 75 46 100 100 90 65 34 100 100 100 100 100 100 100 100 100 98 100 100 100 100 100 100 100 100 100 100 100 100 96 100 100 73 100
69 96 5 8 27 5 4 3 5 70 77 9 89 81 100 100 100 69 5 100 100 100 100 100 100 100 100 100 100 100 100 100 100 100 100 100 100 100 100 100 99 99 79 99 100 100 100
100 52 17 18 5 5 5 5 29 100 66 33 99 100 100 100 100 100 45 100 100 100 100 100 100 100 100 100 100 100 100 100 100 100 100 100 100 100 100 99 84 100 100 100 84 100 100
100 19 37 5 80 9 5 5 100 100 95 89 89 96 100 100 100 100 100 100 100 100 100 100 100 100 100 100 100 84 100 100 100 100 100 100 100 100 100 5 31 7 49 72 100 100 100
100 97 34 2 5 6 5 5 99 100 98 100 86 90 100 100 100 100 100 100 100 100 100 100 100 100 100 100 100 100 100 100 100 100 100 100 100 100 100 25 5 5 88 75 100 100 100
100 25 5 42 5 5 5 5 100 100 100 100 100 92 46 55 100 100 100 100 100 97 100 100 100 100 100 100 100 100 100 100 100 100 100 99 100 100 53 13 5 5 91 100 99 100 100
24 5 29 80 5 5 22 74 100 100 95 100 100 100 100 61 68 100 100 100 100 100 100 100 100 100 100 100 100 100 100 100 87 100 86 95 69 54 82 17 5 13 97 99 100 100 100
5 20 100 67 5 10 68 33 100 100 96 100 100 100 91 76 39 100 100 100 100 100 100 100 100 100 100 100 100 100 100 100 96 8 18 6 5 63 52 7 5 67 85 72 100 100 100
7 100 100 93 5 31 46 5 100 100 73 100 100 100 96 39 8 98 100 100 100 100 100 100 100 100 100 100 100 100 100 100 100 100 5 5 5 5 98 54 13 100 78 93 100 100 100
7 100 100 63 5 5 34 31 100 100 95 100 100 100 100 86 5 14 100 100 100 100 100 100 100 100 100 100 100 100 100 100 100 98 38 26 41 81 75 82 7 99 31 100 73 100 100
100 84 5 5 5 5 33 65 100 100 90 100 100 100 100 78 77 5 12 100 100 100 100 100 100 100 100 100 100 100 100 54 100 100 99 18 66 60 85 98 72 100 8 100 47 96 100
100 21 5 5 5 100 73 96 100 100 97 100 100 100 100 100 87 7 5 0 4 62 98 100 100 100 100 100 100 99 92 28 38 30 6 12 84 100 100 100 65 40 98 97 100 89 100

GFSGBSN_prec_cloud_090.txt.gz
Cloud_Cover
100 100 100 100 100 100 100 100 100 85 95 55 32 5 3 0 3 2 0 0 5 0 0 1 0 20 70 20 100 100 100 100 100 100 100 100 98 98 43 36 46 83 72 99 100 100 100
100 100 100 100 100 100 100 100 100 100 100 100 18 6 6 4 0 0 0 0 0 3 3 0 4 36 91 66 100 100 91 100 100 100 100 16 97 100 97 10 79 10 100 47 100 100 100
100 100 100 100 100 100 87 39 10 56 100 94 5 89 3 4 0 0 0 0 0 0 0 0 32 99 82 52 100 100 79 100 100 100 72 50 49 77 100 100 26 80 6 54 100 95 100
100 100 100 100 100 94 37 30 30 5 5 0 0 2 0 0 0 0 0 0 3 0 0 18 78 100 30 97 100 100 95 91 100 100 100 79 7 5 5 92 80 97 99 8 100 100 100
100 97 100 100 90 5 35 23 5 5 0 0 4 2 0 0 0 0 0 0 0 0 2 0 78 96 24 100 100 100 100 100 100 100 100 100 68 10 5 29 20 70 27 100 100 100 83
100 41 23 5 5 5 5 5 2 5 3 0 0 0 0 0 0 0 0 0 0 0 0 5 79 53 71 100 100 100 100 100 100 100 100 100 86 19 5 4 47 38 99 100 100 100 22
100 5 5 31 9 4 1 4 5 3 0 2 0 20 3 0 0 0 0 0 18 4 4 4 6 63 11 83 100 100 100 100 100 100 100 100 68 5 5 100 100 100 8 2 0 5 0
97 31 45 13 5 48 63 99 5 2 0 3 0 0 19 7 0 0 0 23 100 99 100 4 4 4 12 100 99 100 100 100 100 100 100 100 11 51 100 100 64 27 15 5 5 37 3
88 5 5 5 5 8 77 5 35 5 5 2 4 0 0 0 0 0 0 2 48 100 100 8 0 1 100 35 100 100 100 100 100 100 100 100 100 100 95 100 88 86 96 5 6 5 0
100 8 45 30 14 5 8 4 4 5 4 0 5 0 4 4 0 8 0 0 15 98 100 2 0 0 9 92 95 100 100 100 100 100 100 100 100 100 100 100 100 100 100 100 57 4 4
84 100 99 7 5 5 5 5 5 5 5 3 3 1 5 0 94 71 0 0 12 40 100 0 2 0 0 100 94 100 100 100 100 100 100 100 100 100 100 100 100 100 100 97 95 40 28
100 87 14 5 6 5 5 5 5 5 4 3 4 5 5 1 13 2 0 0 5 100 35 2 100 100 3 93 100 100 100 100 100 100 100 100 100 100 100 100 100 100 100 97 70 81 54
98 100 57 5 5 5 5 5 4 5 4 5 5 4 2 0 12 0 2 2 80 100 0 2 100 100 86 16 100 100 100 100 100 100 100 100 100 100 100 100 100 100 100 100 100 100 58
96 12 14 30 5 5 5 5 5 5 5 5 5 0 0 0 0 0 21 29 98 2 3 26 100 100 93 18 55 100 100 100 100 100 100 100 100 100 100 100 100 100 100 100 100 90 5
100 100 100 8 6 5 5 5 5 5 5 4 0 0 1 5 8 32 69 89 10 2 96 98 100 100 100 100 100 100 100 100 100 100 100 100 100 100 100 96 96 100 100 100 100 100 100
100 100 16 6 5 20 2 1 5 5 5 0 2 49 4 4 6 72 72 21 5 92 100 100 100 100 100 100 100 100 100 100 100 100 100 100 100 100 100 99 89 100 67 100 100 100 100
100 87 99 5 18 11 5 2 5 5 5 0 4 16 5 5 60 100 97 9 1 11 100 100 100 100 100 100 100 100 100 100 100 100 100 100 100 100 100 100 100 92 100 100 100 100 72
100 10 5 5 22 10 5 2 4 6 5 5 61 58 1 27 93 100 94 5 0 5 100 100 100 100 100 100 100 100 100 100 100 100 100 100 100 100 100 100 100 100 100 100 100 100 97
100 59 100 14 10 31 4 0 4 74 5 5 22 43 5 87 100 100 16 5 5 62 100 100 100 100 100 100 100 100 100 100 100 100 100 100 100 100 100 100 100 100 100 100 100 100 96
100 100 97 5 38 5 4 4 5 68 13 36 49 45 5 95 92 99 100 66 30 100 100 100 100 100 100 100 100 100 100 100 100 100 100 100 100 100 100 100 100 100 100 100 70 94 59
77 99 84 8 85 32 7 5 5 100 94 99 76 51 59 69 97 100 100 100 100 100 100 100 100 100 100 100 100 100 100 100 100 100 100 100 100 100 100 100 100 100 100 97 6 38 70
100 100 100 15 26 4 1 5 5 62 98 99 98 76 60 13 5 100 100 100 100 100 100 100 100 100 100 100 100 100 100 100 100 100 100 100 100 100 100 100 100 100 100 5 5 46 5
100 100 100 7 5 32 5 4 5 96 100 100 100 98 87 27 46 78 94 100 100 100 100 100 100 100 100 96 76 100 100 100 100 100 100 100 100 100 100 100 57 100 49 5 5 5 74
100 99 5 5 41 100 5 5 49 100 100 99 100 100 98 40 5 5 38 83 98 100 100 100 100 96 100 100 99 78 100 100 100 100 100 100 100 100 100 100 98 100 34 5 5 5 10
100 26 7 79 100 14 5 34 100 100 100 93 100 100 100 91 5 5 63 100 100 100 100 100 100 100 100 100 100 100 100 100 100 100 100 100 100 100 100 100 100 100 100 46 5 0 7
88 5 6 100 100 75 5 6 100 99 100 100 100 100 100 70 8 5 12 98 100 100 100 100 100 100 100 100 100 100 100 100 100 100 100 100 86 83 100 100 100 100 100 92 5 5 31
100 5 7 100 97 10 5 5 67 91 100 100 100 100 100 100 5 30 5 45 92 82 100 100 100 100 100 100 100 100 100 100 99 99 100 100 99 100 100 100 96 100 100 12 0 57 91
5 20 92 100 61 4 4 5 54 98 100 100 100 100 100 86 52 46 5 70 28 100 100 100 100 100 100 100 100 89 24 21 72 80 59 67 100 99 100 100 100 100 97 92 56 100 98
5 66 100 96 5 5 5 5 67 76 100 100 100 100 100 100 59 15 5 20 5 50 100 100 100 100 99 86 100 100 100 58 93 73 8 40 83 93 66 91 100 99 100 100 100 100 100

GFSGBSN_prec_cloud_093.txt.gz
Cloud_Cover
100 100 100 100 100 100 100 100 100 100 58 46 33 94 100 100 95 99 72 27 13 5 2 1 0 16 82 18 4 9 3 9 84 100 97 100 100 54 66 7 18 5 7 5 97 71 95
100 100 100 100 100 100 100 100 100 100 100 100 100 100 97 37 83 80 73 5 5 3 0 0 6 90 99 42 1 5 5 6 81 100 100 100 100 100 54 13 45 24 50 5 23 100 40
100 100 100 100 100 98 30 16 5 9 64 35 24 87 96 32 5 5 1 0 0 0 0 2 99 100 100 0 0 1 77 63 40 63 100 100 100 100 100 53 88 100 100 100 22 9 74
100 100 99 89 7 88 93 75 9 29 19 3 0 0 4 0 0 0 0 0 0 0 0 3 78 100 68 0 0 0 8 50 97 98 100 100 100 100 8 99 100 93 34 2 51 88 67
100 100 99 54 100 100 100 100 73 25 7 0 0 0 0 0 0 0 0 0 0 0 0 0 19 96 24 0 0 4 0 8 100 100 100 100 100 100 80 6 100 100 72 12 63 100 100
100 56 100 100 100 100 100 66 24 4 1 4 2 5 5 5 0 0 0 0 0 0 0 1 84 83 0 0 0 5 3 9 100 100 100 100 100 100 97 77 11 100 100 100 93 55 45
100 100 25 100 100 100 100 100 67 0 5 34 5 5 3 5 0 0 0 0 2 0 0 5 2 1 0 0 0 2 5 100 100 100 100 100 100 85 92 100 100 100 80 86 21 5 5
100 100 100 100 100 100 100 76 8 5 5 5 1 4 4 4 0 0 0 2 43 92 95 4 2 0 0 0 0 0 68 100 100 100 100 100 100 100 100 100 100 92 5 9 90 57 5
100 100 100 100 100 84 86 100 26 5 5 5 5 5 5 5 0 0 16 0 1 33 100 8 0 0 0 1 0 0 99 100 100 100 100 100 100 100 100 100 100 100 79 64 28 48 29
100 100 100 100 100 100 100 31 5 5 5 5 5 5 5 5 2 1 0 0 0 24 100 2 0 66 15 0 14 0 58 100 100 99 100 100 100 100 100 100 100 100 100 100 96 78 100
100 100 100 100 100 100 38 5 5 5 5 5 5 5 3 0 1 1 0 0 0 84 37 0 0 100 100 68 0 0 43 50 100 100 100 100 100 100 100 100 100 100 100 100 83 72 99
100 100 100 100 100 100 19 5 5 5 5 5 4 1 2 0 0 0 0 0 3 56 23 0 7 86 100 76 50 0 5 40 100 100 100 100 100 100 100 100 100 100 100 100 90 100 67
100 100 100 98 95 82 5 3 5 5 5 5 0 0 0 0 2 0 0 1 14 51 0 3 22 89 100 58 91 4 25 100 100 100 100 100 100 100 100 100 100 100 100 100 97 95 95
100 100 100 100 72 47 5 5 5 5 5 2 0 0 0 3 5 0 60 5 59 0 10 5 18 100 100 100 82 74 84 90 100 100 100 100 100 100 100 100 100 100 100 100 100 100 22
100 100 100 99 19 5 2 3 5 5 5 0 0 0 0 2 4 18 5 24 2 13 99 82 98 100 100 97 100 100 94 100 100 100 100 100 100 100 100 100 97 100 100 100 100 10 89
100 100 98 8 5 5 43 4 5 5 4 0 0 15 1 1 6 33 58 12 3 1 97 75 100 100 100 100 100 100 99 100 100 100 100 100 100 100 100 100 100 100 100 100 95 97 100
100 100 99 100 5 53 5 5 4 5 5 0 1 5 4 5 10 89 77 68 11 0 11 100 100 100 100 100 100 100 100 100 100 100 100 100 100 100 100 100 100 100 100 100 100 100 100
100 100 46 5 5 7 5 5 5 5 5 4 41 5 0 5 22 47 94 100 5 0 60 100 100 100 100 100 100 100 100 100 100 100 100 100 100 100 100 100 100 100 100 100 99 56 86
100 100 9 100 5 44 5 5 5 5 5 5 43 5 0 62 69 64 33 35 69 7 100 100 100 100 100 100 100 100 100 100 100 100 100 100 100 100 100 100 100 100 99 29 71 88 96
100 100 66 100 42 84 5 5 5 5 8 5 16 5 4 75 62 50 91 86 86 91 100 100 100 100 100 100 100 100 100 100 100 100 100 100 100 100 100 100 100 100 100 35 6 32 8
100 100 93 100 100 92 40 10 3 16 22 21 46 18 37 80 7 6 84 66 100 100 100 100 100 100 100 100 100 100 100 100 100 100 100 100 100 100 99 86 100 100 100 47 5 14 100
100 100 100 100 100 83 11 5 2 17 35 100 81 71 82 69 5 5 80 100 100 100 100 100 100 100 100 100 100 100 100 100 100 100 100 100 100 100 97 74 92 100 33 97 9 74 100
100 100 100 100 99 100 84 5 0 41 94 95 100 100 99 6 5 5 5 23 98 100 100 100 100 100 100 100 100 100 100 100 100 100 100 100 100 100 96 82 100 100 100 100 100 100 100
100 100 100 100 100 93 97 5 5 68 92 98 97 100 100 84 6 5 5 5 68 100 100 100 100 100 100 82 100 100 100 100 100 100 100 100 100 100 84 100 100 100 100 100 100 100 96
100 100 100 100 100 100 96 4 7 88 80 100 99 100 100 84 5 5 3 58 38 100 100 100 100 100 100 100 100 100 100 100 100 50 100 75 100 100 100 100 100 100 100 100 100 75 46
100 100 100 100 100 100 83 5 5 60 66 100 87 100 100 90 2 5 5 32 69 100 100 100 100 100 47 100 97 100 100 100 100 100 100 100 100 100 100 100 100 100 99 98 18 96 88
100 100 100 100 99 94 5 5 5 5 49 100 100 100 100 98 5 5 5 5 53 100 100 100 92 100 100 75 55 75 96 100 100 100 100 100 100 100 100 100 100 100 22 5 5 30 100
100 100 100 38 42 99 10 0 5 5 17 99 100 83 100 68 5 5 5 5 5 93 100 100 100 100 100 100 100 100 100 100 100 100 100 100 100 100 100 100 100 100 7 30 77 100 100
98 95 8 6 100 95 40 2 1 5 5 89 100 100 100 100 50 5 5 3 5 19 95 100 100 100 100 100 100 100 100 100 100 100 100 100 100 100 100 100 100 100 100 100 100 100 100

GFSGBSN_prec_cloud_096.txt.gz
Cloud_Cover
100 100 100 100 100 100 100 100 100 100 100 100 100 100 70 15 52 0 12 9 64 5 3 100 100 100 84 48 93 1 1 5 4 0 0 12 24 20 5 0 4 0 18 5 38 92 5
100 100 100 100 100 100 100 100 100 91 97 15 8 5 4 4 0 0 2 0 0 0 0 0 16 100 49 36 35 0 0 0 0 0 3 12 99 85 34 4 1 0 0 9 14 44 10
100 100 100 100 100 100 100 100 100 92 94 5 2 52 5 5 0 0 0 0 0 0 0 0 47 100 34 0 0 0 0 0 0 0 2 60 98 100 5 24 5 3 3 0 6 81 59
100 100 100 100 100 100 100 100 94 100 100 69 18 2 5 4 2 0 0 0 0 0 0 0 0 100 6 0 0 0 0 0 0 0 0 100 100 100 36 78 25 8 5 5 11 5 34
100 100 100 100 100 100 98 100 100 98 13 22 47 29 2 5 4 1 3 0 0 0 0 0 9 82 0 0 0 0 0 0 0 0 0 89 60 100 99 66 93 74 5 5 5 35 100
100 100 100 100 100 100 79 63 37 20 92 82 23 30 5 5 5 1 0 0 0 0 10 0 32 46 0 0 0 0 0 0 0 0 0 2 21 56 100 89 11 56 63 92 81 100 100
100 100 100 100 86 92 77 100 76 100 13 5 5 5 4 5 0 0 0 0 0 0 0 0 0 0 0 0 0 0 0 0 0 0 0 5 68 2 21 100 100 100 100 100 100 100 100
100 100 100 100 100 75 71 92 100 100 93 6 4 3 5 0 0 0 0 2 47 86 74 0 0 0 0 3 8 0 0 0 0 0 3 33 0 33 100 100 100 100 100 100 100 30 100
100 100 100 100 100 100 99 32 100 100 78 12 5 4 5 3 0 0 2 5 5 37 37 0 0 0 33 39 6 0 0 0 1 0 0 93 74 100 100 100 100 100 99 100 100 100 100
100 100 100 100 100 100 97 100 100 100 100 43 5 4 0 0 2 1 1 0 5 62 44 0 0 61 30 100 64 1 0 0 2 0 0 100 100 100 100 97 100 100 100 100 100 100 100
100 100 100 100 100 100 100 100 100 100 98 5 5 2 0 0 5 1 0 3 0 98 4 0 9 22 75 100 87 84 0 0 5 4 29 100 100 100 100 100 100 100 100 100 100 100 99
100 100 100 100 100 100 100 100 100 97 5 2 2 0 0 5 5 4 0 0 28 78 41 0 7 100 99 100 94 72 5 0 2 67 51 100 100 100 100 100 100 100 100 100 100 100 100
100 100 100 100 100 100 100 100 77 45 3 0 0 0 0 0 4 0 0 5 26 42 12 41 92 2 99 100 34 99 26 0 4 67 97 100 100 100 100 100 100 100 100 100 100 100 100
100 100 100 100 100 100 100 44 5 5 0 0 0 0 0 1 0 19 2 14 5 5 45 7 4 100 100 100 91 100 5 6 98 100 100 100 100 100 100 100 100 100 100 100 100 100 100
100 100 100 100 100 100 71 22 4 0 0 0 0 0 4 2 0 27 41 62 4 6 7 1 31 100 100 100 100 100 89 96 100 100 100 100 100 100 100 100 100 100 100 100 100 100 100
100 100 100 100 100 89 8 5 2 1 0 0 5 3 3 0 4 92 92 66 99 99 21 31 100 100 100 100 100 99 100 100 100 100 100 100 100 100 100 100 100 100 100 100 100 100 100
100 100 100 100 73 5 5 5 5 0 0 0 5 2 3 1 70 97 96 93 82 72 90 100 100 100 100 100 100 99 100 100 100 100 100 100 100 100 100 100 100 100 100 100 100 100 100
47 100 100 100 9 5 5 5 5 4 1 0 5 2 0 21 74 68 100 100 92 94 100 100 100 100 100 100 100 100 100 100 100 100 100 100 100 100 100 100 100 100 100 100 100 100 100
100 100 97 94 100 5 5 5 5 5 5 8 8 3 1 66 16 16 39 93 100 100 100 100 100 100 100 100 100 100 100 100 100 100 100 100 100 100 100 100 100 100 100 100 100 100 100
100 100 82 23 100 49 7 5 5 5 5 5 14 14 10 13 48 86 21 71 87 100 100 100 100 100 100 100 100 100 100 100 100 100 100 100 100 100 100 100 100 100 100 100 100 100 100
100 97 78 96 100 80 16 5 5 5 5 39 15 40 10 64 60 55 11 45 96 97 80 100 100 100 100 100 100 100 100 100 100 100 100 100 100 100 100 100 100 100 100 100 100 72 50
100 100 100 100 99 84 58 24 11 19 22 27 71 75 91 76 85 16 5 37 57 100 88 100 100 100 100 100 100 100 100 100 100 100 100 100 100 100 100 100 100 100 100 100 87 54 25
100 100 100 100 100 100 26 62 82 81 22 98 70 36 46 44 23 5 4 0 42 98 100 100 100 100 100 100 100 100 100 100 100 100 100 100 100 100 100 100 100 100 99 100 31 7 28
100 100 100 100 100 95 99 88 100 69 60 99 92 68 98 80 82 5 4 0 42 76 87 100 100 100 100 100 100 100 100 100 100 100 100 100 100 100 100 100 100 61 35 80 45 65 62
100 100 100 100 100 99 96 100 100 100 100 91 100 61 82 94 48 4 5 4 27 32 100 100 100 74 100 100 92 100 100 100 100 100 100 100 83 97 88 98 89 83 91 53 26 58 77
100 100 100 100 100 100 100 100 100 100 100 70 97 100 96 80 77 5 5 5 5 100 51 100 100 100 42 100 36 100 100 100 93 100 100 100 100 100 100 100 100 99 99 100 100 100 100
100 100 100 100 100 100 100 100 100 100 98 82 100 100 100 100 32 5 96 6 5 33 100 100 100 92 59 100 98 99 100 97 90 100 100 100 100 100 100 100 90 90 48 93 100 75 100
100 100 100 100 100 100 100 100 100 100 15 61 100 100 97 96 70 21 5 25 62 50 86 100 100 75 98 100 99 99 95 98 100 100 100 100 100 100 100 100 100 100 59 99 100 100 100
100 100 100 100 100 100 100 100 100 65 5 80 100 100 100 100 99 57 9 5 5 8 21 100 57 48 100 100 87 100 100 99 100 100 100 100 84 100 100 100 100 100 100 100 100 100 100

GFSGBSN_prec_cloud_099.txt.gz
Cloud_Cover
93 100 100 100 100 100 100 100 100 100 100 100 100 97 20 94 100 90 61 5 0 0 0 0 0 6 1 0 3 0 0 0 0 80 100 100 100 100 100 99 28 0 0 0 0 25 41
93 100 100 100 100 100 100 100 100 100 100 100 100 100 100 81 100 77 5 1 5 5 0 0 0 17 2 0 0 0 0 0 0 0 99 100 100 90 34 7 9 8 4 2 0 1 16
100 100 100 100 100 100 100 100 100 100 100 100 93 54 99 100 100 79 13 4 1 0 0 5 5 2 1 0 0 0 0 0 0 0 0 24 100 8 6 33 37 5 6 4 0 4 7
100 100 100 100 100 100 100 100 100 100 100 100 96 96 7 71 77 39 4 0 0 0 0 0 0 1 4 0 0 0 0 0 0 0 0 0 0 0 0 0 5 5 41 4 5 5 16
100 100 100 100 100 100 99 100 90 89 100 12 100 97 5 5 10 17 0 0 4 4 0 0 2 54 3 0 0 0 0 0 2 1 0 0 0 0 0 3 17 94 9 3 8 12 32
100 100 100 100 99 100 100 100 34 20 7 90 100 49 5 60 50 0 4 4 5 3 0 0 4 54 0 0 0 0 3 4 1 43 11 0 0 0 0 5 9 11 92 97 100 100 100
100 100 100 100 87 100 76 99 86 88 60 5 5 7 36 5 1 0 4 5 2 0 0 0 0 0 0 0 0 0 0 0 30 97 69 0 0 0 0 0 0 100 100 100 100 100 100
100 100 100 100 100 100 76 59 100 56 84 14 100 67 5 4 5 11 0 0 5 2 20 0 0 0 0 0 0 0 23 0 0 1 100 5 0 0 0 24 90 100 100 100 100 100 100
100 100 100 100 100 99 100 100 100 100 90 100 100 99 14 5 5 1 0 0 2 13 37 0 0 0 81 42 6 5 14 2 0 0 66 90 0 0 5 77 100 100 100 100 100 100 100
100 100 100 100 100 100 100 100 100 100 100 100 100 100 100 19 2 5 0 0 5 32 40 0 86 49 93 64 32 39 22 2 0 5 100 96 42 83 6 95 94 100 100 100 100 100 100
100 100 100 100 100 100 100 100 100 98 45 100 100 57 5 5 5 3 0 2 5 19 6 2 94 58 87 100 27 90 74 39 0 5 100 99 100 100 100 100 100 100 100 100 100 100 100
100 100 100 100 100 100 100 94 100 98 100 100 100 14 5 4 5 3 3 3 47 96 95 67 32 58 1 8 100 97 86 46 0 64 55 100 25 93 20 97 100 100 100 100 100 100 94
100 100 100 100 100 100 100 100 100 100 98 100 42 5 4 4 2 4 4 8 99 100 38 84 83 2 45 100 96 29 89 5 0 53 98 58 68 91 51 100 100 100 100 100 100 100 100
100 100 100 100 100 100 100 100 100 100 63 98 5 5 2 5 4 5 2 98 100 100 100 71 50 92 100 100 100 100 98 5 0 99 96 54 100 89 100 100 100 100 99 100 100 100 100
100 100 100 100 100 100 100 100 100 100 80 5 3 3 5 5 5 4 30 35 5 82 39 80 100 100 100 100 100 100 62 53 0 60 100 100 100 100 100 100 100 100 100 100 100 100 100
100 100 100 100 100 100 100 100 100 100 72 6 5 0 4 4 5 5 88 30 18 74 60 100 100 100 100 100 100 99 82 43 96 100 100 99 100 100 100 100 100 100 100 100 100 100 100
100 100 100 100 100 100 100 100 99 76 5 5 5 4 0 2 34 81 70 31 41 22 73 71 100 100 100 100 100 100 100 91 98 98 100 100 100 100 100 100 100 100 100 100 100 100 100
100 100 100 100 100 98 100 100 100 36 0 5 5 29 1 5 94 59 56 37 22 49 53 94 100 100 100 100 100 100 99 97 38 95 100 100 100 100 100 100 100 100 100 100 100 100 100
100 100 100 100 100 100 100 100 100 52 0 5 5 3 3 5 22 8 5 98 69 42 59 76 98 100 100 100 100 100 100 100 99 76 100 100 100 100 100 100 100 100 100 100 100 100 100
100 100 100 99 100 54 40 83 96 5 1 7 15 62 52 7 38 51 30 44 77 87 56 87 99 100 100 100 100 100 100 100 100 100 100 100 100 100 100 100 100 100 100 100 100 100 100
100 100 100 73 100 94 52 75 22 5 5 39 28 41 5 62 58 6 47 72 88 80 97 99 97 99 100 100 100 100 100 99 100 100 100 100 100 100 100 100 100 100 100 100 100 100 100
100 100 100 87 100 96 28 98 51 8 5 87 79 73 8 6 5 5 56 49 5 5 58 82 97 100 100 100 100 100 100 100 100 100 100 100 100 100 100 100 100 100 100 100 100 100 100
100 100 100 100 100 82 6 5 6 5 32 100 79 52 74 5 5 5 53 3 0 5 37 90 100 98 100 100 100 100 100 100 100 100 100 100 100 100 100 100 100 100 100 100 100 100 100
100 100 100 100 100 82 92 76 9 5 14 83 82 98 100 58 17 5 0 0 0 0 10 48 92 96 100 100 100 100 100 100 100 100 100 100 100 100 100 100 100 100 100 100 100 100 100
100 100 100 100 100 99 47 65 33 25 5 98 93 85 100 98 90 40 5 5 5 5 74 7 95 100 100 100 100 100 100 100 100 100 100 100 100 100 100 100 100 100 100 100 100 100 100
100 100 100 100 100 100 96 94 98 52 39 90 95 80 74 74 93 0 9 43 49 16 5 37 100 100 100 100 100 100 100 100 100 100 100 100 100 100 100 100 100 100 100 100 100 100 100
100 100 100 100 100 100 76 100 100 91 100 100 99 99 99 98 95 18 98 90 96 29 5 15 100 75 100 69 100 100 100 100 100 100 100 100 100 100 78 87 88 99 98 77 75 100 100
100 100 100 100 100 100 100 100 94 99 100 100 100 100 100 96 78 88 97 98 100 100 100 88 90 88 95 100 98 100 100 100 100 72 100 100 100 100 98 84 99 97 91 82 100 100 100
100 100 100 100 100 100 100 100 100 100 100 100 100 100 100 100 43 38 8 5 8 82 88 100 38 99 100 96 90 98 100 100 100 100 83 100 100 100 94 100 100 100 100 100 100 100 100

GFSGBSN_prec_cloud_102.txt.gz
Cloud_Cover
78 100 100 100 100 100 100 100 100 100 100 100 100 100 100 100 100 100 100 100 94 53 68 77 5 1 2 7 1 0 0 0 0 0 1 2 0 0 0 0 0 0 14 100 100 89 5
100 100 100 100 87 51 53 100 100 100 100 100 100 100 100 100 100 80 29 32 27 5 8 0 1 0 3 5 0 0 0 0 0 0 0 0 0 0 0 0 0 0 0 60 100 96 86
100 100 100 100 100 97 98 100 100 100 100 100 100 100 100 100 100 100 100 100 100 6 2 0 0 0 2 0 0 0 0 0 4 0 0 0 0 0 0 0 0 0 0 0 75 99 100
100 100 100 100 100 100 100 100 99 100 100 100 100 100 100 79 19 18 52 100 34 10 100 3 0 0 0 0 0 0 0 0 0 0 0 0 0 0 0 0 0 0 5 2 0 98 100
100 100 100 100 100 100 100 100 71 100 100 56 70 100 99 26 98 72 5 4 2 5 4 0 1 2 0 0 0 0 0 2 0 1 0 0 0 0 0 0 1 0 4 5 0 17 100
100 100 100 100 100 100 100 100 100 100 100 100 100 69 6 23 8 5 1 1 0 0 0 18 5 3 0 0 0 0 0 0 32 5 3 16 36 0 0 2 8 0 5 5 4 67 100
100 100 100 100 100 100 100 100 100 100 100 100 100 100 18 5 4 5 5 5 2 4 3 5 0 0 0 0 0 0 0 0 0 0 1 5 100 44 0 0 0 0 5 6 48 35 100
100 100 100 100 100 100 100 100 100 100 100 100 100 99 8 5 23 50 5 5 0 0 0 10 0 0 13 0 1 4 40 78 71 2 0 1 16 98 0 0 0 0 99 94 44 23 88
100 100 100 100 100 100 100 100 100 100 100 100 98 64 6 59 97 96 67 1 0 1 0 0 0 0 75 81 100 13 58 70 53 100 22 0 3 54 10 0 0 2 48 3 31 100 100
100 100 100 100 100 100 100 100 100 100 100 100 87 100 100 100 100 9 5 5 5 2 15 0 54 3 36 99 81 14 100 97 67 97 76 2 40 88 96 0 20 7 46 28 96 83 100
100 100 100 100 100 100 100 100 100 100 100 100 100 100 100 97 36 98 5 5 5 6 35 0 0 0 0 30 6 3 0 73 40 10 17 0 5 2 100 1 14 98 100 100 81 40 100
100 100 100 100 100 100 100 100 100 100 100 100 100 100 100 14 69 92 5 2 15 61 12 0 0 0 34 79 35 46 58 19 72 70 4 16 100 91 100 87 30 99 87 38 79 20 100
100 100 100 100 100 100 100 100 100 100 100 100 100 97 95 76 21 5 4 4 69 17 0 0 0 17 20 35 40 100 100 100 98 20 31 99 29 7 100 98 100 47 75 100 98 100 42
100 100 100 100 100 100 100 100 100 100 100 100 100 100 99 71 60 7 5 5 0 0 16 70 2 58 98 96 56 100 87 36 40 1 100 61 99 63 1 17 16 7 36 23 19 24 100
100 100 100 100 100 100 100 100 100 100 100 100 100 98 81 84 83 20 8 5 6 5 1 0 3 5 92 93 99 92 91 38 100 96 100 100 100 55 99 88 4 31 92 95 100 100 100
100 100 100 100 100 100 100 100 100 100 100 100 95 90 76 47 6 2 18 28 5 5 2 3 27 5 96 84 93 96 100 83 14 100 100 100 100 100 100 77 72 100 100 100 100 100 100
100 100 100 100 100 100 100 100 100 100 100 100 87 96 12 1 3 11 30 5 5 42 30 32 5 86 94 100 100 100 94 100 40 100 100 100 100 55 100 100 100 100 100 100 100 100 100
100 100 100 100 100 100 100 100 100 100 100 100 13 45 3 0 84 12 5 20 40 86 60 99 58 87 84 80 100 100 100 100 74 100 100 100 99 100 100 100 100 100 100 100 100 100 100
100 100 100 100 100 100 100 100 100 99 100 100 61 5 4 0 25 5 5 72 76 34 75 68 86 83 93 100 100 100 66 100 100 39 64 100 100 100 100 100 100 100 100 100 100 100 100
100 100 100 100 100 100 100 100 100 100 100 32 10 16 38 28 6 1 3 68 60 44 5 66 89 81 100 81 92 100 100 100 97 95 100 100 100 100 100 100 100 100 100 100 100 100 100
100 100 100 100 100 100 100 100 100 100 6 64 18 14 5 52 77 11 19 25 66 36 58 99 42 100 100 67 97 100 100 100 100 98 100 100 100 100 100 100 100 100 100 100 100 100 100
100 100 100 100 100 100 100 100 63 21 49 66 86 65 26 4 5 5 37 38 6 5 54 99 99 100 93 100 61 100 100 100 100 100 100 100 100 100 100 100 100 100 100 100 100 100 100
100 100 100 100 100 100 96 75 94 93 18 50 5 5 1 27 28 21 81 5 4 5 3 60 74 97 99 100 100 100 100 100 100 100 100 100 100 100 100 100 100 100 100 100 100 100 100
100 100 100 100 100 100 66 98 74 52 67 69 81 11 42 32 27 64 6 3 5 5 1 3 10 19 98 100 100 100 100 100 100 100 100 100 100 100 100 100 100 100 100 100 100 100 100
100 100 100 100 100 100 100 91 16 5 6 65 48 91 63 62 70 98 24 5 5 5 53 10 12 5 72 100 100 100 100 100 100 100 100 100 100 100 100 100 100 100 100 100 100 100 100
100 100 100 100 100 100 100 100 100 90 13 38 76 26 80 99 77 72 5 91 94 83 10 30 6 1 100 100 100 100 100 100 100 100 100 100 100 100 100 100 100 100 100 100 100 100 100
100 100 100 100 100 100 100 100 100 100 64 52 64 34 33 81 95 72 98 80 88 71 63 80 4 31 99 100 100 100 100 100 100 100 100 100 100 100 100 100 100 100 100 100 100 100 100
100 100 100 100 100 100 100 100 100 89 86 43 58 66 84 96 64 80 82 35 85 76 92 43 32 95 33 100 100 100 100 100 100 100 100 100 100 100 100 94 100 100 100 100 100 100 100
100 100 100 100 100 100 100 100 100 98 100 14 96 65 72 100 25 16 11 7 5 6 59 10 62 94 24 100 100 100 100 100 100 100 100 100 100 100 100 100 100 100 100 100 100 100 100

GFSGBSN_prec_cloud_105.txt.gz
Cloud_Cover
100 100 100 100 100 100 99 100 100 100 100 88 97 100 100 100 100 100 100 100 100 100 100 98 100 100 98 68 95 12 5 2 0 0 0 0 0 0 0 0 0 0 2 0 0 0 0
100 100 100 100 100 100 100 100 100 100 100 99 100 90 100 100 100 100 100 100 100 100 100 100 100 100 100 100 9 77 100 89 4 1 0 0 0 0 0 0 0 3 0 0 0 0 0
100 100 100 100 100 100 100 100 99 97 88 86 100 67 46 100 100 100 100 100 100 100 100 100 100 72 100 9 2 5 1 2 5 6 0 0 0 0 0 0 0 0 0 0 0 0 0
99 85 100 100 100 100 100 100 100 100 98 100 98 36 7 8 57 89 100 100 89 100 99 100 97 4 6 3 4 0 0 0 0 0 0 0 0 0 0 0 0 0 0 0 0 0 0
100 100 100 100 100 100 100 100 100 100 100 100 100 100 100 100 95 5 79 89 5 20 25 5 1 1 0 0 0 0 0 0 0 0 0 0 0 0 0 0 0 0 0 0 0 0 0
100 100 100 100 100 100 100 100 100 100 100 100 100 100 100 79 73 30 89 68 59 96 31 0 0 0 0 0 0 0 0 0 0 4 2 81 100 92 0 0 0 0 0 0 0 0 0
100 100 100 100 100 100 100 100 100 100 100 100 100 100 100 100 99 100 100 100 54 70 46 0 0 0 0 0 0 0 0 0 0 0 0 0 0 18 48 4 1 0 5 6 0 0 2
100 100 100 100 100 100 100 100 100 100 100 100 100 100 100 100 100 100 98 22 34 5 7 5 4 3 2 0 0 0 17 3 94 68 83 84 7 0 1 87 95 13 0 3 6 23 74
100 100 100 100 100 100 100 100 100 100 100 100 100 100 100 100 100 100 100 100 100 99 27 3 0 0 0 0 0 0 24 46 50 35 12 63 14 100 0 4 79 36 0 0 0 96 80
100 100 100 100 100 100 100 100 100 100 100 100 100 100 100 100 100 98 73 39 28 5 5 1 0 0 0 0 0 0 0 1 0 0 88 23 87 53 1 96 100 12 0 0 0 97 56
100 100 100 100 100 100 100 100 100 100 100 100 100 100 100 100 100 100 100 100 5 5 5 1 0 0 0 0 0 0 0 0 32 56 100 90 8 1 91 96 100 9 6 44 28 47 58
100 100 100 100 100 100 100 100 100 100 100 100 100 100 100 100 100 100 93 16 8 80 70 4 0 0 0 0 0 0 4 3 5 38 70 3 0 6 100 100 57 83 68 96 83 68 93
100 100 100 100 100 100 100 100 100 100 100 100 100 100 100 100 100 100 100 100 100 56 5 0 0 0 3 2 0 5 2 65 38 32 37 96 29 6 43 94 16 100 98 100 100 100 36
100 100 100 100 100 100 100 100 100 100 100 100 100 100 100 100 100 71 100 100 44 5 0 0 0 0 3 5 3 2 5 25 36 12 5 90 100 100 100 97 30 0 23 43 100 30 4
100 100 100 100 100 100 100 100 100 100 100 100 100 100 100 100 100 100 97 85 5 0 0 0 0 4 4 5 22 19 64 90 91 94 100 100 100 91 96 98 98 10 5 5 4 41 14
100 100 100 100 100 100 100 100 100 100 100 100 100 100 100 100 100 100 91 5 0 5 2 4 18 60 39 26 44 6 21 100 98 100 100 100 100 75 96 57 100 9 15 2 34 100 55
100 100 100 100 100 100 100 100 100 100 100 100 100 100 100 100 100 58 5 1 5 26 6 60 87 89 19 95 88 22 59 100 100 100 100 100 100 100 100 100 92 5 90 100 100 100 100
100 100 100 100 100 100 100 100 100 100 100 100 100 100 100 100 33 9 5 5 5 5 5 0 13 86 36 88 100 99 42 100 100 100 100 100 100 100 100 100 100 100 100 100 100 100 100
100 100 100 100 100 100 100 100 100 100 100 100 100 100 100 100 78 5 5 99 5 3 4 4 5 93 93 100 63 100 59 98 98 94 95 55 100 100 100 100 100 100 100 100 100 100 100
100 100 100 100 100 100 100 100 100 100 100 100 100 100 100 47 6 4 5 5 4 1 5 40 5 95 11 16 60 100 100 87 73 71 77 100 100 100 100 100 100 100 100 100 100 100 100
100 100 100 100 100 100 100 100 100 100 100 100 99 100 73 5 18 5 4 4 5 4 0 43 3 58 44 71 86 100 100 100 98 100 100 100 100 100 100 100 100 100 100 100 100 100 100
100 100 100 100 100 100 100 100 100 100 100 100 100 52 30 5 5 5 5 24 5 2 0 3 3 5 0 54 100 100 100 99 95 100 100 100 100 100 100 100 100 100 100 100 100 100 100
100 100 100 100 100 100 100 100 100 100 98 37 94 6 5 5 5 9 72 12 0 0 0 0 2 5 0 9 100 100 100 100 73 100 100 100 100 100 100 100 100 100 100 100 100 100 100
100 100 100 100 100 100 100 100 100 100 42 8 5 7 7 5 13 63 4 0 0 1 2 4 5 5 0 0 91 75 100 100 100 100 100 100 100 100 100 100 100 100 100 100 100 100 100
100 100 100 100 100 100 100 100 100 90 93 50 5 7 5 27 5 66 79 5 5 9 2 5 4 1 0 3 28 98 100 99 100 100 100 100 100 100 100 100 100 100 100 100 100 100 100
100 100 100 100 100 100 100 100 100 100 52 51 24 10 13 5 22 5 10 34 2 0 0 5 0 0 0 1 25 100 100 100 100 100 100 100 100 100 100 100 100 100 100 100 100 100 100
100 100 100 100 100 100 100 100 100 100 95 87 14 5 81 5 10 5 7 3 2 3 5 1 0 0 0 7 75 100 100 100 100 100 100 100 100 100 100 100 100 100 100 100 100 100 100
100 100 100 100 100 100 100 99 100 100 55 8 84 80 52 62 30 5 5 5 5 3 5 1 3 31 4 25 90 100 100 100 100 100 100 100 100 100 100 100 100 100 100 100 100 100 100
100 100 100 100 100 100 100 100 100 100 100 100 93 75 42 7 5 5 5 0 1 3 5 5 21 99 62 7 100 100 100 100 100 100 100 100 100 100 100 100 100 100 100 100 100 100 100

GFSGBSN_prec_cloud_108.txt.gz
Cloud_Cover
100 85 82 55 100 100 100 100 100 100 100 100 100 100 100 100 100 100 100 100 94 48 69 54 66 75 36 96 99 100 100 100 100 100 100 100 100 60 5 1 12 5 1 0 0 0 0
100 76 85 80 95 100 100 100 100 100 100 100 100 100 100 100 100 96 100 100 100 100 100 100 100 100 100 100 100 100 100 100 100 99 100 100 47 13 3 0 0 1 2 5 0 0 0
100 100 100 100 100 100 100 100 100 100 100 100 100 100 100 100 100 100 99 81 100 78 76 100 100 100 100 100 100 100 100 100 98 66 76 92 34 1 0 0 0 0 0 0 0 1 0
100 100 100 100 100 100 100 100 100 100 100 100 100 58 99 100 100 100 100 100 100 100 99 5 1 8 8 49 100 36 0 2 0 0 4 0 0 0 0 0 0 0 0 0 0 0 0
100 100 100 100 100 100 100 100 100 100 100 100 98 97 100 71 96 100 100 100 30 62 5 5 21 6 3 5 85 5 5 1 0 2 0 0 0 0 0 0 0 0 0 0 0 0 0
100 100 94 100 100 94 99 100 100 100 100 100 100 100 100 70 82 100 100 100 20 99 24 57 5 62 92 100 36 1 0 0 0 0 0 1 7 5 3 14 63 0 0 0 0 0 0
100 100 100 100 100 100 100 100 100 100 100 100 100 100 100 100 100 100 100 100 29 81 88 93 50 6 0 2 5 2 0 0 0 0 0 0 2 12 0 6 90 100 70 27 0 0 0
100 100 100 93 100 100 100 100 100 100 100 100 100 100 100 100 100 100 100 100 100 100 100 100 100 52 11 5 0 2 0 0 0 0 0 0 2 8 100 100 58 0 94 75 1 0 7
100 100 100 100 100 100 100 100 100 100 100 100 100 100 100 100 100 100 100 100 100 100 100 100 63 28 11 0 0 0 0 0 0 0 0 0 0 40 69 5 100 0 31 100 18 0 63
100 100 100 100 92 100 100 100 100 84 100 100 100 100 100 100 100 100 100 100 100 100 92 98 24 13 5 0 3 0 0 0 0 0 0 1 98 89 100 38 71 0 2 77 90 4 43
100 100 100 93 100 100 100 100 100 100 100 98 100 100 100 100 100 100 100 100 100 100 51 74 100 28 40 2 0 0 3 5 2 3 21 38 1 86 46 4 54 100 100 75 70 0 98
100 100 100 100 100 100 100 100 100 100 99 100 92 100 100 100 100 100 100 100 100 100 100 100 99 100 100 2 0 0 5 56 33 5 5 2 0 4 0 92 100 84 29 78 24 0 41
100 100 100 100 100 100 100 100 100 100 100 100 100 85 100 100 100 100 100 100 100 100 96 100 100 95 5 2 0 0 5 81 73 88 5 6 15 29 100 99 18 5 96 78 70 50 6
100 100 94 100 100 100 100 100 100 100 100 100 100 100 100 100 100 100 100 100 100 100 100 100 100 28 0 8 4 4 5 5 53 88 92 100 100 65 99 88 15 65 55 94 100 92 100
100 100 100 100 100 100 100 100 100 100 100 100 100 100 100 100 100 100 100 100 92 99 100 100 38 5 0 3 77 61 5 86 93 100 100 100 100 22 89 36 100 13 92 100 100 100 96
100 100 100 100 100 100 100 100 100 100 100 100 100 100 100 100 100 100 100 100 100 100 100 78 21 5 24 23 94 22 12 74 87 100 100 100 89 97 93 82 68 56 92 100 100 81 100
100 100 100 100 100 100 100 100 100 100 100 100 100 100 100 100 100 100 100 87 93 100 71 1 4 27 30 91 86 35 28 70 97 87 100 100 100 100 91 70 51 92 100 100 100 100 100
100 100 100 100 100 100 100 100 100 100 100 100 100 100 100 100 100 100 98 94 77 6 0 0 4 8 97 52 95 99 54 99 99 100 100 100 100 100 100 100 100 100 100 100 100 100 100
100 100 100 100 100 100 100 100 100 100 100 100 100 100 100 100 100 100 100 100 60 2 0 5 3 27 59 66 75 68 78 94 96 95 94 97 100 100 100 100 100 100 100 100 100 100 100
100 100 100 100 100 100 100 100 100 100 100 100 100 100 100 100 100 100 100 66 5 5 4 5 5 4 1 7 53 81 94 18 44 6 43 100 100 100 100 100 100 100 100 100 100 100 100
100 100 100 100 100 100 100 100 100 100 100 100 100 100 100 100 100 100 46 7 5 5 5 5 4 0 5 2 7 22 89 65 49 5 80 100 100 100 100 100 100 100 100 100 100 100 100
100 100 100 100 100 100 100 100 100 100 100 100 100 100 100 100 100 100 31 8 5 5 4 4 0 0 0 0 0 4 52 7 5 81 87 100 100 100 100 100 100 100 100 100 100 100 100
100 100 100 100 100 100 100 100 100 100 100 100 100 100 100 100 100 88 5 9 5 5 0 4 3 0 0 0 0 56 73 79 98 84 100 100 100 100 100 100 100 100 100 100 100 100 100
100 100 100 100 100 100 100 100 100 100 100 100 100 100 100 100 58 18 5 5 5 5 3 0 0 0 0 0 0 3 6 49 100 100 100 100 100 100 100 100 100 100 100 100 100 100 100
100 100 100 100 100 100 100 100 100 100 100 100 100 100 100 100 14 6 12 3 5 5 1 0 0 0 0 0 1 52 8 98 100 100 100 100 100 100 100 100 100 100 100 100 100 100 100
100 100 100 100 100 100 100 100 100 100 100 100 100 100 66 25 61 5 5 5 5 0 0 0 0 0 0 4 5 95 89 100 100 100 100 100 100 100 100 100 100 100 100 100 100 100 100
100 100 100 100 100 100 100 100 100 100 100 100 100 100 99 82 25 4 5 1 5 1 0 2 0 1 0 8 5 81 100 98 100 100 100 100 100 100 100 100 99 100 100 100 100 100 100
100 100 100 100 100 100 100 100 100 100 100 100 100 24 61 74 5 5 5 0 3 0 5 1 17 5 4 9 5 80 100 100 100 100 100 100 100 100 100 100 96 100 77 83 100 100 100
100 100 100 100 100 100 100 100 100 100 100 100 100 40 6 6 5 5 5 0 0 0 1 5 26 22 6 5 6 54 100 99 100 100 100 100 100 100 100 100 100 100 100 100 100 100 100

GFSGBSN_prec_cloud_111.txt.gz
Cloud_Cover
100 75 100 81 57 16 11 98 94 86 100 100 100 99 49 84 98 100 100 99 100 100 100 100 100 100 100 98 5 37 55 100 87 78 100 100 100 100 100 100 100 99 96 91 20 40 2
100 90 100 87 100 54 70 76 88 86 100 100 100 100 98 94 7 67 100 100 100 100 100 100 100 100 100 100 100 100 100 100 100 100 100 100 100 100 100 100 96 24 1 5 5 45 6
100 100 58 100 100 100 96 98 58 100 100 100 100 100 96 100 25 88 98 100 100 100 60 85 100 66 7 8 15 5 5 100 54 46 81 26 63 100 100 100 1 2 0 0 4 3 4
100 100 100 100 89 97 100 99 100 100 100 100 100 100 100 74 100 100 100 88 89 77 60 56 39 36 15 18 4 1 2 0 0 0 0 0 0 0 0 6 0 0 0 0 0 0 0
100 100 100 100 100 100 77 99 63 100 95 100 100 92 92 46 48 97 99 100 78 82 83 5 9 5 1 0 5 0 0 0 0 0 0 0 0 0 0 0 0 0 0 0 0 0 0
100 100 100 100 100 100 100 98 92 100 38 100 98 96 95 26 5 15 100 80 100 91 19 6 12 5 0 0 0 0 0 0 0 0 0 0 0 0 0 0 5 5 5 5 4 0 0
100 100 100 100 100 100 100 100 90 86 57 100 100 88 68 100 92 92 97 100 99 91 79 22 44 46 5 1 0 0 0 0 0 0 0 0 0 5 0 0 0 5 5 0 0 0 12
100 100 100 100 100 100 100 100 96 100 96 100 100 98 98 13 96 100 96 100 100 100 100 100 96 23 5 3 3 2 1 0 1 29 7 2 0 0 0 0 1 0 0 0 0 0 98
100 100 100 100 100 100 100 97 100 100 100 100 100 90 100 100 59 65 64 100 100 100 99 99 100 100 93 49 43 10 6 47 67 5 1 3 0 0 0 0 0 0 7 30 68 1 33
100 100 100 100 100 100 100 100 100 100 100 100 100 69 100 71 100 60 99 100 96 100 100 100 100 100 100 100 100 9 5 5 5 3 23 3 0 0 0 0 1 5 97 34 5 88 93
100 100 100 100 100 100 100 100 100 100 100 100 96 79 100 16 87 100 100 100 98 100 100 100 100 100 100 36 68 63 5 5 5 5 12 3 0 4 5 0 4 3 5 41 96 100 95
100 100 100 100 100 100 100 86 96 100 100 100 100 100 100 100 61 100 100 100 100 98 100 100 100 100 100 100 32 3 5 10 12 3 2 6 16 3 6 30 3 38 5 57 30 98 98
100 100 100 100 100 100 100 100 100 100 100 100 100 100 100 100 100 100 99 100 100 100 100 100 100 100 100 100 15 5 4 66 100 96 10 12 72 16 83 54 26 3 75 93 100 98 29
100 100 100 100 100 100 94 100 100 100 100 100 100 100 100 100 100 100 100 99 100 100 100 100 100 100 100 100 55 2 0 5 86 94 100 90 4 84 65 49 76 100 100 100 100 100 100
100 100 100 100 100 100 100 100 100 100 100 100 100 100 100 100 100 100 100 99 100 100 100 100 100 100 100 19 5 5 5 8 100 100 100 100 44 48 49 82 30 81 100 100 100 100 100
100 100 100 100 100 100 100 100 100 100 100 100 100 100 100 100 100 100 100 100 100 100 100 100 100 100 100 9 5 5 18 15 67 89 100 100 94 33 61 53 93 100 89 100 100 100 100
100 100 100 100 100 100 100 100 100 100 100 100 100 100 100 100 100 100 100 100 100 100 100 100 100 100 16 5 16 36 11 24 100 90 100 100 100 84 100 100 22 66 43 93 73 99 100
100 100 100 100 100 100 100 100 100 100 100 100 100 100 100 100 100 100 100 100 100 100 100 100 100 5 5 4 61 20 42 94 100 100 48 93 100 100 99 100 100 100 100 100 100 100 100
100 100 100 100 100 100 100 100 100 100 100 100 100 100 100 100 100 100 100 100 100 100 100 100 22 5 5 29 24 5 5 79 8 100 100 100 100 100 100 100 100 100 100 100 100 100 100
100 100 100 100 100 100 100 100 100 100 100 100 100 100 100 100 100 100 100 100 100 100 100 38 67 4 5 2 4 12 5 28 47 100 100 100 100 100 100 100 100 100 100 100 100 100 100
100 100 100 100 100 100 100 100 100 100 100 100 100 100 100 100 100 100 100 100 100 100 100 99 5 9 5 5 1 17 5 16 76 100 100 88 100 100 100 100 100 100 100 100 100 100 100
100 100 100 100 100 100 100 100 100 100 100 100 100 100 100 100 100 100 100 100 100 100 100 98 5 5 18 0 0 0 5 67 84 100 100 100 100 100 100 100 100 100 100 100 100 100 100
100 100 100 100 100 100 100 100 100 100 100 100 100 100 100 100 100 100 100 100 100 100 83 5 65 14 1 0 0 2 5 48 89 100 100 100 100 100 100 100 100 100 100 100 100 100 100
100 100 100 100 100 100 100 100 100 100 100 100 100 100 100 100 100 100 100 100 100 98 8 17 80 5 0 0 0 0 5 5 100 98 100 100 100 100 100 100 100 100 100 100 100 100 100
100 100 100 100 100 100 100 100 100 100 100 100 100 100 100 100 100 100 100 100 79 14 5 29 5 5 0 0 0 5 5 13 100 100 100 100 100 100 100 100 100 100 100 100 100 100 100
100 100 100 100 100 100 100 100 100 100 100 100 100 100 100 100 100 100 100 97 27 6 39 5 6 4 0 5 5 50 60 60 100 97 100 100 100 100 100 100 100 100 100 100 100 100 100
100 100 100 100 100 100 100 100 100 100 100 100 100 100 100 100 100 100 100 56 5 5 5 13 5 2 0 12 5 7 7 93 100 89 100 100 100 100 100 100 100 100 100 100 100 100 100
100 100 100 100 100 100 100 100 100 100 100 100 100 100 100 100 100 100 100 53 5 5 5 21 5 4 5 17 5 5 14 98 99 98 100 100 100 100 100 100 100 95 92 98 100 100 99
100 100 100 100 100 100 100 100 100 100 100 100 100 100 100 100 100 100 36 8 5 5 5 23 5 8 5 10 6 13 54 100 100 100 100 100 100 100 100 100 100 100 100 100 100 98 100

GFSGBSN_prec_cloud_114.txt.gz
Cloud_Cover
97 42 33 99 18 99 44 31 5 13 10 11 27 7 92 100 100 100 80 26 11 64 97 100 100 100 100 99 100 79 100 100 80 24 23 48 6 14 21 71 90 99 100 100 100 100 100
22 94 81 98 70 48 15 52 49 42 20 74 5 25 16 100 100 100 100 100 39 9 6 6 30 100 100 100 100 100 100 87 93 96 54 91 72 28 78 99 100 87 100 94 93 70 100
100 100 90 100 95 36 16 54 44 100 51 7 35 52 67 83 100 92 84 76 20 69 45 5 24 5 9 79 100 85 16 5 5 22 4 5 4 4 2 0 0 2 0 0 2 0 0
96 100 100 100 100 100 62 90 100 99 54 99 20 47 99 98 100 74 71 6 6 14 39 48 20 5 5 13 5 5 21 40 5 1 5 0 0 0 0 0 0 0 0 0 3 0 0
100 100 87 100 93 100 100 84 100 66 55 65 50 100 59 69 97 76 97 69 60 34 5 36 98 90 72 36 21 5 27 17 5 0 0 0 0 0 0 0 0 0 0 0 0 0 0
100 98 100 100 89 54 100 100 100 93 100 98 38 54 98 100 93 100 84 36 5 5 5 5 10 42 5 34 49 5 2 0 0 0 0 0 0 0 0 0 0 0 0 0 0 0 0
63 100 100 100 100 100 100 100 100 100 100 99 52 100 100 100 83 97 100 5 25 6 5 10 5 5 5 33 33 5 5 5 5 2 0 0 1 0 0 0 0 0 0 0 0 0 0
8 2 100 100 100 100 100 100 100 100 100 100 100 99 100 100 100 69 82 55 5 5 5 5 5 5 5 8 90 7 30 48 5 2 0 0 0 0 5 10 11 0 0 0 0 0 1
5 5 6 100 100 100 100 100 100 100 97 100 100 100 100 100 100 51 6 59 28 7 12 15 19 5 5 24 64 20 100 100 96 6 5 5 4 5 3 0 0 0 0 0 1 0 3
5 5 4 22 100 100 100 100 100 100 100 100 100 100 100 100 100 61 21 58 26 10 35 54 6 1 0 5 6 94 100 78 24 5 5 3 25 3 0 0 0 0 0 0 4 64 72
0 1 0 9 100 100 100 100 100 100 100 100 100 100 100 100 97 93 84 47 21 47 29 21 5 5 5 43 100 100 95 91 99 7 3 39 0 0 3 0 0 0 0 0 5 5 35
58 75 3 1 82 100 100 100 100 99 100 100 100 100 100 100 93 100 96 100 94 51 52 12 8 69 94 100 100 100 33 45 6 33 2 3 5 2 2 4 5 24 4 10 63 100 95
100 100 100 82 6 100 100 100 100 100 100 100 100 100 100 100 100 100 100 100 86 100 99 80 20 37 100 100 100 100 65 6 47 72 5 4 0 3 3 3 5 74 92 79 100 100 100
62 95 82 100 99 100 100 100 100 100 100 100 100 100 100 100 100 100 100 100 100 100 100 86 20 99 100 100 100 100 58 5 12 51 68 82 8 4 72 10 85 84 45 100 99 100 100
5 0 30 100 100 100 100 100 100 100 100 100 100 100 100 100 100 100 100 100 100 100 100 100 67 100 100 100 100 100 100 5 5 5 100 80 14 0 80 44 32 12 12 87 100 100 100
0 5 36 100 100 100 100 100 100 100 100 100 100 100 100 100 100 100 100 100 100 100 100 100 100 98 100 100 100 100 100 4 5 5 99 70 100 1 0 5 5 11 18 95 100 100 100
2 39 94 100 100 100 100 100 100 100 100 100 100 100 100 100 100 100 100 100 100 100 100 100 100 98 100 100 100 100 93 2 3 5 74 82 100 25 7 14 5 52 79 92 100 93 100
100 100 100 100 100 100 100 100 100 100 100 100 100 100 100 100 100 100 100 100 100 100 100 100 100 100 100 100 100 100 6 5 5 5 5 36 100 98 94 99 98 100 100 100 100 100 100
100 100 100 100 100 100 100 100 100 100 100 100 100 100 100 100 100 100 100 100 100 100 100 100 100 100 100 100 100 15 5 0 5 5 47 100 95 79 100 100 100 100 100 100 100 100 100
100 100 100 100 100 100 100 100 100 100 100 100 100 100 100 100 100 100 100 100 100 100 100 100 100 100 100 100 100 65 5 3 5 5 45 100 100 99 100 100 100 100 100 100 100 100 100
100 100 100 100 100 100 100 100 100 100 100 100 100 100 100 100 100 100 100 100 100 100 100 100 100 100 100 100 18 54 5 1 40 5 57 100 100 100 100 100 100 100 100 100 100 96 100
100 100 100 100 100 100 100 100 100 100 100 100 100 100 100 100 100 100 100 100 100 100 100 100 100 100 100 100 45 54 11 0 0 23 82 100 100 100 100 100 100 100 100 100 100 100 100
100 100 100 100 100 100 100 100 100 100 100 100 100 100 100 100 100 100 100 100 100 100 100 100 100 100 99 62 82 56 5 0 3 5 72 100 100 100 100 100 100 100 100 100 100 100 100
100 100 100 100 100 100 100 100 100 100 100 100 100 100 100 100 100 100 100 100 100 100 100 100 100 100 46 27 99 20 5 5 5 10 92 99 100 100 100 100 100 100 100 100 100 100 100
100 100 100 100 100 100 100 100 100 100 100 100 100 100 100 100 100 100 100 100 100 100 100 100 100 62 17 99 45 6 5 5 5 84 83 100 100 100 100 100 100 100 100 100 100 100 100
100 100 100 100 100 100 100 100 100 100 100 100 100 100 100 100 100 100 99 100 100 100 100 100 87 70 100 79 5 57 81 5 6 59 58 100 100 100 100 100 100 100 100 100 95 99 100
100 100 100 100 100 100 100 100 100 100 100 100 100 100 100 100 100 100 100 100 100 100 100 87 78 85 63 11 5 7 20 6 51 46 93 100 100 100 100 100 100 100 100 100 100 90 99
100 100 100 100 100 100 100 100 100 100 100 100 100 100 100 100 100 100 100 100 100 100 100 88 99 96 28 27 5 5 24 30 96 55 99 96 100 100 100 100 100 100 100 100 100 100 36
100 100 100 100 100 100 100 100 100 100 100 100 100 100 100 100 100 100 100 100 100 100 76 98 72 5 8 11 12 8 33 62 94 100 68 100 100 100 100 100 100 100 100 100 100 100 100

GFSGBSN_prec_cloud_117.txt.gz
Cloud_Cover
100 100 99 94 100 100 86 16 3 34 5 8 39 5 5 5 5 5 5 5 15 100 100 78 7 9 8 20 59 53 100 100 100 100 100 100 100 100 100 100 100 100 74 61 5 30 31
100 100 98 100 100 100 100 54 5 1 5 5 5 6 5 5 8 11 5 6 5 15 100 100 98 5 8 43 5 5 5 32 96 100 100 100 100 100 100 100 94 95 60 34 15 31 78
100 100 100 94 100 100 100 100 27 46 17 6 73 62 22 60 5 58 12 52 95 53 15 65 55 33 10 5 5 6 5 9 24 5 8 30 91 52 6 16 35 5 5 2 0 2 7
100 100 99 100 100 98 60 58 96 83 11 25 98 15 78 25 43 78 93 100 7 75 70 8 48 85 5 5 5 5 8 5 5 5 5 4 1 0 0 0 0 1 0 0 0 0 0
100 100 79 100 100 100 100 74 58 100 100 90 100 100 37 53 79 6 57 75 24 66 73 24 39 5 5 5 4 5 14 6 5 5 5 3 0 0 0 0 0 0 0 0 0 0 0
95 100 99 100 100 100 99 100 100 98 100 100 100 94 100 100 65 5 92 32 75 100 62 46 5 5 6 4 1 0 1 2 2 0 2 5 4 4 0 0 0 0 0 0 0 1 0
98 84 37 100 100 100 100 98 100 100 100 100 100 100 94 99 100 98 88 95 100 78 11 12 24 5 5 5 5 1 5 5 2 5 5 5 5 4 0 0 0 0 0 0 0 0 0
32 57 5 5 100 99 100 100 100 96 100 100 100 100 87 95 92 75 100 24 99 100 65 28 5 5 5 0 3 3 5 3 3 2 5 5 5 0 0 0 0 0 0 0 0 0 0
90 89 20 0 1 2 100 100 100 100 100 100 100 100 100 100 98 100 100 88 34 64 99 16 5 7 5 5 0 0 0 0 0 0 4 5 0 0 0 1 4 0 0 0 0 0 0
55 13 5 2 19 0 80 100 100 100 100 100 100 100 100 100 100 100 100 100 99 98 95 6 5 20 16 5 4 5 0 0 4 5 5 5 5 5 72 33 0 0 0 0 0 2 2
0 0 4 5 52 16 5 54 100 100 100 100 100 100 100 100 100 100 100 100 100 94 99 78 11 92 30 5 5 5 5 5 4 4 6 71 98 71 5 0 0 0 0 0 0 5 22
5 88 76 24 83 35 2 0 100 100 100 100 100 100 100 100 100 100 100 98 100 100 99 31 100 99 7 24 10 5 5 5 5 72 100 68 5 5 4 5 2 0 2 2 3 72 90
48 11 65 2 84 87 99 0 91 100 100 100 100 100 99 100 100 100 100 100 100 41 85 96 100 100 100 77 23 6 5 8 10 62 100 89 60 0 5 5 5 5 5 12 3 38 90
0 0 11 100 98 98 41 23 100 100 100 98 100 100 100 100 100 100 100 100 92 94 98 100 100 100 100 100 91 5 5 32 18 28 29 93 10 0 1 21 57 5 33 54 100 50 100
5 5 55 100 100 100 98 71 100 100 100 100 100 100 100 100 100 100 100 100 100 100 100 100 100 100 100 100 98 100 62 88 16 32 5 77 19 0 5 5 8 36 74 92 100 59 97
33 100 52 19 67 16 14 6 100 100 100 95 100 100 100 100 100 100 100 100 100 100 100 100 100 100 100 100 100 89 100 90 41 5 5 5 88 0 0 0 4 83 15 93 95 99 83
98 71 87 100 94 100 97 0 100 100 100 100 100 100 100 100 100 100 100 100 100 100 100 100 100 100 100 100 100 100 100 100 16 59 5 10 80 8 5 4 61 66 90 98 100 99 96
99 16 0 0 90 100 100 30 100 100 100 100 100 100 100 100 100 100 100 100 100 100 100 100 100 100 100 100 100 100 100 100 76 22 5 57 94 100 7 5 100 95 100 100 100 90 92
4 0 0 6 71 100 100 99 100 100 72 97 100 100 100 100 100 100 100 100 100 100 100 100 100 100 100 100 100 100 100 100 19 5 5 35 95 92 5 32 100 100 100 100 100 100 100
32 99 100 100 100 100 100 100 100 100 100 100 100 100 100 100 98 100 100 100 100 100 100 100 100 100 100 100 100 100 100 100 93 5 5 8 75 98 98 100 100 100 100 100 100 100 100
100 100 100 100 100 100 100 100 100 100 100 100 100 100 100 100 100 100 100 100 100 100 100 100 100 100 100 100 100 100 100 100 97 11 5 35 100 92 100 100 100 100 100 100 100 100 100
100 100 45 100 100 100 100 100 100 100 100 100 100 100 100 100 100 100 100 100 100 100 100 100 100 100 100 100 100 100 100 100 86 5 5 51 80 100 98 100 100 100 100 100 100 100 100
100 100 100 100 100 100 100 100 100 100 100 100 100 100 100 100 100 100 100 100 100 100 100 100 100 100 100 100 100 100 100 65 81 11 5 97 100 65 73 100 100 100 100 100 100 100 100
100 100 100 100 100 100 100 100 100 100 100 100 100 100 100 100 100 100 100 100 100 100 100 100 100 100 100 100 100 100 99 83 70 5 17 91 100 93 66 100 100 100 100 100 100 100 100
100 100 100 100 100 100 100 100 100 100 100 100 100 100 100 100 100 100 100 100 100 100 100 100 100 100 100 100 100 100 87 100 55 55 77 83 100 56 97 100 100 100 100 100 100 100 100
100 100 100 100 100 100 100 100 100 100 100 100 100 100 100 100 100 100 100 100 100 100 100 100 100 100 100 100 100 78 93 18 77 96 81 52 65 94 88 100 100 100 100 100 100 100 100
100 100 100 100 100 100 100 100 100 100 100 100 100 100 100 100 100 100 100 100 100 100 100 100 100 100 100 100 98 91 63 5 79 88 96 8 27 88 98 100 100 100 100 100 100 82 100
100 100 100 100 100 100 100 100 100 100 100 100 100 100 100 100 100 100 100 100 100 100 100 100 100 100 100 100 94 80 10 21 82 56 100 34 91 98 98 100 100 100 100 100 100 94 94
100 100 100 100 100 100 100 100 100 100 100 100 100 100 100 100 100 100 100 100 100 100 100 100 100 100 95 98 88 23 18 7 68 100 63 78 29 89 100 100 100 100 100 100 100 100 98

GFSGBSN_prec_cloud_120.txt.gz
Cloud_Cover
100 100 96 100 100 100 100 99 99 94 85 24 19 8 5 4 2 0 3 5 4 4 2 2 5 1 5 24 52 10 78 27 8 18 23 85 100 100 100 100 100 100 91 100 100 100 100
100 100 100 100 100 100 99 98 62 19 18 83 15 11 5 8 5 5 5 5 5 5 5 5 5 5 5 5 5 60 7 38 34 46 12 5 5 8 44 99 100 98 75 25 68 46 25
100 100 100 100 100 100 100 100 100 100 78 74 96 5 3 5 5 5 67 5 5 5 9 5 28 6 11 22 5 6 5 5 5 5 6 19 5 5 5 5 5 5 5 5 2 5 5
100 100 100 100 100 100 100 100 100 100 100 94 100 40 66 96 10 5 94 100 54 7 5 7 64 5 20 11 5 4 5 5 0 0 2 4 4 5 5 5 5 5 5 0 0 1 0
98 100 100 100 100 100 100 100 100 100 100 100 100 100 82 88 26 83 94 89 92 44 24 5 64 64 47 20 8 5 5 4 0 2 2 4 0 0 0 0 0 4 4 0 0 0 0
100 100 100 100 100 100 100 100 100 100 100 100 100 100 100 100 30 47 42 71 64 100 87 14 6 49 54 14 14 5 2 0 0 0 0 0 0 0 0 0 0 0 0 0 0 0 0
100 100 91 100 100 100 100 100 100 100 100 100 100 100 100 100 84 19 12 27 97 47 76 81 25 77 75 40 5 5 5 1 0 0 0 0 0 0 0 0 0 0 0 0 0 0 0
71 65 82 62 90 100 100 100 100 100 100 100 100 100 100 100 100 99 81 100 100 77 67 55 31 58 32 61 72 6 5 4 4 0 0 0 0 0 0 0 0 0 0 0 0 0 0
100 72 88 78 59 89 100 100 100 100 100 100 100 100 100 99 99 100 100 100 100 100 100 94 5 49 73 56 64 20 5 5 0 0 0 0 0 0 0 0 0 0 0 0 0 0 0
100 100 100 100 100 100 100 100 46 88 90 100 100 100 100 100 100 100 100 100 100 100 99 100 18 35 100 78 32 64 6 5 5 5 5 5 0 0 0 1 3 0 0 0 0 0 0
100 98 100 100 99 100 94 97 100 5 100 100 100 100 100 100 100 100 100 100 100 100 100 100 100 94 61 99 36 95 68 8 4 5 5 5 0 0 1 0 0 0 0 0 2 5 9
100 44 5 6 42 99 4 54 76 76 100 100 100 100 100 100 100 100 100 100 100 100 100 90 100 100 100 78 96 100 100 97 31 46 5 3 3 5 3 0 0 2 4 12 5 5 41
56 10 100 99 100 26 67 58 60 53 100 100 100 100 100 100 100 100 100 100 100 98 100 100 100 100 100 100 66 99 100 100 100 100 83 5 5 5 4 4 4 5 92 39 100 100 47
100 100 100 100 85 100 100 100 100 85 13 100 100 100 100 100 100 100 100 100 100 79 94 98 100 100 100 100 99 64 100 100 100 92 9 22 51 6 5 1 5 8 73 96 100 98 93
100 100 100 100 47 4 73 100 98 46 100 100 100 100 100 100 100 100 100 100 100 100 46 100 97 73 100 100 100 100 100 100 100 100 5 70 91 30 5 0 8 72 97 87 73 94 100
99 24 79 64 2 2 86 100 99 8 77 100 100 100 100 100 100 100 100 68 100 100 63 87 98 100 100 100 100 100 100 100 100 100 46 73 100 66 4 3 55 18 50 100 94 94 92
5 5 5 5 5 5 75 100 98 19 100 100 100 100 100 100 100 100 100 100 87 100 45 100 84 100 100 100 100 100 100 100 100 100 100 98 100 65 2 60 89 99 96 100 86 97 100
5 5 5 5 58 73 86 100 100 18 100 100 100 100 100 100 100 100 91 100 100 100 100 100 89 100 100 100 100 100 100 100 100 84 62 93 98 49 3 41 5 5 99 100 100 100 100
5 5 13 25 100 46 84 100 100 100 100 100 100 100 100 100 100 98 100 100 99 99 100 100 100 100 100 100 100 100 100 100 100 96 85 100 98 37 96 88 71 17 97 100 100 100 100
6 75 79 94 66 98 100 100 100 100 100 100 100 100 100 100 100 96 100 100 100 100 100 100 100 100 100 100 100 100 100 100 100 100 74 100 100 42 97 73 65 95 100 100 100 100 100
95 98 49 0 12 23 90 100 100 100 100 100 100 100 47 91 100 64 100 100 100 100 100 100 100 100 100 100 100 100 100 100 100 100 100 100 100 83 80 91 100 81 97 99 100 100 100
34 7 79 22 97 100 100 100 100 100 100 100 99 88 94 90 100 100 100 100 100 100 100 100 100 100 100 100 100 100 100 100 100 100 100 100 100 100 64 76 100 37 87 96 100 100 100
100 100 100 100 100 100 100 100 100 100 100 100 93 99 72 92 100 100 100 100 100 100 100 100 100 100 100 100 100 100 100 100 100 100 100 100 85 100 100 88 100 98 100 92 98 100 100
100 100 76 87 93 100 100 100 100 100 100 100 98 61 98 100 100 100 100 100 100 100 100 100 100 100 100 100 100 100 100 100 100 100 100 100 100 100 92 92 98 100 98 100 91 100 100
100 100 100 100 100 100 100 100 100 100 100 100 100 100 100 100 100 100 100 100 100 100 100 100 100 100 100 100 100 100 100 100 100 100 95 95 94 97 90 100 92 100 100 100 100 100 100
100 100 100 100 100 100 100 100 100 100 100 100 100 100 100 100 100 100 100 100 100 100 100 100 100 100 100 100 100 100 100 100 100 100 89 90 84 93 95 100 100 100 100 98 100 100 100
100 100 100 100 100 100 100 100 100 100 100 100 100 100 100 100 100 100 100 100 100 100 100 100 100 100 100 100 100 100 100 100 100 100 95 100 100 100 100 96 98 100 100 100 100 100 99
100 100 100 100 100 100 100 100 100 100 100 100 100 100 100 100 100 100 100 100 100 100 100 100 100 100 100 100 100 100 100 100 100 92 97 96 91 100 100 100 100 95 100 100 100 100 99
100 100 100 100 100 100 100 100 100 100 100 100 100 100 100 100 100 100 100 100 100 100 100 100 100 100 100 100 100 100 100 100 97 99 66 95 88 100 98 99 99 100 100 100 100 100 100